<?xml version="1.0" encoding="UTF-8" standalone="no" ?>
<gpx xmlns="http://www.topografix.com/GPX/1/1" xmlns:xsi="http://www.w3.org/2001/XMLSchema-instance" xsi:schemaLocation="http://www.topografix.com/GPX/1/1 http://www.topografix.com/GPX/1/1/gpx.xsd" version="1.1" creator="VisuGPX - https://www.visugpx.com">
  <metadata>
    <name>boucle en allemagne au départ de Saint Nicolas</name>
    <desc><![CDATA[réalisable quelque soit la météo]]></desc>
  </metadata>
  <trk>
    <name><![CDATA[2014-04-02-01]]></name>
    <trkseg>
      <trkpt lat="49.17411" lon="6.83092">
        <ele>243.8</ele>
        <time>2014-04-02T06:31:13Z</time>
      </trkpt>
      <trkpt lat="49.17411" lon="6.83092">
        <ele>244</ele>
        <time>2014-04-02T06:31:14Z</time>
      </trkpt>
      <trkpt lat="49.17411" lon="6.83093">
        <ele>244.5</ele>
        <time>2014-04-02T06:31:19Z</time>
      </trkpt>
      <trkpt lat="49.1741" lon="6.83095">
        <ele>244.2</ele>
        <time>2014-04-02T06:31:24Z</time>
      </trkpt>
      <trkpt lat="49.17409" lon="6.83098">
        <ele>243.9</ele>
        <time>2014-04-02T06:31:29Z</time>
      </trkpt>
      <trkpt lat="49.1741" lon="6.83099">
        <ele>243.7</ele>
        <time>2014-04-02T06:31:34Z</time>
      </trkpt>
      <trkpt lat="49.17411" lon="6.831">
        <ele>243.6</ele>
        <time>2014-04-02T06:31:39Z</time>
      </trkpt>
      <trkpt lat="49.17412" lon="6.83101">
        <ele>243.6</ele>
        <time>2014-04-02T06:31:44Z</time>
      </trkpt>
      <trkpt lat="49.17413" lon="6.83104">
        <ele>243.3</ele>
        <time>2014-04-02T06:31:49Z</time>
      </trkpt>
      <trkpt lat="49.17417" lon="6.83107">
        <ele>243</ele>
        <time>2014-04-02T06:31:54Z</time>
      </trkpt>
      <trkpt lat="49.17419" lon="6.83112">
        <ele>243.2</ele>
        <time>2014-04-02T06:31:59Z</time>
      </trkpt>
      <trkpt lat="49.17423" lon="6.83118">
        <ele>242.3</ele>
        <time>2014-04-02T06:32:04Z</time>
      </trkpt>
      <trkpt lat="49.17426" lon="6.83125">
        <ele>242</ele>
        <time>2014-04-02T06:32:09Z</time>
      </trkpt>
      <trkpt lat="49.17429" lon="6.83134">
        <ele>241.8</ele>
        <time>2014-04-02T06:32:14Z</time>
      </trkpt>
      <trkpt lat="49.17433" lon="6.83142">
        <ele>241.8</ele>
        <time>2014-04-02T06:32:19Z</time>
      </trkpt>
      <trkpt lat="49.17436" lon="6.8315">
        <ele>241.3</ele>
        <time>2014-04-02T06:32:24Z</time>
      </trkpt>
      <trkpt lat="49.17439" lon="6.83159">
        <ele>241.4</ele>
        <time>2014-04-02T06:32:29Z</time>
      </trkpt>
      <trkpt lat="49.17442" lon="6.83167">
        <ele>241.5</ele>
        <time>2014-04-02T06:32:34Z</time>
      </trkpt>
      <trkpt lat="49.17445" lon="6.83174">
        <ele>241</ele>
        <time>2014-04-02T06:32:39Z</time>
      </trkpt>
      <trkpt lat="49.17447" lon="6.83183">
        <ele>241.3</ele>
        <time>2014-04-02T06:32:44Z</time>
      </trkpt>
      <trkpt lat="49.17449" lon="6.83191">
        <ele>240.7</ele>
        <time>2014-04-02T06:32:49Z</time>
      </trkpt>
      <trkpt lat="49.17452" lon="6.832">
        <ele>239.7</ele>
        <time>2014-04-02T06:32:54Z</time>
      </trkpt>
      <trkpt lat="49.17455" lon="6.83208">
        <ele>239.8</ele>
        <time>2014-04-02T06:32:59Z</time>
      </trkpt>
      <trkpt lat="49.17458" lon="6.83217">
        <ele>239.5</ele>
        <time>2014-04-02T06:33:04Z</time>
      </trkpt>
      <trkpt lat="49.17461" lon="6.83225">
        <ele>239.4</ele>
        <time>2014-04-02T06:33:09Z</time>
      </trkpt>
      <trkpt lat="49.17464" lon="6.83236">
        <ele>239.8</ele>
        <time>2014-04-02T06:33:14Z</time>
      </trkpt>
      <trkpt lat="49.17467" lon="6.83245">
        <ele>239.6</ele>
        <time>2014-04-02T06:33:19Z</time>
      </trkpt>
      <trkpt lat="49.1747" lon="6.83254">
        <ele>239.7</ele>
        <time>2014-04-02T06:33:24Z</time>
      </trkpt>
      <trkpt lat="49.17473" lon="6.83262">
        <ele>239.7</ele>
        <time>2014-04-02T06:33:29Z</time>
      </trkpt>
      <trkpt lat="49.17475" lon="6.83271">
        <ele>240.4</ele>
        <time>2014-04-02T06:33:34Z</time>
      </trkpt>
      <trkpt lat="49.17478" lon="6.8328">
        <ele>239.7</ele>
        <time>2014-04-02T06:33:39Z</time>
      </trkpt>
      <trkpt lat="49.1748" lon="6.83288">
        <ele>240</ele>
        <time>2014-04-02T06:33:44Z</time>
      </trkpt>
      <trkpt lat="49.17482" lon="6.83296">
        <ele>240.5</ele>
        <time>2014-04-02T06:33:49Z</time>
      </trkpt>
      <trkpt lat="49.17483" lon="6.83305">
        <ele>240.1</ele>
        <time>2014-04-02T06:33:54Z</time>
      </trkpt>
      <trkpt lat="49.1748" lon="6.83315">
        <ele>240.7</ele>
        <time>2014-04-02T06:33:59Z</time>
      </trkpt>
      <trkpt lat="49.1748" lon="6.83323">
        <ele>238.9</ele>
        <time>2014-04-02T06:34:04Z</time>
      </trkpt>
      <trkpt lat="49.17477" lon="6.83333">
        <ele>237.8</ele>
        <time>2014-04-02T06:34:09Z</time>
      </trkpt>
      <trkpt lat="49.17473" lon="6.83341">
        <ele>236.5</ele>
        <time>2014-04-02T06:34:14Z</time>
      </trkpt>
      <trkpt lat="49.17468" lon="6.83348">
        <ele>236.7</ele>
        <time>2014-04-02T06:34:19Z</time>
      </trkpt>
      <trkpt lat="49.17463" lon="6.83356">
        <ele>237.1</ele>
        <time>2014-04-02T06:34:24Z</time>
      </trkpt>
      <trkpt lat="49.17461" lon="6.83367">
        <ele>236.7</ele>
        <time>2014-04-02T06:34:29Z</time>
      </trkpt>
      <trkpt lat="49.17458" lon="6.83386">
        <ele>237</ele>
        <time>2014-04-02T06:34:39Z</time>
      </trkpt>
      <trkpt lat="49.17457" lon="6.83394">
        <ele>236.2</ele>
        <time>2014-04-02T06:34:44Z</time>
      </trkpt>
      <trkpt lat="49.17456" lon="6.83403">
        <ele>235.7</ele>
        <time>2014-04-02T06:34:49Z</time>
      </trkpt>
      <trkpt lat="49.17454" lon="6.83413">
        <ele>236.1</ele>
        <time>2014-04-02T06:34:54Z</time>
      </trkpt>
      <trkpt lat="49.17453" lon="6.83422">
        <ele>236.4</ele>
        <time>2014-04-02T06:34:59Z</time>
      </trkpt>
      <trkpt lat="49.17451" lon="6.83433">
        <ele>236</ele>
        <time>2014-04-02T06:35:04Z</time>
      </trkpt>
      <trkpt lat="49.1745" lon="6.83443">
        <ele>235.3</ele>
        <time>2014-04-02T06:35:09Z</time>
      </trkpt>
      <trkpt lat="49.17449" lon="6.83452">
        <ele>236.5</ele>
        <time>2014-04-02T06:35:14Z</time>
      </trkpt>
      <trkpt lat="49.17447" lon="6.83462">
        <ele>236</ele>
        <time>2014-04-02T06:35:19Z</time>
      </trkpt>
      <trkpt lat="49.17447" lon="6.8347">
        <ele>236.8</ele>
        <time>2014-04-02T06:35:24Z</time>
      </trkpt>
      <trkpt lat="49.17446" lon="6.83478">
        <ele>236.5</ele>
        <time>2014-04-02T06:35:29Z</time>
      </trkpt>
      <trkpt lat="49.17447" lon="6.83487">
        <ele>237</ele>
        <time>2014-04-02T06:35:34Z</time>
      </trkpt>
      <trkpt lat="49.17454" lon="6.83497">
        <ele>238</ele>
        <time>2014-04-02T06:35:44Z</time>
      </trkpt>
      <trkpt lat="49.17459" lon="6.83501">
        <ele>238.2</ele>
        <time>2014-04-02T06:35:49Z</time>
      </trkpt>
      <trkpt lat="49.17463" lon="6.83506">
        <ele>238.4</ele>
        <time>2014-04-02T06:35:54Z</time>
      </trkpt>
      <trkpt lat="49.17467" lon="6.83511">
        <ele>239.6</ele>
        <time>2014-04-02T06:35:59Z</time>
      </trkpt>
      <trkpt lat="49.1747" lon="6.83517">
        <ele>239</ele>
        <time>2014-04-02T06:36:04Z</time>
      </trkpt>
      <trkpt lat="49.17474" lon="6.83524">
        <ele>238.6</ele>
        <time>2014-04-02T06:36:09Z</time>
      </trkpt>
      <trkpt lat="49.17478" lon="6.83532">
        <ele>239.3</ele>
        <time>2014-04-02T06:36:14Z</time>
      </trkpt>
      <trkpt lat="49.17482" lon="6.8354">
        <ele>238.9</ele>
        <time>2014-04-02T06:36:19Z</time>
      </trkpt>
      <trkpt lat="49.17485" lon="6.83547">
        <ele>239.2</ele>
        <time>2014-04-02T06:36:24Z</time>
      </trkpt>
      <trkpt lat="49.17489" lon="6.83555">
        <ele>239.4</ele>
        <time>2014-04-02T06:36:29Z</time>
      </trkpt>
      <trkpt lat="49.17492" lon="6.83564">
        <ele>238.8</ele>
        <time>2014-04-02T06:36:34Z</time>
      </trkpt>
      <trkpt lat="49.17495" lon="6.83572">
        <ele>239.2</ele>
        <time>2014-04-02T06:36:39Z</time>
      </trkpt>
      <trkpt lat="49.17502" lon="6.83588">
        <ele>238.7</ele>
        <time>2014-04-02T06:36:49Z</time>
      </trkpt>
      <trkpt lat="49.17505" lon="6.83597">
        <ele>238.7</ele>
        <time>2014-04-02T06:36:54Z</time>
      </trkpt>
      <trkpt lat="49.17509" lon="6.83606">
        <ele>238.1</ele>
        <time>2014-04-02T06:36:59Z</time>
      </trkpt>
      <trkpt lat="49.17513" lon="6.83615">
        <ele>237.5</ele>
        <time>2014-04-02T06:37:04Z</time>
      </trkpt>
      <trkpt lat="49.17517" lon="6.83623">
        <ele>237.6</ele>
        <time>2014-04-02T06:37:09Z</time>
      </trkpt>
      <trkpt lat="49.1752" lon="6.83631">
        <ele>237.3</ele>
        <time>2014-04-02T06:37:14Z</time>
      </trkpt>
      <trkpt lat="49.17524" lon="6.8364">
        <ele>237</ele>
        <time>2014-04-02T06:37:19Z</time>
      </trkpt>
      <trkpt lat="49.17527" lon="6.8365">
        <ele>236.7</ele>
        <time>2014-04-02T06:37:24Z</time>
      </trkpt>
      <trkpt lat="49.17531" lon="6.83661">
        <ele>236.1</ele>
        <time>2014-04-02T06:37:29Z</time>
      </trkpt>
      <trkpt lat="49.17534" lon="6.83672">
        <ele>237.5</ele>
        <time>2014-04-02T06:37:34Z</time>
      </trkpt>
      <trkpt lat="49.17537" lon="6.83682">
        <ele>237.4</ele>
        <time>2014-04-02T06:37:39Z</time>
      </trkpt>
      <trkpt lat="49.17539" lon="6.83691">
        <ele>237.9</ele>
        <time>2014-04-02T06:37:44Z</time>
      </trkpt>
      <trkpt lat="49.17544" lon="6.83712">
        <ele>237</ele>
        <time>2014-04-02T06:37:54Z</time>
      </trkpt>
      <trkpt lat="49.17547" lon="6.83723">
        <ele>237.1</ele>
        <time>2014-04-02T06:37:59Z</time>
      </trkpt>
      <trkpt lat="49.17548" lon="6.83733">
        <ele>236.1</ele>
        <time>2014-04-02T06:38:04Z</time>
      </trkpt>
      <trkpt lat="49.1755" lon="6.83744">
        <ele>236.7</ele>
        <time>2014-04-02T06:38:09Z</time>
      </trkpt>
      <trkpt lat="49.17552" lon="6.83753">
        <ele>236.7</ele>
        <time>2014-04-02T06:38:14Z</time>
      </trkpt>
      <trkpt lat="49.17553" lon="6.83763">
        <ele>236</ele>
        <time>2014-04-02T06:38:19Z</time>
      </trkpt>
      <trkpt lat="49.17555" lon="6.83771">
        <ele>235.6</ele>
        <time>2014-04-02T06:38:24Z</time>
      </trkpt>
      <trkpt lat="49.17558" lon="6.83776">
        <ele>236.2</ele>
        <time>2014-04-02T06:38:29Z</time>
      </trkpt>
      <trkpt lat="49.17563" lon="6.83779">
        <ele>236.4</ele>
        <time>2014-04-02T06:38:34Z</time>
      </trkpt>
      <trkpt lat="49.17568" lon="6.83781">
        <ele>236.5</ele>
        <time>2014-04-02T06:38:39Z</time>
      </trkpt>
      <trkpt lat="49.17573" lon="6.83783">
        <ele>236.4</ele>
        <time>2014-04-02T06:38:44Z</time>
      </trkpt>
      <trkpt lat="49.17579" lon="6.83785">
        <ele>236</ele>
        <time>2014-04-02T06:38:49Z</time>
      </trkpt>
      <trkpt lat="49.1759" lon="6.83788">
        <ele>235.3</ele>
        <time>2014-04-02T06:38:59Z</time>
      </trkpt>
      <trkpt lat="49.17595" lon="6.83792">
        <ele>234.8</ele>
        <time>2014-04-02T06:39:04Z</time>
      </trkpt>
      <trkpt lat="49.176" lon="6.83797">
        <ele>234.2</ele>
        <time>2014-04-02T06:39:09Z</time>
      </trkpt>
      <trkpt lat="49.17605" lon="6.83805">
        <ele>234.7</ele>
        <time>2014-04-02T06:39:14Z</time>
      </trkpt>
      <trkpt lat="49.17609" lon="6.83812">
        <ele>234.8</ele>
        <time>2014-04-02T06:39:19Z</time>
      </trkpt>
      <trkpt lat="49.17613" lon="6.8382">
        <ele>234.9</ele>
        <time>2014-04-02T06:39:24Z</time>
      </trkpt>
      <trkpt lat="49.17617" lon="6.83826">
        <ele>235.4</ele>
        <time>2014-04-02T06:39:29Z</time>
      </trkpt>
      <trkpt lat="49.17621" lon="6.83833">
        <ele>234.7</ele>
        <time>2014-04-02T06:39:34Z</time>
      </trkpt>
      <trkpt lat="49.17625" lon="6.83842">
        <ele>233.6</ele>
        <time>2014-04-02T06:39:39Z</time>
      </trkpt>
      <trkpt lat="49.17628" lon="6.83849">
        <ele>234.2</ele>
        <time>2014-04-02T06:39:44Z</time>
      </trkpt>
      <trkpt lat="49.17631" lon="6.83858">
        <ele>234.6</ele>
        <time>2014-04-02T06:39:49Z</time>
      </trkpt>
      <trkpt lat="49.17633" lon="6.83867">
        <ele>233.7</ele>
        <time>2014-04-02T06:39:54Z</time>
      </trkpt>
      <trkpt lat="49.17639" lon="6.83884">
        <ele>233.5</ele>
        <time>2014-04-02T06:40:04Z</time>
      </trkpt>
      <trkpt lat="49.17641" lon="6.83893">
        <ele>233.8</ele>
        <time>2014-04-02T06:40:09Z</time>
      </trkpt>
      <trkpt lat="49.17643" lon="6.83903">
        <ele>234.5</ele>
        <time>2014-04-02T06:40:14Z</time>
      </trkpt>
      <trkpt lat="49.17646" lon="6.83912">
        <ele>234.9</ele>
        <time>2014-04-02T06:40:19Z</time>
      </trkpt>
      <trkpt lat="49.17649" lon="6.8392">
        <ele>233.5</ele>
        <time>2014-04-02T06:40:24Z</time>
      </trkpt>
      <trkpt lat="49.17651" lon="6.8393">
        <ele>233.3</ele>
        <time>2014-04-02T06:40:29Z</time>
      </trkpt>
      <trkpt lat="49.17654" lon="6.83937">
        <ele>233.5</ele>
        <time>2014-04-02T06:40:34Z</time>
      </trkpt>
      <trkpt lat="49.17657" lon="6.83944">
        <ele>233.8</ele>
        <time>2014-04-02T06:40:39Z</time>
      </trkpt>
      <trkpt lat="49.17659" lon="6.83951">
        <ele>234.1</ele>
        <time>2014-04-02T06:40:44Z</time>
      </trkpt>
      <trkpt lat="49.17661" lon="6.83959">
        <ele>234</ele>
        <time>2014-04-02T06:40:49Z</time>
      </trkpt>
      <trkpt lat="49.17664" lon="6.83968">
        <ele>233.8</ele>
        <time>2014-04-02T06:40:54Z</time>
      </trkpt>
      <trkpt lat="49.17668" lon="6.83975">
        <ele>234</ele>
        <time>2014-04-02T06:40:59Z</time>
      </trkpt>
      <trkpt lat="49.17676" lon="6.8399">
        <ele>233.7</ele>
        <time>2014-04-02T06:41:09Z</time>
      </trkpt>
      <trkpt lat="49.17679" lon="6.83996">
        <ele>233.5</ele>
        <time>2014-04-02T06:41:14Z</time>
      </trkpt>
      <trkpt lat="49.17683" lon="6.84004">
        <ele>233.2</ele>
        <time>2014-04-02T06:41:19Z</time>
      </trkpt>
      <trkpt lat="49.17687" lon="6.84013">
        <ele>233.1</ele>
        <time>2014-04-02T06:41:24Z</time>
      </trkpt>
      <trkpt lat="49.17691" lon="6.84021">
        <ele>233.7</ele>
        <time>2014-04-02T06:41:29Z</time>
      </trkpt>
      <trkpt lat="49.17696" lon="6.84029">
        <ele>233.2</ele>
        <time>2014-04-02T06:41:34Z</time>
      </trkpt>
      <trkpt lat="49.17701" lon="6.84038">
        <ele>232.3</ele>
        <time>2014-04-02T06:41:39Z</time>
      </trkpt>
      <trkpt lat="49.17705" lon="6.84047">
        <ele>233.2</ele>
        <time>2014-04-02T06:41:44Z</time>
      </trkpt>
      <trkpt lat="49.17708" lon="6.84055">
        <ele>232.4</ele>
        <time>2014-04-02T06:41:49Z</time>
      </trkpt>
      <trkpt lat="49.17712" lon="6.84062">
        <ele>232.3</ele>
        <time>2014-04-02T06:41:54Z</time>
      </trkpt>
      <trkpt lat="49.17716" lon="6.84069">
        <ele>233</ele>
        <time>2014-04-02T06:41:59Z</time>
      </trkpt>
      <trkpt lat="49.1772" lon="6.84074">
        <ele>232.6</ele>
        <time>2014-04-02T06:42:04Z</time>
      </trkpt>
      <trkpt lat="49.17725" lon="6.84083">
        <ele>232.6</ele>
        <time>2014-04-02T06:42:14Z</time>
      </trkpt>
      <trkpt lat="49.17728" lon="6.8409">
        <ele>232.5</ele>
        <time>2014-04-02T06:42:19Z</time>
      </trkpt>
      <trkpt lat="49.17732" lon="6.84097">
        <ele>232.2</ele>
        <time>2014-04-02T06:42:24Z</time>
      </trkpt>
      <trkpt lat="49.17736" lon="6.84105">
        <ele>232.5</ele>
        <time>2014-04-02T06:42:29Z</time>
      </trkpt>
      <trkpt lat="49.17738" lon="6.84114">
        <ele>232.2</ele>
        <time>2014-04-02T06:42:34Z</time>
      </trkpt>
      <trkpt lat="49.17741" lon="6.84123">
        <ele>233</ele>
        <time>2014-04-02T06:42:39Z</time>
      </trkpt>
      <trkpt lat="49.17744" lon="6.84133">
        <ele>232.4</ele>
        <time>2014-04-02T06:42:44Z</time>
      </trkpt>
      <trkpt lat="49.17749" lon="6.84141">
        <ele>231.8</ele>
        <time>2014-04-02T06:42:49Z</time>
      </trkpt>
      <trkpt lat="49.17754" lon="6.84148">
        <ele>232.1</ele>
        <time>2014-04-02T06:42:54Z</time>
      </trkpt>
      <trkpt lat="49.1776" lon="6.84155">
        <ele>231.9</ele>
        <time>2014-04-02T06:42:59Z</time>
      </trkpt>
      <trkpt lat="49.17767" lon="6.84163">
        <ele>232.6</ele>
        <time>2014-04-02T06:43:04Z</time>
      </trkpt>
      <trkpt lat="49.17773" lon="6.84169">
        <ele>232.3</ele>
        <time>2014-04-02T06:43:09Z</time>
      </trkpt>
      <trkpt lat="49.17784" lon="6.84182">
        <ele>231.9</ele>
        <time>2014-04-02T06:43:19Z</time>
      </trkpt>
      <trkpt lat="49.1779" lon="6.84186">
        <ele>231.7</ele>
        <time>2014-04-02T06:43:24Z</time>
      </trkpt>
      <trkpt lat="49.17794" lon="6.84192">
        <ele>232.6</ele>
        <time>2014-04-02T06:43:29Z</time>
      </trkpt>
      <trkpt lat="49.17801" lon="6.84197">
        <ele>232.1</ele>
        <time>2014-04-02T06:43:34Z</time>
      </trkpt>
      <trkpt lat="49.17806" lon="6.84204">
        <ele>231.9</ele>
        <time>2014-04-02T06:43:39Z</time>
      </trkpt>
      <trkpt lat="49.1781" lon="6.84209">
        <ele>231.1</ele>
        <time>2014-04-02T06:43:44Z</time>
      </trkpt>
      <trkpt lat="49.17814" lon="6.84214">
        <ele>231.5</ele>
        <time>2014-04-02T06:43:49Z</time>
      </trkpt>
      <trkpt lat="49.17819" lon="6.8422">
        <ele>231.3</ele>
        <time>2014-04-02T06:43:54Z</time>
      </trkpt>
      <trkpt lat="49.17825" lon="6.84226">
        <ele>230.8</ele>
        <time>2014-04-02T06:43:59Z</time>
      </trkpt>
      <trkpt lat="49.1783" lon="6.84231">
        <ele>231.4</ele>
        <time>2014-04-02T06:44:04Z</time>
      </trkpt>
      <trkpt lat="49.17837" lon="6.84236">
        <ele>231.4</ele>
        <time>2014-04-02T06:44:09Z</time>
      </trkpt>
      <trkpt lat="49.17844" lon="6.8424">
        <ele>231.5</ele>
        <time>2014-04-02T06:44:14Z</time>
      </trkpt>
      <trkpt lat="49.17858" lon="6.84249">
        <ele>230.4</ele>
        <time>2014-04-02T06:44:24Z</time>
      </trkpt>
      <trkpt lat="49.17864" lon="6.84253">
        <ele>231</ele>
        <time>2014-04-02T06:44:29Z</time>
      </trkpt>
      <trkpt lat="49.1787" lon="6.84255">
        <ele>231.1</ele>
        <time>2014-04-02T06:44:34Z</time>
      </trkpt>
      <trkpt lat="49.17875" lon="6.84256">
        <ele>230.8</ele>
        <time>2014-04-02T06:44:39Z</time>
      </trkpt>
      <trkpt lat="49.17882" lon="6.84259">
        <ele>231.3</ele>
        <time>2014-04-02T06:44:44Z</time>
      </trkpt>
      <trkpt lat="49.17889" lon="6.84263">
        <ele>230.8</ele>
        <time>2014-04-02T06:44:49Z</time>
      </trkpt>
      <trkpt lat="49.17896" lon="6.84268">
        <ele>231.6</ele>
        <time>2014-04-02T06:44:54Z</time>
      </trkpt>
      <trkpt lat="49.17901" lon="6.84272">
        <ele>231</ele>
        <time>2014-04-02T06:44:59Z</time>
      </trkpt>
      <trkpt lat="49.17908" lon="6.84276">
        <ele>230.9</ele>
        <time>2014-04-02T06:45:04Z</time>
      </trkpt>
      <trkpt lat="49.17915" lon="6.84281">
        <ele>231.4</ele>
        <time>2014-04-02T06:45:09Z</time>
      </trkpt>
      <trkpt lat="49.17922" lon="6.84285">
        <ele>231.4</ele>
        <time>2014-04-02T06:45:14Z</time>
      </trkpt>
      <trkpt lat="49.17928" lon="6.84289">
        <ele>230.5</ele>
        <time>2014-04-02T06:45:19Z</time>
      </trkpt>
      <trkpt lat="49.17941" lon="6.84294">
        <ele>230</ele>
        <time>2014-04-02T06:45:29Z</time>
      </trkpt>
      <trkpt lat="49.17947" lon="6.84297">
        <ele>229.7</ele>
        <time>2014-04-02T06:45:34Z</time>
      </trkpt>
      <trkpt lat="49.17954" lon="6.843">
        <ele>230.5</ele>
        <time>2014-04-02T06:45:39Z</time>
      </trkpt>
      <trkpt lat="49.17961" lon="6.84305">
        <ele>230.6</ele>
        <time>2014-04-02T06:45:44Z</time>
      </trkpt>
      <trkpt lat="49.17969" lon="6.84307">
        <ele>230.6</ele>
        <time>2014-04-02T06:45:49Z</time>
      </trkpt>
      <trkpt lat="49.17976" lon="6.84311">
        <ele>230.4</ele>
        <time>2014-04-02T06:45:54Z</time>
      </trkpt>
      <trkpt lat="49.17983" lon="6.84314">
        <ele>229.9</ele>
        <time>2014-04-02T06:45:59Z</time>
      </trkpt>
      <trkpt lat="49.17988" lon="6.84319">
        <ele>229.8</ele>
        <time>2014-04-02T06:46:04Z</time>
      </trkpt>
      <trkpt lat="49.17993" lon="6.84323">
        <ele>230.6</ele>
        <time>2014-04-02T06:46:09Z</time>
      </trkpt>
      <trkpt lat="49.17999" lon="6.84328">
        <ele>230</ele>
        <time>2014-04-02T06:46:14Z</time>
      </trkpt>
      <trkpt lat="49.18004" lon="6.84334">
        <ele>229.8</ele>
        <time>2014-04-02T06:46:19Z</time>
      </trkpt>
      <trkpt lat="49.1801" lon="6.8434">
        <ele>229.7</ele>
        <time>2014-04-02T06:46:24Z</time>
      </trkpt>
      <trkpt lat="49.18021" lon="6.84355">
        <ele>230</ele>
        <time>2014-04-02T06:46:34Z</time>
      </trkpt>
      <trkpt lat="49.18027" lon="6.84363">
        <ele>230</ele>
        <time>2014-04-02T06:46:39Z</time>
      </trkpt>
      <trkpt lat="49.18031" lon="6.84371">
        <ele>229.5</ele>
        <time>2014-04-02T06:46:44Z</time>
      </trkpt>
      <trkpt lat="49.18036" lon="6.84378">
        <ele>229.7</ele>
        <time>2014-04-02T06:46:49Z</time>
      </trkpt>
      <trkpt lat="49.18041" lon="6.84386">
        <ele>230.2</ele>
        <time>2014-04-02T06:46:54Z</time>
      </trkpt>
      <trkpt lat="49.18047" lon="6.84393">
        <ele>230</ele>
        <time>2014-04-02T06:46:59Z</time>
      </trkpt>
      <trkpt lat="49.18052" lon="6.844">
        <ele>230.1</ele>
        <time>2014-04-02T06:47:04Z</time>
      </trkpt>
      <trkpt lat="49.18056" lon="6.84406">
        <ele>230.9</ele>
        <time>2014-04-02T06:47:09Z</time>
      </trkpt>
      <trkpt lat="49.18061" lon="6.84413">
        <ele>230.4</ele>
        <time>2014-04-02T06:47:14Z</time>
      </trkpt>
      <trkpt lat="49.18066" lon="6.8442">
        <ele>230.2</ele>
        <time>2014-04-02T06:47:19Z</time>
      </trkpt>
      <trkpt lat="49.1807" lon="6.84429">
        <ele>229.9</ele>
        <time>2014-04-02T06:47:24Z</time>
      </trkpt>
      <trkpt lat="49.18073" lon="6.84437">
        <ele>230</ele>
        <time>2014-04-02T06:47:29Z</time>
      </trkpt>
      <trkpt lat="49.1808" lon="6.84456">
        <ele>229.8</ele>
        <time>2014-04-02T06:47:39Z</time>
      </trkpt>
      <trkpt lat="49.18083" lon="6.84465">
        <ele>230.4</ele>
        <time>2014-04-02T06:47:44Z</time>
      </trkpt>
      <trkpt lat="49.18085" lon="6.84474">
        <ele>230.2</ele>
        <time>2014-04-02T06:47:49Z</time>
      </trkpt>
      <trkpt lat="49.18088" lon="6.84483">
        <ele>230.2</ele>
        <time>2014-04-02T06:47:54Z</time>
      </trkpt>
      <trkpt lat="49.18093" lon="6.84492">
        <ele>229.9</ele>
        <time>2014-04-02T06:47:59Z</time>
      </trkpt>
      <trkpt lat="49.18097" lon="6.845">
        <ele>229.6</ele>
        <time>2014-04-02T06:48:04Z</time>
      </trkpt>
      <trkpt lat="49.181" lon="6.84509">
        <ele>229.8</ele>
        <time>2014-04-02T06:48:09Z</time>
      </trkpt>
      <trkpt lat="49.18104" lon="6.84517">
        <ele>229.3</ele>
        <time>2014-04-02T06:48:14Z</time>
      </trkpt>
      <trkpt lat="49.18108" lon="6.84525">
        <ele>229.5</ele>
        <time>2014-04-02T06:48:19Z</time>
      </trkpt>
      <trkpt lat="49.18112" lon="6.84534">
        <ele>229.7</ele>
        <time>2014-04-02T06:48:24Z</time>
      </trkpt>
      <trkpt lat="49.18115" lon="6.84544">
        <ele>229.5</ele>
        <time>2014-04-02T06:48:29Z</time>
      </trkpt>
      <trkpt lat="49.18119" lon="6.84553">
        <ele>230.4</ele>
        <time>2014-04-02T06:48:34Z</time>
      </trkpt>
      <trkpt lat="49.18126" lon="6.84571">
        <ele>229.1</ele>
        <time>2014-04-02T06:48:44Z</time>
      </trkpt>
      <trkpt lat="49.18128" lon="6.84581">
        <ele>229.6</ele>
        <time>2014-04-02T06:48:49Z</time>
      </trkpt>
      <trkpt lat="49.18131" lon="6.8459">
        <ele>229.9</ele>
        <time>2014-04-02T06:48:54Z</time>
      </trkpt>
      <trkpt lat="49.18135" lon="6.846">
        <ele>229.2</ele>
        <time>2014-04-02T06:48:59Z</time>
      </trkpt>
      <trkpt lat="49.18141" lon="6.84607">
        <ele>229.1</ele>
        <time>2014-04-02T06:49:04Z</time>
      </trkpt>
      <trkpt lat="49.18145" lon="6.84608">
        <ele>229.1</ele>
        <time>2014-04-02T06:49:09Z</time>
      </trkpt>
      <trkpt lat="49.18147" lon="6.84609">
        <ele>229.1</ele>
        <time>2014-04-02T06:49:14Z</time>
      </trkpt>
      <trkpt lat="49.18149" lon="6.8461">
        <ele>229.3</ele>
        <time>2014-04-02T06:49:19Z</time>
      </trkpt>
      <trkpt lat="49.18153" lon="6.8461">
        <ele>228.2</ele>
        <time>2014-04-02T06:49:24Z</time>
      </trkpt>
      <trkpt lat="49.18158" lon="6.84605">
        <ele>229.1</ele>
        <time>2014-04-02T06:49:29Z</time>
      </trkpt>
      <trkpt lat="49.18162" lon="6.84601">
        <ele>228.9</ele>
        <time>2014-04-02T06:49:34Z</time>
      </trkpt>
      <trkpt lat="49.18166" lon="6.84596">
        <ele>228.2</ele>
        <time>2014-04-02T06:49:39Z</time>
      </trkpt>
      <trkpt lat="49.18174" lon="6.84583">
        <ele>228.9</ele>
        <time>2014-04-02T06:49:49Z</time>
      </trkpt>
      <trkpt lat="49.18177" lon="6.84576">
        <ele>229</ele>
        <time>2014-04-02T06:49:54Z</time>
      </trkpt>
      <trkpt lat="49.18181" lon="6.84569">
        <ele>229.1</ele>
        <time>2014-04-02T06:49:59Z</time>
      </trkpt>
      <trkpt lat="49.18184" lon="6.84561">
        <ele>229</ele>
        <time>2014-04-02T06:50:04Z</time>
      </trkpt>
      <trkpt lat="49.18186" lon="6.84553">
        <ele>228.7</ele>
        <time>2014-04-02T06:50:09Z</time>
      </trkpt>
      <trkpt lat="49.18187" lon="6.84544">
        <ele>229.5</ele>
        <time>2014-04-02T06:50:14Z</time>
      </trkpt>
      <trkpt lat="49.18187" lon="6.84535">
        <ele>230.6</ele>
        <time>2014-04-02T06:50:19Z</time>
      </trkpt>
      <trkpt lat="49.18185" lon="6.84525">
        <ele>230.8</ele>
        <time>2014-04-02T06:50:24Z</time>
      </trkpt>
      <trkpt lat="49.18183" lon="6.84517">
        <ele>230.4</ele>
        <time>2014-04-02T06:50:29Z</time>
      </trkpt>
      <trkpt lat="49.18182" lon="6.84508">
        <ele>230</ele>
        <time>2014-04-02T06:50:34Z</time>
      </trkpt>
      <trkpt lat="49.18179" lon="6.845">
        <ele>231.2</ele>
        <time>2014-04-02T06:50:39Z</time>
      </trkpt>
      <trkpt lat="49.18178" lon="6.8449">
        <ele>231.5</ele>
        <time>2014-04-02T06:50:44Z</time>
      </trkpt>
      <trkpt lat="49.18174" lon="6.84472">
        <ele>232.9</ele>
        <time>2014-04-02T06:50:54Z</time>
      </trkpt>
      <trkpt lat="49.18173" lon="6.84463">
        <ele>233</ele>
        <time>2014-04-02T06:50:59Z</time>
      </trkpt>
      <trkpt lat="49.18171" lon="6.84454">
        <ele>233.9</ele>
        <time>2014-04-02T06:51:04Z</time>
      </trkpt>
      <trkpt lat="49.18169" lon="6.84446">
        <ele>234.4</ele>
        <time>2014-04-02T06:51:09Z</time>
      </trkpt>
      <trkpt lat="49.18167" lon="6.84438">
        <ele>235.5</ele>
        <time>2014-04-02T06:51:14Z</time>
      </trkpt>
      <trkpt lat="49.18165" lon="6.8443">
        <ele>235.6</ele>
        <time>2014-04-02T06:51:19Z</time>
      </trkpt>
      <trkpt lat="49.18163" lon="6.84422">
        <ele>236.1</ele>
        <time>2014-04-02T06:51:24Z</time>
      </trkpt>
      <trkpt lat="49.18161" lon="6.84414">
        <ele>237</ele>
        <time>2014-04-02T06:51:29Z</time>
      </trkpt>
      <trkpt lat="49.18158" lon="6.84406">
        <ele>237.2</ele>
        <time>2014-04-02T06:51:34Z</time>
      </trkpt>
      <trkpt lat="49.18156" lon="6.84399">
        <ele>237.8</ele>
        <time>2014-04-02T06:51:39Z</time>
      </trkpt>
      <trkpt lat="49.18153" lon="6.84392">
        <ele>238.6</ele>
        <time>2014-04-02T06:51:44Z</time>
      </trkpt>
      <trkpt lat="49.18151" lon="6.84382">
        <ele>239.1</ele>
        <time>2014-04-02T06:51:49Z</time>
      </trkpt>
      <trkpt lat="49.18147" lon="6.84366">
        <ele>239.6</ele>
        <time>2014-04-02T06:51:59Z</time>
      </trkpt>
      <trkpt lat="49.18144" lon="6.84357">
        <ele>241.3</ele>
        <time>2014-04-02T06:52:04Z</time>
      </trkpt>
      <trkpt lat="49.18141" lon="6.84349">
        <ele>241.7</ele>
        <time>2014-04-02T06:52:09Z</time>
      </trkpt>
      <trkpt lat="49.18139" lon="6.84342">
        <ele>242</ele>
        <time>2014-04-02T06:52:14Z</time>
      </trkpt>
      <trkpt lat="49.18136" lon="6.84334">
        <ele>242.3</ele>
        <time>2014-04-02T06:52:19Z</time>
      </trkpt>
      <trkpt lat="49.18132" lon="6.84325">
        <ele>242.7</ele>
        <time>2014-04-02T06:52:24Z</time>
      </trkpt>
      <trkpt lat="49.18131" lon="6.84317">
        <ele>243</ele>
        <time>2014-04-02T06:52:29Z</time>
      </trkpt>
      <trkpt lat="49.18128" lon="6.84308">
        <ele>243.6</ele>
        <time>2014-04-02T06:52:34Z</time>
      </trkpt>
      <trkpt lat="49.18126" lon="6.84299">
        <ele>243.5</ele>
        <time>2014-04-02T06:52:39Z</time>
      </trkpt>
      <trkpt lat="49.18124" lon="6.84291">
        <ele>244.5</ele>
        <time>2014-04-02T06:52:44Z</time>
      </trkpt>
      <trkpt lat="49.18122" lon="6.84282">
        <ele>244.7</ele>
        <time>2014-04-02T06:52:49Z</time>
      </trkpt>
      <trkpt lat="49.18121" lon="6.84274">
        <ele>245.5</ele>
        <time>2014-04-02T06:52:54Z</time>
      </trkpt>
      <trkpt lat="49.18118" lon="6.8426">
        <ele>247</ele>
        <time>2014-04-02T06:53:04Z</time>
      </trkpt>
      <trkpt lat="49.18117" lon="6.84251">
        <ele>246.4</ele>
        <time>2014-04-02T06:53:09Z</time>
      </trkpt>
      <trkpt lat="49.18115" lon="6.84241">
        <ele>247.5</ele>
        <time>2014-04-02T06:53:14Z</time>
      </trkpt>
      <trkpt lat="49.18112" lon="6.84232">
        <ele>248</ele>
        <time>2014-04-02T06:53:19Z</time>
      </trkpt>
      <trkpt lat="49.18109" lon="6.84223">
        <ele>248.5</ele>
        <time>2014-04-02T06:53:24Z</time>
      </trkpt>
      <trkpt lat="49.18106" lon="6.84215">
        <ele>248.3</ele>
        <time>2014-04-02T06:53:29Z</time>
      </trkpt>
      <trkpt lat="49.18104" lon="6.84206">
        <ele>248.9</ele>
        <time>2014-04-02T06:53:34Z</time>
      </trkpt>
      <trkpt lat="49.18101" lon="6.84198">
        <ele>248.9</ele>
        <time>2014-04-02T06:53:39Z</time>
      </trkpt>
      <trkpt lat="49.18098" lon="6.8419">
        <ele>248.6</ele>
        <time>2014-04-02T06:53:44Z</time>
      </trkpt>
      <trkpt lat="49.18094" lon="6.84181">
        <ele>250.6</ele>
        <time>2014-04-02T06:53:49Z</time>
      </trkpt>
      <trkpt lat="49.1809" lon="6.84173">
        <ele>251</ele>
        <time>2014-04-02T06:53:54Z</time>
      </trkpt>
      <trkpt lat="49.18087" lon="6.84167">
        <ele>251.1</ele>
        <time>2014-04-02T06:53:59Z</time>
      </trkpt>
      <trkpt lat="49.18082" lon="6.84157">
        <ele>251.4</ele>
        <time>2014-04-02T06:54:09Z</time>
      </trkpt>
      <trkpt lat="49.18079" lon="6.84151">
        <ele>250.9</ele>
        <time>2014-04-02T06:54:14Z</time>
      </trkpt>
      <trkpt lat="49.18077" lon="6.84144">
        <ele>252.7</ele>
        <time>2014-04-02T06:54:19Z</time>
      </trkpt>
      <trkpt lat="49.18073" lon="6.84137">
        <ele>252.2</ele>
        <time>2014-04-02T06:54:24Z</time>
      </trkpt>
      <trkpt lat="49.18069" lon="6.84129">
        <ele>252.3</ele>
        <time>2014-04-02T06:54:29Z</time>
      </trkpt>
      <trkpt lat="49.18066" lon="6.84121">
        <ele>252.3</ele>
        <time>2014-04-02T06:54:34Z</time>
      </trkpt>
      <trkpt lat="49.18062" lon="6.84114">
        <ele>252.6</ele>
        <time>2014-04-02T06:54:39Z</time>
      </trkpt>
      <trkpt lat="49.18058" lon="6.84105">
        <ele>253.1</ele>
        <time>2014-04-02T06:54:44Z</time>
      </trkpt>
      <trkpt lat="49.18054" lon="6.84097">
        <ele>253.1</ele>
        <time>2014-04-02T06:54:49Z</time>
      </trkpt>
      <trkpt lat="49.1805" lon="6.84088">
        <ele>253</ele>
        <time>2014-04-02T06:54:54Z</time>
      </trkpt>
      <trkpt lat="49.18046" lon="6.84081">
        <ele>253.3</ele>
        <time>2014-04-02T06:54:59Z</time>
      </trkpt>
      <trkpt lat="49.18043" lon="6.84075">
        <ele>254.2</ele>
        <time>2014-04-02T06:55:04Z</time>
      </trkpt>
      <trkpt lat="49.18037" lon="6.84061">
        <ele>254.7</ele>
        <time>2014-04-02T06:55:14Z</time>
      </trkpt>
      <trkpt lat="49.18035" lon="6.84054">
        <ele>255.8</ele>
        <time>2014-04-02T06:55:19Z</time>
      </trkpt>
      <trkpt lat="49.18033" lon="6.84046">
        <ele>256.4</ele>
        <time>2014-04-02T06:55:24Z</time>
      </trkpt>
      <trkpt lat="49.1803" lon="6.84038">
        <ele>257</ele>
        <time>2014-04-02T06:55:29Z</time>
      </trkpt>
      <trkpt lat="49.18028" lon="6.84029">
        <ele>256.8</ele>
        <time>2014-04-02T06:55:34Z</time>
      </trkpt>
      <trkpt lat="49.18024" lon="6.84019">
        <ele>257.4</ele>
        <time>2014-04-02T06:55:39Z</time>
      </trkpt>
      <trkpt lat="49.18021" lon="6.8401">
        <ele>257.9</ele>
        <time>2014-04-02T06:55:44Z</time>
      </trkpt>
      <trkpt lat="49.18017" lon="6.84">
        <ele>258.4</ele>
        <time>2014-04-02T06:55:49Z</time>
      </trkpt>
      <trkpt lat="49.18014" lon="6.83992">
        <ele>258.9</ele>
        <time>2014-04-02T06:55:54Z</time>
      </trkpt>
      <trkpt lat="49.1801" lon="6.83985">
        <ele>259.1</ele>
        <time>2014-04-02T06:55:59Z</time>
      </trkpt>
      <trkpt lat="49.18007" lon="6.83978">
        <ele>259.6</ele>
        <time>2014-04-02T06:56:04Z</time>
      </trkpt>
      <trkpt lat="49.18004" lon="6.83971">
        <ele>260</ele>
        <time>2014-04-02T06:56:09Z</time>
      </trkpt>
      <trkpt lat="49.17997" lon="6.83958">
        <ele>260.9</ele>
        <time>2014-04-02T06:56:19Z</time>
      </trkpt>
      <trkpt lat="49.17994" lon="6.83952">
        <ele>261.3</ele>
        <time>2014-04-02T06:56:24Z</time>
      </trkpt>
      <trkpt lat="49.1799" lon="6.83944">
        <ele>261</ele>
        <time>2014-04-02T06:56:29Z</time>
      </trkpt>
      <trkpt lat="49.17986" lon="6.83938">
        <ele>261.9</ele>
        <time>2014-04-02T06:56:34Z</time>
      </trkpt>
      <trkpt lat="49.17983" lon="6.83932">
        <ele>262.6</ele>
        <time>2014-04-02T06:56:39Z</time>
      </trkpt>
      <trkpt lat="49.1798" lon="6.83926">
        <ele>263</ele>
        <time>2014-04-02T06:56:44Z</time>
      </trkpt>
      <trkpt lat="49.17976" lon="6.83919">
        <ele>263</ele>
        <time>2014-04-02T06:56:49Z</time>
      </trkpt>
      <trkpt lat="49.17972" lon="6.83913">
        <ele>263.2</ele>
        <time>2014-04-02T06:56:54Z</time>
      </trkpt>
      <trkpt lat="49.17968" lon="6.83905">
        <ele>263.3</ele>
        <time>2014-04-02T06:56:59Z</time>
      </trkpt>
      <trkpt lat="49.17963" lon="6.83898">
        <ele>264.3</ele>
        <time>2014-04-02T06:57:04Z</time>
      </trkpt>
      <trkpt lat="49.17959" lon="6.83889">
        <ele>265.2</ele>
        <time>2014-04-02T06:57:09Z</time>
      </trkpt>
      <trkpt lat="49.17956" lon="6.8388">
        <ele>263.8</ele>
        <time>2014-04-02T06:57:14Z</time>
      </trkpt>
      <trkpt lat="49.17949" lon="6.83862">
        <ele>265.1</ele>
        <time>2014-04-02T06:57:24Z</time>
      </trkpt>
      <trkpt lat="49.17946" lon="6.83853">
        <ele>265.5</ele>
        <time>2014-04-02T06:57:29Z</time>
      </trkpt>
      <trkpt lat="49.17944" lon="6.83845">
        <ele>266.1</ele>
        <time>2014-04-02T06:57:34Z</time>
      </trkpt>
      <trkpt lat="49.17942" lon="6.83836">
        <ele>265.6</ele>
        <time>2014-04-02T06:57:39Z</time>
      </trkpt>
      <trkpt lat="49.17941" lon="6.83828">
        <ele>266</ele>
        <time>2014-04-02T06:57:44Z</time>
      </trkpt>
      <trkpt lat="49.1794" lon="6.83823">
        <ele>266.4</ele>
        <time>2014-04-02T06:57:49Z</time>
      </trkpt>
      <trkpt lat="49.17939" lon="6.8382">
        <ele>266.7</ele>
        <time>2014-04-02T06:57:54Z</time>
      </trkpt>
      <trkpt lat="49.17938" lon="6.83816">
        <ele>266.2</ele>
        <time>2014-04-02T06:57:59Z</time>
      </trkpt>
      <trkpt lat="49.17938" lon="6.83813">
        <ele>267.8</ele>
        <time>2014-04-02T06:58:04Z</time>
      </trkpt>
      <trkpt lat="49.17937" lon="6.8381">
        <ele>267</ele>
        <time>2014-04-02T06:58:09Z</time>
      </trkpt>
      <trkpt lat="49.17936" lon="6.83807">
        <ele>267.2</ele>
        <time>2014-04-02T06:58:14Z</time>
      </trkpt>
      <trkpt lat="49.17935" lon="6.83804">
        <ele>267.2</ele>
        <time>2014-04-02T06:58:19Z</time>
      </trkpt>
      <trkpt lat="49.17932" lon="6.83798">
        <ele>267.2</ele>
        <time>2014-04-02T06:58:29Z</time>
      </trkpt>
      <trkpt lat="49.17932" lon="6.83796">
        <ele>266.8</ele>
        <time>2014-04-02T06:58:34Z</time>
      </trkpt>
      <trkpt lat="49.17932" lon="6.83796">
        <ele>267.4</ele>
        <time>2014-04-02T06:58:39Z</time>
      </trkpt>
      <trkpt lat="49.17933" lon="6.83795">
        <ele>267</ele>
        <time>2014-04-02T06:58:44Z</time>
      </trkpt>
      <trkpt lat="49.17936" lon="6.83791">
        <ele>268.2</ele>
        <time>2014-04-02T06:58:49Z</time>
      </trkpt>
      <trkpt lat="49.17938" lon="6.83786">
        <ele>268.5</ele>
        <time>2014-04-02T06:58:54Z</time>
      </trkpt>
      <trkpt lat="49.1794" lon="6.83781">
        <ele>268.6</ele>
        <time>2014-04-02T06:58:59Z</time>
      </trkpt>
      <trkpt lat="49.17942" lon="6.83774">
        <ele>268.5</ele>
        <time>2014-04-02T06:59:04Z</time>
      </trkpt>
      <trkpt lat="49.17945" lon="6.83769">
        <ele>269</ele>
        <time>2014-04-02T06:59:09Z</time>
      </trkpt>
      <trkpt lat="49.17948" lon="6.83764">
        <ele>269.4</ele>
        <time>2014-04-02T06:59:14Z</time>
      </trkpt>
      <trkpt lat="49.17951" lon="6.83757">
        <ele>269.5</ele>
        <time>2014-04-02T06:59:19Z</time>
      </trkpt>
      <trkpt lat="49.17954" lon="6.83749">
        <ele>270.3</ele>
        <time>2014-04-02T06:59:24Z</time>
      </trkpt>
      <trkpt lat="49.1796" lon="6.83734">
        <ele>270.5</ele>
        <time>2014-04-02T06:59:34Z</time>
      </trkpt>
      <trkpt lat="49.17962" lon="6.83728">
        <ele>270.3</ele>
        <time>2014-04-02T06:59:39Z</time>
      </trkpt>
      <trkpt lat="49.17965" lon="6.83721">
        <ele>270.6</ele>
        <time>2014-04-02T06:59:44Z</time>
      </trkpt>
      <trkpt lat="49.17967" lon="6.83713">
        <ele>269.9</ele>
        <time>2014-04-02T06:59:49Z</time>
      </trkpt>
      <trkpt lat="49.17969" lon="6.83705">
        <ele>270.2</ele>
        <time>2014-04-02T06:59:54Z</time>
      </trkpt>
      <trkpt lat="49.17972" lon="6.83696">
        <ele>269.7</ele>
        <time>2014-04-02T06:59:59Z</time>
      </trkpt>
      <trkpt lat="49.17974" lon="6.83687">
        <ele>270.3</ele>
        <time>2014-04-02T07:00:04Z</time>
      </trkpt>
      <trkpt lat="49.17975" lon="6.83678">
        <ele>269.8</ele>
        <time>2014-04-02T07:00:09Z</time>
      </trkpt>
      <trkpt lat="49.17977" lon="6.8367">
        <ele>269.9</ele>
        <time>2014-04-02T07:00:14Z</time>
      </trkpt>
      <trkpt lat="49.17978" lon="6.83661">
        <ele>270</ele>
        <time>2014-04-02T07:00:19Z</time>
      </trkpt>
      <trkpt lat="49.1798" lon="6.83653">
        <ele>270.5</ele>
        <time>2014-04-02T07:00:24Z</time>
      </trkpt>
      <trkpt lat="49.17982" lon="6.83645">
        <ele>270.5</ele>
        <time>2014-04-02T07:00:29Z</time>
      </trkpt>
      <trkpt lat="49.17986" lon="6.83628">
        <ele>269.6</ele>
        <time>2014-04-02T07:00:39Z</time>
      </trkpt>
      <trkpt lat="49.17989" lon="6.8362">
        <ele>269.2</ele>
        <time>2014-04-02T07:00:44Z</time>
      </trkpt>
      <trkpt lat="49.17992" lon="6.83615">
        <ele>268.7</ele>
        <time>2014-04-02T07:00:49Z</time>
      </trkpt>
      <trkpt lat="49.17997" lon="6.8361">
        <ele>268.5</ele>
        <time>2014-04-02T07:00:54Z</time>
      </trkpt>
      <trkpt lat="49.18002" lon="6.83603">
        <ele>268.4</ele>
        <time>2014-04-02T07:00:59Z</time>
      </trkpt>
      <trkpt lat="49.18007" lon="6.83597">
        <ele>267.6</ele>
        <time>2014-04-02T07:01:04Z</time>
      </trkpt>
      <trkpt lat="49.18011" lon="6.83592">
        <ele>267.8</ele>
        <time>2014-04-02T07:01:09Z</time>
      </trkpt>
      <trkpt lat="49.18017" lon="6.83587">
        <ele>266.9</ele>
        <time>2014-04-02T07:01:14Z</time>
      </trkpt>
      <trkpt lat="49.18022" lon="6.83582">
        <ele>267.6</ele>
        <time>2014-04-02T07:01:19Z</time>
      </trkpt>
      <trkpt lat="49.18027" lon="6.83576">
        <ele>267.1</ele>
        <time>2014-04-02T07:01:24Z</time>
      </trkpt>
      <trkpt lat="49.18033" lon="6.83571">
        <ele>266.2</ele>
        <time>2014-04-02T07:01:29Z</time>
      </trkpt>
      <trkpt lat="49.18038" lon="6.83565">
        <ele>265.4</ele>
        <time>2014-04-02T07:01:34Z</time>
      </trkpt>
      <trkpt lat="49.18047" lon="6.83553">
        <ele>265.3</ele>
        <time>2014-04-02T07:01:44Z</time>
      </trkpt>
      <trkpt lat="49.18052" lon="6.83547">
        <ele>264.8</ele>
        <time>2014-04-02T07:01:49Z</time>
      </trkpt>
      <trkpt lat="49.18059" lon="6.8354">
        <ele>263.9</ele>
        <time>2014-04-02T07:01:54Z</time>
      </trkpt>
      <trkpt lat="49.18064" lon="6.83534">
        <ele>263.7</ele>
        <time>2014-04-02T07:01:59Z</time>
      </trkpt>
      <trkpt lat="49.1807" lon="6.83527">
        <ele>263.2</ele>
        <time>2014-04-02T07:02:04Z</time>
      </trkpt>
      <trkpt lat="49.18075" lon="6.8352">
        <ele>262.8</ele>
        <time>2014-04-02T07:02:09Z</time>
      </trkpt>
      <trkpt lat="49.18079" lon="6.83513">
        <ele>262.8</ele>
        <time>2014-04-02T07:02:14Z</time>
      </trkpt>
      <trkpt lat="49.18085" lon="6.83506">
        <ele>261.7</ele>
        <time>2014-04-02T07:02:19Z</time>
      </trkpt>
      <trkpt lat="49.1809" lon="6.83499">
        <ele>262.4</ele>
        <time>2014-04-02T07:02:24Z</time>
      </trkpt>
      <trkpt lat="49.18095" lon="6.83492">
        <ele>261.1</ele>
        <time>2014-04-02T07:02:29Z</time>
      </trkpt>
      <trkpt lat="49.181" lon="6.83486">
        <ele>261.2</ele>
        <time>2014-04-02T07:02:34Z</time>
      </trkpt>
      <trkpt lat="49.18104" lon="6.8348">
        <ele>259.2</ele>
        <time>2014-04-02T07:02:39Z</time>
      </trkpt>
      <trkpt lat="49.18113" lon="6.8347">
        <ele>259.3</ele>
        <time>2014-04-02T07:02:49Z</time>
      </trkpt>
      <trkpt lat="49.18118" lon="6.83464">
        <ele>259.5</ele>
        <time>2014-04-02T07:02:54Z</time>
      </trkpt>
      <trkpt lat="49.18123" lon="6.83458">
        <ele>259.5</ele>
        <time>2014-04-02T07:02:59Z</time>
      </trkpt>
      <trkpt lat="49.18129" lon="6.83452">
        <ele>259.1</ele>
        <time>2014-04-02T07:03:04Z</time>
      </trkpt>
      <trkpt lat="49.18134" lon="6.83446">
        <ele>259.4</ele>
        <time>2014-04-02T07:03:09Z</time>
      </trkpt>
      <trkpt lat="49.18138" lon="6.8344">
        <ele>257.4</ele>
        <time>2014-04-02T07:03:14Z</time>
      </trkpt>
      <trkpt lat="49.18143" lon="6.83431">
        <ele>257.8</ele>
        <time>2014-04-02T07:03:19Z</time>
      </trkpt>
      <trkpt lat="49.18145" lon="6.83422">
        <ele>257.5</ele>
        <time>2014-04-02T07:03:24Z</time>
      </trkpt>
      <trkpt lat="49.18148" lon="6.83413">
        <ele>257.1</ele>
        <time>2014-04-02T07:03:29Z</time>
      </trkpt>
      <trkpt lat="49.18149" lon="6.83403">
        <ele>256.3</ele>
        <time>2014-04-02T07:03:34Z</time>
      </trkpt>
      <trkpt lat="49.18151" lon="6.83393">
        <ele>256</ele>
        <time>2014-04-02T07:03:39Z</time>
      </trkpt>
      <trkpt lat="49.18153" lon="6.83383">
        <ele>256</ele>
        <time>2014-04-02T07:03:44Z</time>
      </trkpt>
      <trkpt lat="49.18157" lon="6.83365">
        <ele>254.5</ele>
        <time>2014-04-02T07:03:54Z</time>
      </trkpt>
      <trkpt lat="49.18159" lon="6.83357">
        <ele>254.7</ele>
        <time>2014-04-02T07:03:59Z</time>
      </trkpt>
      <trkpt lat="49.1816" lon="6.83348">
        <ele>253.9</ele>
        <time>2014-04-02T07:04:04Z</time>
      </trkpt>
      <trkpt lat="49.18161" lon="6.83339">
        <ele>254.3</ele>
        <time>2014-04-02T07:04:09Z</time>
      </trkpt>
      <trkpt lat="49.18163" lon="6.8333">
        <ele>254.2</ele>
        <time>2014-04-02T07:04:14Z</time>
      </trkpt>
      <trkpt lat="49.18162" lon="6.8332">
        <ele>253.8</ele>
        <time>2014-04-02T07:04:19Z</time>
      </trkpt>
      <trkpt lat="49.18161" lon="6.83311">
        <ele>253.1</ele>
        <time>2014-04-02T07:04:24Z</time>
      </trkpt>
      <trkpt lat="49.1816" lon="6.83302">
        <ele>252.7</ele>
        <time>2014-04-02T07:04:29Z</time>
      </trkpt>
      <trkpt lat="49.18159" lon="6.83292">
        <ele>252.7</ele>
        <time>2014-04-02T07:04:34Z</time>
      </trkpt>
      <trkpt lat="49.18158" lon="6.83282">
        <ele>251.7</ele>
        <time>2014-04-02T07:04:39Z</time>
      </trkpt>
      <trkpt lat="49.18157" lon="6.83272">
        <ele>251.8</ele>
        <time>2014-04-02T07:04:44Z</time>
      </trkpt>
      <trkpt lat="49.18156" lon="6.83262">
        <ele>250.8</ele>
        <time>2014-04-02T07:04:49Z</time>
      </trkpt>
      <trkpt lat="49.18155" lon="6.83242">
        <ele>250.2</ele>
        <time>2014-04-02T07:04:59Z</time>
      </trkpt>
      <trkpt lat="49.18157" lon="6.83232">
        <ele>250.1</ele>
        <time>2014-04-02T07:05:04Z</time>
      </trkpt>
      <trkpt lat="49.18158" lon="6.83222">
        <ele>249.7</ele>
        <time>2014-04-02T07:05:09Z</time>
      </trkpt>
      <trkpt lat="49.1816" lon="6.83213">
        <ele>250.5</ele>
        <time>2014-04-02T07:05:14Z</time>
      </trkpt>
      <trkpt lat="49.18164" lon="6.83204">
        <ele>249.9</ele>
        <time>2014-04-02T07:05:19Z</time>
      </trkpt>
      <trkpt lat="49.18169" lon="6.83195">
        <ele>250.5</ele>
        <time>2014-04-02T07:05:24Z</time>
      </trkpt>
      <trkpt lat="49.18173" lon="6.83189">
        <ele>250.5</ele>
        <time>2014-04-02T07:05:29Z</time>
      </trkpt>
      <trkpt lat="49.18178" lon="6.83182">
        <ele>251.4</ele>
        <time>2014-04-02T07:05:34Z</time>
      </trkpt>
      <trkpt lat="49.18185" lon="6.83174">
        <ele>250.6</ele>
        <time>2014-04-02T07:05:39Z</time>
      </trkpt>
      <trkpt lat="49.1819" lon="6.83166">
        <ele>251</ele>
        <time>2014-04-02T07:05:44Z</time>
      </trkpt>
      <trkpt lat="49.18193" lon="6.83159">
        <ele>250.3</ele>
        <time>2014-04-02T07:05:49Z</time>
      </trkpt>
      <trkpt lat="49.18197" lon="6.83152">
        <ele>250.1</ele>
        <time>2014-04-02T07:05:54Z</time>
      </trkpt>
      <trkpt lat="49.18204" lon="6.83136">
        <ele>250.8</ele>
        <time>2014-04-02T07:06:04Z</time>
      </trkpt>
      <trkpt lat="49.18208" lon="6.83128">
        <ele>250.6</ele>
        <time>2014-04-02T07:06:09Z</time>
      </trkpt>
      <trkpt lat="49.18212" lon="6.83121">
        <ele>250.1</ele>
        <time>2014-04-02T07:06:14Z</time>
      </trkpt>
      <trkpt lat="49.18216" lon="6.83113">
        <ele>250.6</ele>
        <time>2014-04-02T07:06:19Z</time>
      </trkpt>
      <trkpt lat="49.18221" lon="6.83105">
        <ele>250.3</ele>
        <time>2014-04-02T07:06:24Z</time>
      </trkpt>
      <trkpt lat="49.18224" lon="6.83098">
        <ele>249.5</ele>
        <time>2014-04-02T07:06:29Z</time>
      </trkpt>
      <trkpt lat="49.18229" lon="6.83091">
        <ele>250.6</ele>
        <time>2014-04-02T07:06:34Z</time>
      </trkpt>
      <trkpt lat="49.18233" lon="6.83083">
        <ele>251.2</ele>
        <time>2014-04-02T07:06:39Z</time>
      </trkpt>
      <trkpt lat="49.18236" lon="6.83074">
        <ele>250.5</ele>
        <time>2014-04-02T07:06:44Z</time>
      </trkpt>
      <trkpt lat="49.18238" lon="6.83066">
        <ele>251</ele>
        <time>2014-04-02T07:06:49Z</time>
      </trkpt>
      <trkpt lat="49.18242" lon="6.83057">
        <ele>251.3</ele>
        <time>2014-04-02T07:06:54Z</time>
      </trkpt>
      <trkpt lat="49.18247" lon="6.83052">
        <ele>250.7</ele>
        <time>2014-04-02T07:06:59Z</time>
      </trkpt>
      <trkpt lat="49.18257" lon="6.83039">
        <ele>251.4</ele>
        <time>2014-04-02T07:07:09Z</time>
      </trkpt>
      <trkpt lat="49.18262" lon="6.83032">
        <ele>251.8</ele>
        <time>2014-04-02T07:07:14Z</time>
      </trkpt>
      <trkpt lat="49.18267" lon="6.83025">
        <ele>250.6</ele>
        <time>2014-04-02T07:07:19Z</time>
      </trkpt>
      <trkpt lat="49.18271" lon="6.83018">
        <ele>251.2</ele>
        <time>2014-04-02T07:07:24Z</time>
      </trkpt>
      <trkpt lat="49.18277" lon="6.83009">
        <ele>250.7</ele>
        <time>2014-04-02T07:07:29Z</time>
      </trkpt>
      <trkpt lat="49.18283" lon="6.83003">
        <ele>250.5</ele>
        <time>2014-04-02T07:07:34Z</time>
      </trkpt>
      <trkpt lat="49.18289" lon="6.82996">
        <ele>251.1</ele>
        <time>2014-04-02T07:07:39Z</time>
      </trkpt>
      <trkpt lat="49.18293" lon="6.82989">
        <ele>251.3</ele>
        <time>2014-04-02T07:07:44Z</time>
      </trkpt>
      <trkpt lat="49.18296" lon="6.82982">
        <ele>251.3</ele>
        <time>2014-04-02T07:07:49Z</time>
      </trkpt>
      <trkpt lat="49.18301" lon="6.82975">
        <ele>251.2</ele>
        <time>2014-04-02T07:07:54Z</time>
      </trkpt>
      <trkpt lat="49.18305" lon="6.82967">
        <ele>250.7</ele>
        <time>2014-04-02T07:07:59Z</time>
      </trkpt>
      <trkpt lat="49.18308" lon="6.82959">
        <ele>251.2</ele>
        <time>2014-04-02T07:08:04Z</time>
      </trkpt>
      <trkpt lat="49.18316" lon="6.82943">
        <ele>251.1</ele>
        <time>2014-04-02T07:08:14Z</time>
      </trkpt>
      <trkpt lat="49.18321" lon="6.82935">
        <ele>251</ele>
        <time>2014-04-02T07:08:19Z</time>
      </trkpt>
      <trkpt lat="49.18327" lon="6.82928">
        <ele>250.6</ele>
        <time>2014-04-02T07:08:24Z</time>
      </trkpt>
      <trkpt lat="49.18333" lon="6.82921">
        <ele>251.6</ele>
        <time>2014-04-02T07:08:29Z</time>
      </trkpt>
      <trkpt lat="49.18339" lon="6.82913">
        <ele>252</ele>
        <time>2014-04-02T07:08:34Z</time>
      </trkpt>
      <trkpt lat="49.18345" lon="6.82906">
        <ele>252.1</ele>
        <time>2014-04-02T07:08:39Z</time>
      </trkpt>
      <trkpt lat="49.1835" lon="6.82899">
        <ele>252.1</ele>
        <time>2014-04-02T07:08:44Z</time>
      </trkpt>
      <trkpt lat="49.18357" lon="6.82893">
        <ele>252.7</ele>
        <time>2014-04-02T07:08:49Z</time>
      </trkpt>
      <trkpt lat="49.18362" lon="6.82887">
        <ele>253</ele>
        <time>2014-04-02T07:08:54Z</time>
      </trkpt>
      <trkpt lat="49.18368" lon="6.82881">
        <ele>252.1</ele>
        <time>2014-04-02T07:08:59Z</time>
      </trkpt>
      <trkpt lat="49.18373" lon="6.82875">
        <ele>253.3</ele>
        <time>2014-04-02T07:09:04Z</time>
      </trkpt>
      <trkpt lat="49.18377" lon="6.82868">
        <ele>253.1</ele>
        <time>2014-04-02T07:09:09Z</time>
      </trkpt>
      <trkpt lat="49.18387" lon="6.82855">
        <ele>254.2</ele>
        <time>2014-04-02T07:09:19Z</time>
      </trkpt>
      <trkpt lat="49.18393" lon="6.82849">
        <ele>254.8</ele>
        <time>2014-04-02T07:09:24Z</time>
      </trkpt>
      <trkpt lat="49.18399" lon="6.82842">
        <ele>255.2</ele>
        <time>2014-04-02T07:09:29Z</time>
      </trkpt>
      <trkpt lat="49.18404" lon="6.82835">
        <ele>254.3</ele>
        <time>2014-04-02T07:09:34Z</time>
      </trkpt>
      <trkpt lat="49.18409" lon="6.82829">
        <ele>254.6</ele>
        <time>2014-04-02T07:09:39Z</time>
      </trkpt>
      <trkpt lat="49.18413" lon="6.82821">
        <ele>254.4</ele>
        <time>2014-04-02T07:09:44Z</time>
      </trkpt>
      <trkpt lat="49.18417" lon="6.82813">
        <ele>254.6</ele>
        <time>2014-04-02T07:09:49Z</time>
      </trkpt>
      <trkpt lat="49.1842" lon="6.82805">
        <ele>255.3</ele>
        <time>2014-04-02T07:09:54Z</time>
      </trkpt>
      <trkpt lat="49.18422" lon="6.82797">
        <ele>255.1</ele>
        <time>2014-04-02T07:09:59Z</time>
      </trkpt>
      <trkpt lat="49.18423" lon="6.82788">
        <ele>255.6</ele>
        <time>2014-04-02T07:10:04Z</time>
      </trkpt>
      <trkpt lat="49.18426" lon="6.82779">
        <ele>255.1</ele>
        <time>2014-04-02T07:10:09Z</time>
      </trkpt>
      <trkpt lat="49.18428" lon="6.82769">
        <ele>254.8</ele>
        <time>2014-04-02T07:10:14Z</time>
      </trkpt>
      <trkpt lat="49.18433" lon="6.82756">
        <ele>255.1</ele>
        <time>2014-04-02T07:10:24Z</time>
      </trkpt>
      <trkpt lat="49.18438" lon="6.82753">
        <ele>254.6</ele>
        <time>2014-04-02T07:10:29Z</time>
      </trkpt>
      <trkpt lat="49.18442" lon="6.82753">
        <ele>255.2</ele>
        <time>2014-04-02T07:10:34Z</time>
      </trkpt>
      <trkpt lat="49.18446" lon="6.82753">
        <ele>255.3</ele>
        <time>2014-04-02T07:10:39Z</time>
      </trkpt>
      <trkpt lat="49.1845" lon="6.82754">
        <ele>255.3</ele>
        <time>2014-04-02T07:10:44Z</time>
      </trkpt>
      <trkpt lat="49.18454" lon="6.82757">
        <ele>256.1</ele>
        <time>2014-04-02T07:10:49Z</time>
      </trkpt>
      <trkpt lat="49.18459" lon="6.82761">
        <ele>255.9</ele>
        <time>2014-04-02T07:10:54Z</time>
      </trkpt>
      <trkpt lat="49.18465" lon="6.82765">
        <ele>256</ele>
        <time>2014-04-02T07:10:59Z</time>
      </trkpt>
      <trkpt lat="49.18472" lon="6.82767">
        <ele>255.6</ele>
        <time>2014-04-02T07:11:04Z</time>
      </trkpt>
      <trkpt lat="49.18481" lon="6.82767">
        <ele>255.5</ele>
        <time>2014-04-02T07:11:09Z</time>
      </trkpt>
      <trkpt lat="49.18489" lon="6.82766">
        <ele>255.7</ele>
        <time>2014-04-02T07:11:14Z</time>
      </trkpt>
      <trkpt lat="49.18496" lon="6.82762">
        <ele>255.5</ele>
        <time>2014-04-02T07:11:19Z</time>
      </trkpt>
      <trkpt lat="49.18506" lon="6.8275">
        <ele>256.8</ele>
        <time>2014-04-02T07:11:29Z</time>
      </trkpt>
      <trkpt lat="49.1851" lon="6.82744">
        <ele>257.2</ele>
        <time>2014-04-02T07:11:34Z</time>
      </trkpt>
      <trkpt lat="49.18514" lon="6.82738">
        <ele>256.1</ele>
        <time>2014-04-02T07:11:39Z</time>
      </trkpt>
      <trkpt lat="49.18518" lon="6.82731">
        <ele>257</ele>
        <time>2014-04-02T07:11:44Z</time>
      </trkpt>
      <trkpt lat="49.18522" lon="6.82725">
        <ele>257.3</ele>
        <time>2014-04-02T07:11:49Z</time>
      </trkpt>
      <trkpt lat="49.18526" lon="6.82718">
        <ele>257.3</ele>
        <time>2014-04-02T07:11:54Z</time>
      </trkpt>
      <trkpt lat="49.18529" lon="6.82712">
        <ele>257.6</ele>
        <time>2014-04-02T07:11:59Z</time>
      </trkpt>
      <trkpt lat="49.18533" lon="6.82705">
        <ele>258.1</ele>
        <time>2014-04-02T07:12:04Z</time>
      </trkpt>
      <trkpt lat="49.18536" lon="6.82697">
        <ele>257.8</ele>
        <time>2014-04-02T07:12:09Z</time>
      </trkpt>
      <trkpt lat="49.1854" lon="6.82689">
        <ele>258.6</ele>
        <time>2014-04-02T07:12:14Z</time>
      </trkpt>
      <trkpt lat="49.18544" lon="6.82681">
        <ele>259.3</ele>
        <time>2014-04-02T07:12:19Z</time>
      </trkpt>
      <trkpt lat="49.18549" lon="6.82674">
        <ele>259.3</ele>
        <time>2014-04-02T07:12:24Z</time>
      </trkpt>
      <trkpt lat="49.18557" lon="6.8266">
        <ele>259.2</ele>
        <time>2014-04-02T07:12:34Z</time>
      </trkpt>
      <trkpt lat="49.18561" lon="6.82653">
        <ele>258.7</ele>
        <time>2014-04-02T07:12:39Z</time>
      </trkpt>
      <trkpt lat="49.18565" lon="6.82646">
        <ele>260.3</ele>
        <time>2014-04-02T07:12:44Z</time>
      </trkpt>
      <trkpt lat="49.18568" lon="6.82639">
        <ele>260.7</ele>
        <time>2014-04-02T07:12:49Z</time>
      </trkpt>
      <trkpt lat="49.18571" lon="6.82631">
        <ele>260.9</ele>
        <time>2014-04-02T07:12:54Z</time>
      </trkpt>
      <trkpt lat="49.18575" lon="6.82623">
        <ele>261.3</ele>
        <time>2014-04-02T07:12:59Z</time>
      </trkpt>
      <trkpt lat="49.1858" lon="6.82617">
        <ele>262.4</ele>
        <time>2014-04-02T07:13:04Z</time>
      </trkpt>
      <trkpt lat="49.18585" lon="6.8261">
        <ele>261.8</ele>
        <time>2014-04-02T07:13:09Z</time>
      </trkpt>
      <trkpt lat="49.18591" lon="6.82604">
        <ele>262.1</ele>
        <time>2014-04-02T07:13:14Z</time>
      </trkpt>
      <trkpt lat="49.18596" lon="6.82599">
        <ele>263.3</ele>
        <time>2014-04-02T07:13:19Z</time>
      </trkpt>
      <trkpt lat="49.18599" lon="6.82594">
        <ele>263.4</ele>
        <time>2014-04-02T07:13:24Z</time>
      </trkpt>
      <trkpt lat="49.18605" lon="6.82589">
        <ele>264.5</ele>
        <time>2014-04-02T07:13:29Z</time>
      </trkpt>
      <trkpt lat="49.18617" lon="6.82581">
        <ele>264.3</ele>
        <time>2014-04-02T07:13:39Z</time>
      </trkpt>
      <trkpt lat="49.18622" lon="6.82574">
        <ele>264.6</ele>
        <time>2014-04-02T07:13:44Z</time>
      </trkpt>
      <trkpt lat="49.18625" lon="6.82566">
        <ele>264.5</ele>
        <time>2014-04-02T07:13:49Z</time>
      </trkpt>
      <trkpt lat="49.18626" lon="6.82557">
        <ele>265.6</ele>
        <time>2014-04-02T07:13:54Z</time>
      </trkpt>
      <trkpt lat="49.18628" lon="6.82549">
        <ele>265.1</ele>
        <time>2014-04-02T07:13:59Z</time>
      </trkpt>
      <trkpt lat="49.1863" lon="6.8254">
        <ele>265.2</ele>
        <time>2014-04-02T07:14:04Z</time>
      </trkpt>
      <trkpt lat="49.18631" lon="6.8253">
        <ele>265.5</ele>
        <time>2014-04-02T07:14:09Z</time>
      </trkpt>
      <trkpt lat="49.18631" lon="6.82521">
        <ele>265.7</ele>
        <time>2014-04-02T07:14:14Z</time>
      </trkpt>
      <trkpt lat="49.1863" lon="6.82509">
        <ele>266.8</ele>
        <time>2014-04-02T07:14:19Z</time>
      </trkpt>
      <trkpt lat="49.18627" lon="6.82498">
        <ele>266.9</ele>
        <time>2014-04-02T07:14:24Z</time>
      </trkpt>
      <trkpt lat="49.18625" lon="6.82487">
        <ele>266.5</ele>
        <time>2014-04-02T07:14:29Z</time>
      </trkpt>
      <trkpt lat="49.18622" lon="6.82477">
        <ele>266.9</ele>
        <time>2014-04-02T07:14:34Z</time>
      </trkpt>
      <trkpt lat="49.18617" lon="6.82457">
        <ele>266.8</ele>
        <time>2014-04-02T07:14:44Z</time>
      </trkpt>
      <trkpt lat="49.18614" lon="6.82448">
        <ele>266.6</ele>
        <time>2014-04-02T07:14:49Z</time>
      </trkpt>
      <trkpt lat="49.18611" lon="6.82439">
        <ele>267.3</ele>
        <time>2014-04-02T07:14:54Z</time>
      </trkpt>
      <trkpt lat="49.18608" lon="6.82431">
        <ele>268.1</ele>
        <time>2014-04-02T07:14:59Z</time>
      </trkpt>
      <trkpt lat="49.18606" lon="6.82422">
        <ele>267.7</ele>
        <time>2014-04-02T07:15:04Z</time>
      </trkpt>
      <trkpt lat="49.18605" lon="6.82413">
        <ele>267.8</ele>
        <time>2014-04-02T07:15:09Z</time>
      </trkpt>
      <trkpt lat="49.18602" lon="6.82405">
        <ele>268.3</ele>
        <time>2014-04-02T07:15:14Z</time>
      </trkpt>
      <trkpt lat="49.186" lon="6.82396">
        <ele>268.3</ele>
        <time>2014-04-02T07:15:19Z</time>
      </trkpt>
      <trkpt lat="49.18598" lon="6.82387">
        <ele>268.7</ele>
        <time>2014-04-02T07:15:24Z</time>
      </trkpt>
      <trkpt lat="49.18597" lon="6.82379">
        <ele>269.3</ele>
        <time>2014-04-02T07:15:29Z</time>
      </trkpt>
      <trkpt lat="49.18597" lon="6.82369">
        <ele>268.2</ele>
        <time>2014-04-02T07:15:34Z</time>
      </trkpt>
      <trkpt lat="49.18597" lon="6.8236">
        <ele>269.4</ele>
        <time>2014-04-02T07:15:39Z</time>
      </trkpt>
      <trkpt lat="49.18598" lon="6.82341">
        <ele>269.1</ele>
        <time>2014-04-02T07:15:49Z</time>
      </trkpt>
      <trkpt lat="49.186" lon="6.82332">
        <ele>269.7</ele>
        <time>2014-04-02T07:15:54Z</time>
      </trkpt>
      <trkpt lat="49.18601" lon="6.82322">
        <ele>271.3</ele>
        <time>2014-04-02T07:15:59Z</time>
      </trkpt>
      <trkpt lat="49.18602" lon="6.82313">
        <ele>271.6</ele>
        <time>2014-04-02T07:16:04Z</time>
      </trkpt>
      <trkpt lat="49.18603" lon="6.82304">
        <ele>271.3</ele>
        <time>2014-04-02T07:16:09Z</time>
      </trkpt>
      <trkpt lat="49.18604" lon="6.82294">
        <ele>272.1</ele>
        <time>2014-04-02T07:16:14Z</time>
      </trkpt>
      <trkpt lat="49.18605" lon="6.82284">
        <ele>272.3</ele>
        <time>2014-04-02T07:16:19Z</time>
      </trkpt>
      <trkpt lat="49.18608" lon="6.82273">
        <ele>272.5</ele>
        <time>2014-04-02T07:16:24Z</time>
      </trkpt>
      <trkpt lat="49.1861" lon="6.82263">
        <ele>272.1</ele>
        <time>2014-04-02T07:16:29Z</time>
      </trkpt>
      <trkpt lat="49.18612" lon="6.82255">
        <ele>273</ele>
        <time>2014-04-02T07:16:34Z</time>
      </trkpt>
      <trkpt lat="49.18614" lon="6.82248">
        <ele>273.6</ele>
        <time>2014-04-02T07:16:39Z</time>
      </trkpt>
      <trkpt lat="49.18619" lon="6.82241">
        <ele>274.4</ele>
        <time>2014-04-02T07:16:44Z</time>
      </trkpt>
      <trkpt lat="49.18629" lon="6.82226">
        <ele>274.3</ele>
        <time>2014-04-02T07:16:54Z</time>
      </trkpt>
      <trkpt lat="49.18634" lon="6.8222">
        <ele>274.3</ele>
        <time>2014-04-02T07:16:59Z</time>
      </trkpt>
      <trkpt lat="49.18639" lon="6.82213">
        <ele>275.1</ele>
        <time>2014-04-02T07:17:04Z</time>
      </trkpt>
      <trkpt lat="49.18645" lon="6.82205">
        <ele>275.2</ele>
        <time>2014-04-02T07:17:09Z</time>
      </trkpt>
      <trkpt lat="49.1865" lon="6.82198">
        <ele>276.8</ele>
        <time>2014-04-02T07:17:14Z</time>
      </trkpt>
      <trkpt lat="49.18655" lon="6.82192">
        <ele>277.2</ele>
        <time>2014-04-02T07:17:19Z</time>
      </trkpt>
      <trkpt lat="49.18659" lon="6.82185">
        <ele>277.2</ele>
        <time>2014-04-02T07:17:24Z</time>
      </trkpt>
      <trkpt lat="49.18663" lon="6.82179">
        <ele>278.2</ele>
        <time>2014-04-02T07:17:29Z</time>
      </trkpt>
      <trkpt lat="49.18668" lon="6.82174">
        <ele>278.7</ele>
        <time>2014-04-02T07:17:34Z</time>
      </trkpt>
      <trkpt lat="49.18673" lon="6.82168">
        <ele>278</ele>
        <time>2014-04-02T07:17:39Z</time>
      </trkpt>
      <trkpt lat="49.18678" lon="6.82162">
        <ele>278.7</ele>
        <time>2014-04-02T07:17:44Z</time>
      </trkpt>
      <trkpt lat="49.18682" lon="6.82156">
        <ele>279.5</ele>
        <time>2014-04-02T07:17:49Z</time>
      </trkpt>
      <trkpt lat="49.18691" lon="6.82142">
        <ele>280</ele>
        <time>2014-04-02T07:17:59Z</time>
      </trkpt>
      <trkpt lat="49.18694" lon="6.82135">
        <ele>280.1</ele>
        <time>2014-04-02T07:18:04Z</time>
      </trkpt>
      <trkpt lat="49.18696" lon="6.82128">
        <ele>279.8</ele>
        <time>2014-04-02T07:18:09Z</time>
      </trkpt>
      <trkpt lat="49.18694" lon="6.82119">
        <ele>279.5</ele>
        <time>2014-04-02T07:18:14Z</time>
      </trkpt>
      <trkpt lat="49.18691" lon="6.82111">
        <ele>279.6</ele>
        <time>2014-04-02T07:18:19Z</time>
      </trkpt>
      <trkpt lat="49.18688" lon="6.82104">
        <ele>279.9</ele>
        <time>2014-04-02T07:18:24Z</time>
      </trkpt>
      <trkpt lat="49.18686" lon="6.82097">
        <ele>279.9</ele>
        <time>2014-04-02T07:18:29Z</time>
      </trkpt>
      <trkpt lat="49.18683" lon="6.82091">
        <ele>279.5</ele>
        <time>2014-04-02T07:18:34Z</time>
      </trkpt>
      <trkpt lat="49.1868" lon="6.82085">
        <ele>280.8</ele>
        <time>2014-04-02T07:18:39Z</time>
      </trkpt>
      <trkpt lat="49.18676" lon="6.8208">
        <ele>282.3</ele>
        <time>2014-04-02T07:18:44Z</time>
      </trkpt>
      <trkpt lat="49.18674" lon="6.82075">
        <ele>284.5</ele>
        <time>2014-04-02T07:18:49Z</time>
      </trkpt>
      <trkpt lat="49.18671" lon="6.82069">
        <ele>285.4</ele>
        <time>2014-04-02T07:18:54Z</time>
      </trkpt>
      <trkpt lat="49.18668" lon="6.82059">
        <ele>288.2</ele>
        <time>2014-04-02T07:19:04Z</time>
      </trkpt>
      <trkpt lat="49.18667" lon="6.82056">
        <ele>288.7</ele>
        <time>2014-04-02T07:19:09Z</time>
      </trkpt>
      <trkpt lat="49.18666" lon="6.82055">
        <ele>288.9</ele>
        <time>2014-04-02T07:19:14Z</time>
      </trkpt>
      <trkpt lat="49.18664" lon="6.82053">
        <ele>289</ele>
        <time>2014-04-02T07:19:19Z</time>
      </trkpt>
      <trkpt lat="49.1866" lon="6.82049">
        <ele>288.7</ele>
        <time>2014-04-02T07:19:24Z</time>
      </trkpt>
      <trkpt lat="49.18656" lon="6.82045">
        <ele>289.9</ele>
        <time>2014-04-02T07:19:29Z</time>
      </trkpt>
      <trkpt lat="49.18653" lon="6.8204">
        <ele>290.4</ele>
        <time>2014-04-02T07:19:34Z</time>
      </trkpt>
      <trkpt lat="49.1865" lon="6.82035">
        <ele>289.8</ele>
        <time>2014-04-02T07:19:39Z</time>
      </trkpt>
      <trkpt lat="49.18646" lon="6.82029">
        <ele>290.5</ele>
        <time>2014-04-02T07:19:44Z</time>
      </trkpt>
      <trkpt lat="49.18642" lon="6.82024">
        <ele>290.8</ele>
        <time>2014-04-02T07:19:49Z</time>
      </trkpt>
      <trkpt lat="49.18639" lon="6.82016">
        <ele>291.1</ele>
        <time>2014-04-02T07:19:54Z</time>
      </trkpt>
      <trkpt lat="49.18636" lon="6.8201">
        <ele>291.6</ele>
        <time>2014-04-02T07:19:59Z</time>
      </trkpt>
      <trkpt lat="49.18631" lon="6.81996">
        <ele>292.2</ele>
        <time>2014-04-02T07:20:09Z</time>
      </trkpt>
      <trkpt lat="49.18629" lon="6.81988">
        <ele>293</ele>
        <time>2014-04-02T07:20:14Z</time>
      </trkpt>
      <trkpt lat="49.18625" lon="6.81978">
        <ele>293.4</ele>
        <time>2014-04-02T07:20:19Z</time>
      </trkpt>
      <trkpt lat="49.18622" lon="6.81968">
        <ele>294.5</ele>
        <time>2014-04-02T07:20:24Z</time>
      </trkpt>
      <trkpt lat="49.18619" lon="6.8196">
        <ele>294.9</ele>
        <time>2014-04-02T07:20:29Z</time>
      </trkpt>
      <trkpt lat="49.18618" lon="6.8195">
        <ele>296</ele>
        <time>2014-04-02T07:20:34Z</time>
      </trkpt>
      <trkpt lat="49.18616" lon="6.8194">
        <ele>295.7</ele>
        <time>2014-04-02T07:20:39Z</time>
      </trkpt>
      <trkpt lat="49.18615" lon="6.8193">
        <ele>296</ele>
        <time>2014-04-02T07:20:44Z</time>
      </trkpt>
      <trkpt lat="49.18614" lon="6.8192">
        <ele>296.3</ele>
        <time>2014-04-02T07:20:49Z</time>
      </trkpt>
      <trkpt lat="49.18612" lon="6.81913">
        <ele>296.8</ele>
        <time>2014-04-02T07:20:54Z</time>
      </trkpt>
      <trkpt lat="49.18608" lon="6.81908">
        <ele>296.8</ele>
        <time>2014-04-02T07:20:59Z</time>
      </trkpt>
      <trkpt lat="49.18603" lon="6.81906">
        <ele>295.5</ele>
        <time>2014-04-02T07:21:04Z</time>
      </trkpt>
      <trkpt lat="49.18601" lon="6.81904">
        <ele>295.3</ele>
        <time>2014-04-02T07:21:14Z</time>
      </trkpt>
      <trkpt lat="49.186" lon="6.81903">
        <ele>295.3</ele>
        <time>2014-04-02T07:21:19Z</time>
      </trkpt>
      <trkpt lat="49.18599" lon="6.81902">
        <ele>295.1</ele>
        <time>2014-04-02T07:21:24Z</time>
      </trkpt>
      <trkpt lat="49.18598" lon="6.81901">
        <ele>295.1</ele>
        <time>2014-04-02T07:21:29Z</time>
      </trkpt>
      <trkpt lat="49.18598" lon="6.81902">
        <ele>294.7</ele>
        <time>2014-04-02T07:21:34Z</time>
      </trkpt>
      <trkpt lat="49.18597" lon="6.81903">
        <ele>294.9</ele>
        <time>2014-04-02T07:21:39Z</time>
      </trkpt>
      <trkpt lat="49.18597" lon="6.81905">
        <ele>294.9</ele>
        <time>2014-04-02T07:21:44Z</time>
      </trkpt>
      <trkpt lat="49.18597" lon="6.81907">
        <ele>295.2</ele>
        <time>2014-04-02T07:21:49Z</time>
      </trkpt>
      <trkpt lat="49.18596" lon="6.81908">
        <ele>294.9</ele>
        <time>2014-04-02T07:21:54Z</time>
      </trkpt>
      <trkpt lat="49.18595" lon="6.8191">
        <ele>295.7</ele>
        <time>2014-04-02T07:21:59Z</time>
      </trkpt>
      <trkpt lat="49.18593" lon="6.8191">
        <ele>295.2</ele>
        <time>2014-04-02T07:22:04Z</time>
      </trkpt>
      <trkpt lat="49.18593" lon="6.81909">
        <ele>295.3</ele>
        <time>2014-04-02T07:22:09Z</time>
      </trkpt>
      <trkpt lat="49.18593" lon="6.81906">
        <ele>295.4</ele>
        <time>2014-04-02T07:22:19Z</time>
      </trkpt>
      <trkpt lat="49.1859" lon="6.81906">
        <ele>294.5</ele>
        <time>2014-04-02T07:22:24Z</time>
      </trkpt>
      <trkpt lat="49.18588" lon="6.81907">
        <ele>293.1</ele>
        <time>2014-04-02T07:22:29Z</time>
      </trkpt>
      <trkpt lat="49.18584" lon="6.81909">
        <ele>293.7</ele>
        <time>2014-04-02T07:22:34Z</time>
      </trkpt>
      <trkpt lat="49.1858" lon="6.81912">
        <ele>293.2</ele>
        <time>2014-04-02T07:22:39Z</time>
      </trkpt>
      <trkpt lat="49.18577" lon="6.81915">
        <ele>291.9</ele>
        <time>2014-04-02T07:22:44Z</time>
      </trkpt>
      <trkpt lat="49.18573" lon="6.81921">
        <ele>290.3</ele>
        <time>2014-04-02T07:22:49Z</time>
      </trkpt>
      <trkpt lat="49.18569" lon="6.81925">
        <ele>289.4</ele>
        <time>2014-04-02T07:22:54Z</time>
      </trkpt>
      <trkpt lat="49.18564" lon="6.81929">
        <ele>288.6</ele>
        <time>2014-04-02T07:22:59Z</time>
      </trkpt>
      <trkpt lat="49.18559" lon="6.81932">
        <ele>287.7</ele>
        <time>2014-04-02T07:23:04Z</time>
      </trkpt>
      <trkpt lat="49.18553" lon="6.81937">
        <ele>286.4</ele>
        <time>2014-04-02T07:23:09Z</time>
      </trkpt>
      <trkpt lat="49.18548" lon="6.81941">
        <ele>285.5</ele>
        <time>2014-04-02T07:23:14Z</time>
      </trkpt>
      <trkpt lat="49.18543" lon="6.81944">
        <ele>283.6</ele>
        <time>2014-04-02T07:23:24Z</time>
      </trkpt>
      <trkpt lat="49.18538" lon="6.81946">
        <ele>283.6</ele>
        <time>2014-04-02T07:23:29Z</time>
      </trkpt>
      <trkpt lat="49.18535" lon="6.81947">
        <ele>284.1</ele>
        <time>2014-04-02T07:23:34Z</time>
      </trkpt>
      <trkpt lat="49.18531" lon="6.81949">
        <ele>283.2</ele>
        <time>2014-04-02T07:23:39Z</time>
      </trkpt>
      <trkpt lat="49.18527" lon="6.81951">
        <ele>282.6</ele>
        <time>2014-04-02T07:23:44Z</time>
      </trkpt>
      <trkpt lat="49.18522" lon="6.81952">
        <ele>282.6</ele>
        <time>2014-04-02T07:23:49Z</time>
      </trkpt>
      <trkpt lat="49.18519" lon="6.81953">
        <ele>282.3</ele>
        <time>2014-04-02T07:23:54Z</time>
      </trkpt>
      <trkpt lat="49.18516" lon="6.81953">
        <ele>282.1</ele>
        <time>2014-04-02T07:23:59Z</time>
      </trkpt>
      <trkpt lat="49.18514" lon="6.81951">
        <ele>282.4</ele>
        <time>2014-04-02T07:24:04Z</time>
      </trkpt>
      <trkpt lat="49.18511" lon="6.81948">
        <ele>281.3</ele>
        <time>2014-04-02T07:24:09Z</time>
      </trkpt>
      <trkpt lat="49.18509" lon="6.81948">
        <ele>281.7</ele>
        <time>2014-04-02T07:24:14Z</time>
      </trkpt>
      <trkpt lat="49.18507" lon="6.8195">
        <ele>282.2</ele>
        <time>2014-04-02T07:24:19Z</time>
      </trkpt>
      <trkpt lat="49.185" lon="6.81952">
        <ele>280.4</ele>
        <time>2014-04-02T07:24:29Z</time>
      </trkpt>
      <trkpt lat="49.18494" lon="6.8195">
        <ele>279.8</ele>
        <time>2014-04-02T07:24:34Z</time>
      </trkpt>
      <trkpt lat="49.18491" lon="6.81949">
        <ele>278.9</ele>
        <time>2014-04-02T07:24:39Z</time>
      </trkpt>
      <trkpt lat="49.18485" lon="6.81948">
        <ele>278.4</ele>
        <time>2014-04-02T07:24:44Z</time>
      </trkpt>
      <trkpt lat="49.1848" lon="6.81944">
        <ele>276.8</ele>
        <time>2014-04-02T07:24:49Z</time>
      </trkpt>
      <trkpt lat="49.18478" lon="6.81939">
        <ele>276.5</ele>
        <time>2014-04-02T07:24:54Z</time>
      </trkpt>
      <trkpt lat="49.18475" lon="6.81932">
        <ele>276</ele>
        <time>2014-04-02T07:24:59Z</time>
      </trkpt>
      <trkpt lat="49.18474" lon="6.81926">
        <ele>274.6</ele>
        <time>2014-04-02T07:25:04Z</time>
      </trkpt>
      <trkpt lat="49.18472" lon="6.81918">
        <ele>274.7</ele>
        <time>2014-04-02T07:25:09Z</time>
      </trkpt>
      <trkpt lat="49.18468" lon="6.81913">
        <ele>274.6</ele>
        <time>2014-04-02T07:25:14Z</time>
      </trkpt>
      <trkpt lat="49.18464" lon="6.8191">
        <ele>276.1</ele>
        <time>2014-04-02T07:25:19Z</time>
      </trkpt>
      <trkpt lat="49.18459" lon="6.81909">
        <ele>275.2</ele>
        <time>2014-04-02T07:25:24Z</time>
      </trkpt>
      <trkpt lat="49.1845" lon="6.81909">
        <ele>275.8</ele>
        <time>2014-04-02T07:25:34Z</time>
      </trkpt>
      <trkpt lat="49.18444" lon="6.81911">
        <ele>275.7</ele>
        <time>2014-04-02T07:25:39Z</time>
      </trkpt>
      <trkpt lat="49.18438" lon="6.81914">
        <ele>274.3</ele>
        <time>2014-04-02T07:25:44Z</time>
      </trkpt>
      <trkpt lat="49.18434" lon="6.81916">
        <ele>274</ele>
        <time>2014-04-02T07:25:49Z</time>
      </trkpt>
      <trkpt lat="49.18428" lon="6.8192">
        <ele>273.6</ele>
        <time>2014-04-02T07:25:54Z</time>
      </trkpt>
      <trkpt lat="49.18423" lon="6.81923">
        <ele>272.6</ele>
        <time>2014-04-02T07:25:59Z</time>
      </trkpt>
      <trkpt lat="49.18417" lon="6.81926">
        <ele>271.9</ele>
        <time>2014-04-02T07:26:04Z</time>
      </trkpt>
      <trkpt lat="49.1841" lon="6.81931">
        <ele>272.2</ele>
        <time>2014-04-02T07:26:09Z</time>
      </trkpt>
      <trkpt lat="49.18404" lon="6.81934">
        <ele>272.4</ele>
        <time>2014-04-02T07:26:14Z</time>
      </trkpt>
      <trkpt lat="49.18397" lon="6.81937">
        <ele>271</ele>
        <time>2014-04-02T07:26:19Z</time>
      </trkpt>
      <trkpt lat="49.18392" lon="6.8194">
        <ele>270.6</ele>
        <time>2014-04-02T07:26:24Z</time>
      </trkpt>
      <trkpt lat="49.18388" lon="6.81944">
        <ele>270.4</ele>
        <time>2014-04-02T07:26:29Z</time>
      </trkpt>
      <trkpt lat="49.18381" lon="6.81954">
        <ele>269.9</ele>
        <time>2014-04-02T07:26:39Z</time>
      </trkpt>
      <trkpt lat="49.18379" lon="6.81962">
        <ele>269.3</ele>
        <time>2014-04-02T07:26:44Z</time>
      </trkpt>
      <trkpt lat="49.18379" lon="6.81969">
        <ele>269.9</ele>
        <time>2014-04-02T07:26:49Z</time>
      </trkpt>
      <trkpt lat="49.1838" lon="6.81976">
        <ele>269.9</ele>
        <time>2014-04-02T07:26:54Z</time>
      </trkpt>
      <trkpt lat="49.18382" lon="6.81983">
        <ele>270.5</ele>
        <time>2014-04-02T07:26:59Z</time>
      </trkpt>
      <trkpt lat="49.18384" lon="6.81992">
        <ele>270</ele>
        <time>2014-04-02T07:27:04Z</time>
      </trkpt>
      <trkpt lat="49.18383" lon="6.82">
        <ele>270.1</ele>
        <time>2014-04-02T07:27:09Z</time>
      </trkpt>
      <trkpt lat="49.18382" lon="6.82007">
        <ele>270</ele>
        <time>2014-04-02T07:27:14Z</time>
      </trkpt>
      <trkpt lat="49.18379" lon="6.82012">
        <ele>270.6</ele>
        <time>2014-04-02T07:27:19Z</time>
      </trkpt>
      <trkpt lat="49.18376" lon="6.82018">
        <ele>270.5</ele>
        <time>2014-04-02T07:27:24Z</time>
      </trkpt>
      <trkpt lat="49.18373" lon="6.82023">
        <ele>271.2</ele>
        <time>2014-04-02T07:27:29Z</time>
      </trkpt>
      <trkpt lat="49.18371" lon="6.82026">
        <ele>270</ele>
        <time>2014-04-02T07:27:34Z</time>
      </trkpt>
      <trkpt lat="49.18369" lon="6.82031">
        <ele>270.1</ele>
        <time>2014-04-02T07:27:44Z</time>
      </trkpt>
      <trkpt lat="49.18369" lon="6.82034">
        <ele>269.6</ele>
        <time>2014-04-02T07:27:49Z</time>
      </trkpt>
      <trkpt lat="49.18368" lon="6.82034">
        <ele>269.9</ele>
        <time>2014-04-02T07:27:54Z</time>
      </trkpt>
      <trkpt lat="49.18367" lon="6.82034">
        <ele>270.4</ele>
        <time>2014-04-02T07:27:59Z</time>
      </trkpt>
      <trkpt lat="49.18367" lon="6.82034">
        <ele>271</ele>
        <time>2014-04-02T07:28:04Z</time>
      </trkpt>
      <trkpt lat="49.18366" lon="6.82034">
        <ele>269.8</ele>
        <time>2014-04-02T07:28:09Z</time>
      </trkpt>
      <trkpt lat="49.18363" lon="6.82032">
        <ele>269.5</ele>
        <time>2014-04-02T07:28:14Z</time>
      </trkpt>
      <trkpt lat="49.18358" lon="6.82031">
        <ele>268.7</ele>
        <time>2014-04-02T07:28:19Z</time>
      </trkpt>
      <trkpt lat="49.18352" lon="6.82031">
        <ele>267.8</ele>
        <time>2014-04-02T07:28:24Z</time>
      </trkpt>
      <trkpt lat="49.18347" lon="6.82031">
        <ele>267.6</ele>
        <time>2014-04-02T07:28:29Z</time>
      </trkpt>
      <trkpt lat="49.18342" lon="6.82034">
        <ele>267.9</ele>
        <time>2014-04-02T07:28:34Z</time>
      </trkpt>
      <trkpt lat="49.18338" lon="6.82037">
        <ele>268.2</ele>
        <time>2014-04-02T07:28:39Z</time>
      </trkpt>
      <trkpt lat="49.1833" lon="6.82044">
        <ele>268.5</ele>
        <time>2014-04-02T07:28:49Z</time>
      </trkpt>
      <trkpt lat="49.18327" lon="6.8205">
        <ele>268.6</ele>
        <time>2014-04-02T07:28:54Z</time>
      </trkpt>
      <trkpt lat="49.18324" lon="6.82057">
        <ele>268.5</ele>
        <time>2014-04-02T07:28:59Z</time>
      </trkpt>
      <trkpt lat="49.18321" lon="6.82064">
        <ele>268.7</ele>
        <time>2014-04-02T07:29:04Z</time>
      </trkpt>
      <trkpt lat="49.18319" lon="6.82073">
        <ele>269.1</ele>
        <time>2014-04-02T07:29:09Z</time>
      </trkpt>
      <trkpt lat="49.18317" lon="6.82082">
        <ele>269</ele>
        <time>2014-04-02T07:29:14Z</time>
      </trkpt>
      <trkpt lat="49.18315" lon="6.82089">
        <ele>270.1</ele>
        <time>2014-04-02T07:29:19Z</time>
      </trkpt>
      <trkpt lat="49.18312" lon="6.82097">
        <ele>271.3</ele>
        <time>2014-04-02T07:29:24Z</time>
      </trkpt>
      <trkpt lat="49.18308" lon="6.82102">
        <ele>272.6</ele>
        <time>2014-04-02T07:29:29Z</time>
      </trkpt>
      <trkpt lat="49.18304" lon="6.82106">
        <ele>273.8</ele>
        <time>2014-04-02T07:29:34Z</time>
      </trkpt>
      <trkpt lat="49.18298" lon="6.8211">
        <ele>273.6</ele>
        <time>2014-04-02T07:29:39Z</time>
      </trkpt>
      <trkpt lat="49.18293" lon="6.82113">
        <ele>274.6</ele>
        <time>2014-04-02T07:29:44Z</time>
      </trkpt>
      <trkpt lat="49.18283" lon="6.82119">
        <ele>276</ele>
        <time>2014-04-02T07:29:54Z</time>
      </trkpt>
      <trkpt lat="49.18278" lon="6.82122">
        <ele>276.6</ele>
        <time>2014-04-02T07:29:59Z</time>
      </trkpt>
      <trkpt lat="49.18271" lon="6.82126">
        <ele>277.3</ele>
        <time>2014-04-02T07:30:04Z</time>
      </trkpt>
      <trkpt lat="49.18264" lon="6.82128">
        <ele>278</ele>
        <time>2014-04-02T07:30:09Z</time>
      </trkpt>
      <trkpt lat="49.18258" lon="6.8213">
        <ele>277.3</ele>
        <time>2014-04-02T07:30:14Z</time>
      </trkpt>
      <trkpt lat="49.18252" lon="6.82131">
        <ele>278</ele>
        <time>2014-04-02T07:30:19Z</time>
      </trkpt>
      <trkpt lat="49.18247" lon="6.82133">
        <ele>278.6</ele>
        <time>2014-04-02T07:30:24Z</time>
      </trkpt>
      <trkpt lat="49.18241" lon="6.82135">
        <ele>279.9</ele>
        <time>2014-04-02T07:30:29Z</time>
      </trkpt>
      <trkpt lat="49.18235" lon="6.82136">
        <ele>279.7</ele>
        <time>2014-04-02T07:30:34Z</time>
      </trkpt>
      <trkpt lat="49.1823" lon="6.82138">
        <ele>279.9</ele>
        <time>2014-04-02T07:30:39Z</time>
      </trkpt>
      <trkpt lat="49.18224" lon="6.82141">
        <ele>279.8</ele>
        <time>2014-04-02T07:30:44Z</time>
      </trkpt>
      <trkpt lat="49.18218" lon="6.82141">
        <ele>279.8</ele>
        <time>2014-04-02T07:30:49Z</time>
      </trkpt>
      <trkpt lat="49.18207" lon="6.82144">
        <ele>279.2</ele>
        <time>2014-04-02T07:30:59Z</time>
      </trkpt>
      <trkpt lat="49.18201" lon="6.82146">
        <ele>281</ele>
        <time>2014-04-02T07:31:04Z</time>
      </trkpt>
      <trkpt lat="49.18195" lon="6.82148">
        <ele>280.4</ele>
        <time>2014-04-02T07:31:09Z</time>
      </trkpt>
      <trkpt lat="49.18188" lon="6.82151">
        <ele>281.6</ele>
        <time>2014-04-02T07:31:14Z</time>
      </trkpt>
      <trkpt lat="49.18182" lon="6.82153">
        <ele>281.3</ele>
        <time>2014-04-02T07:31:19Z</time>
      </trkpt>
      <trkpt lat="49.18176" lon="6.82157">
        <ele>281.9</ele>
        <time>2014-04-02T07:31:24Z</time>
      </trkpt>
      <trkpt lat="49.1817" lon="6.8216">
        <ele>282.3</ele>
        <time>2014-04-02T07:31:29Z</time>
      </trkpt>
      <trkpt lat="49.18163" lon="6.82161">
        <ele>283.3</ele>
        <time>2014-04-02T07:31:34Z</time>
      </trkpt>
      <trkpt lat="49.18158" lon="6.82162">
        <ele>283</ele>
        <time>2014-04-02T07:31:39Z</time>
      </trkpt>
      <trkpt lat="49.18153" lon="6.82162">
        <ele>283.5</ele>
        <time>2014-04-02T07:31:44Z</time>
      </trkpt>
      <trkpt lat="49.18149" lon="6.82161">
        <ele>284.3</ele>
        <time>2014-04-02T07:31:49Z</time>
      </trkpt>
      <trkpt lat="49.18144" lon="6.8216">
        <ele>283.7</ele>
        <time>2014-04-02T07:31:54Z</time>
      </trkpt>
      <trkpt lat="49.18135" lon="6.82156">
        <ele>284.7</ele>
        <time>2014-04-02T07:32:04Z</time>
      </trkpt>
      <trkpt lat="49.18131" lon="6.82154">
        <ele>284.9</ele>
        <time>2014-04-02T07:32:09Z</time>
      </trkpt>
      <trkpt lat="49.18127" lon="6.82151">
        <ele>285.8</ele>
        <time>2014-04-02T07:32:14Z</time>
      </trkpt>
      <trkpt lat="49.18123" lon="6.82147">
        <ele>285.9</ele>
        <time>2014-04-02T07:32:19Z</time>
      </trkpt>
      <trkpt lat="49.18118" lon="6.82142">
        <ele>286.5</ele>
        <time>2014-04-02T07:32:24Z</time>
      </trkpt>
      <trkpt lat="49.18114" lon="6.82136">
        <ele>286.4</ele>
        <time>2014-04-02T07:32:29Z</time>
      </trkpt>
      <trkpt lat="49.18111" lon="6.8213">
        <ele>286.9</ele>
        <time>2014-04-02T07:32:34Z</time>
      </trkpt>
      <trkpt lat="49.18108" lon="6.82122">
        <ele>288</ele>
        <time>2014-04-02T07:32:39Z</time>
      </trkpt>
      <trkpt lat="49.18105" lon="6.82115">
        <ele>288.9</ele>
        <time>2014-04-02T07:32:44Z</time>
      </trkpt>
      <trkpt lat="49.181" lon="6.82107">
        <ele>288.4</ele>
        <time>2014-04-02T07:32:49Z</time>
      </trkpt>
      <trkpt lat="49.18095" lon="6.821">
        <ele>288.4</ele>
        <time>2014-04-02T07:32:54Z</time>
      </trkpt>
      <trkpt lat="49.1809" lon="6.82095">
        <ele>289.1</ele>
        <time>2014-04-02T07:32:59Z</time>
      </trkpt>
      <trkpt lat="49.1808" lon="6.82084">
        <ele>289.1</ele>
        <time>2014-04-02T07:33:09Z</time>
      </trkpt>
      <trkpt lat="49.18076" lon="6.82079">
        <ele>290.3</ele>
        <time>2014-04-02T07:33:14Z</time>
      </trkpt>
      <trkpt lat="49.18071" lon="6.82073">
        <ele>290.1</ele>
        <time>2014-04-02T07:33:19Z</time>
      </trkpt>
      <trkpt lat="49.18066" lon="6.82069">
        <ele>290.4</ele>
        <time>2014-04-02T07:33:24Z</time>
      </trkpt>
      <trkpt lat="49.18062" lon="6.82065">
        <ele>290.8</ele>
        <time>2014-04-02T07:33:29Z</time>
      </trkpt>
      <trkpt lat="49.18058" lon="6.82065">
        <ele>291.3</ele>
        <time>2014-04-02T07:33:34Z</time>
      </trkpt>
      <trkpt lat="49.18054" lon="6.82068">
        <ele>291.4</ele>
        <time>2014-04-02T07:33:39Z</time>
      </trkpt>
      <trkpt lat="49.18051" lon="6.82069">
        <ele>291.9</ele>
        <time>2014-04-02T07:33:44Z</time>
      </trkpt>
      <trkpt lat="49.18048" lon="6.8207">
        <ele>291</ele>
        <time>2014-04-02T07:33:49Z</time>
      </trkpt>
      <trkpt lat="49.18044" lon="6.8207">
        <ele>292.6</ele>
        <time>2014-04-02T07:33:54Z</time>
      </trkpt>
      <trkpt lat="49.18039" lon="6.8207">
        <ele>293</ele>
        <time>2014-04-02T07:33:59Z</time>
      </trkpt>
      <trkpt lat="49.18035" lon="6.8207">
        <ele>292.4</ele>
        <time>2014-04-02T07:34:04Z</time>
      </trkpt>
      <trkpt lat="49.18025" lon="6.82066">
        <ele>292.1</ele>
        <time>2014-04-02T07:34:14Z</time>
      </trkpt>
      <trkpt lat="49.18019" lon="6.82065">
        <ele>293.2</ele>
        <time>2014-04-02T07:34:19Z</time>
      </trkpt>
      <trkpt lat="49.18012" lon="6.82064">
        <ele>293.3</ele>
        <time>2014-04-02T07:34:24Z</time>
      </trkpt>
      <trkpt lat="49.18006" lon="6.82062">
        <ele>292.7</ele>
        <time>2014-04-02T07:34:29Z</time>
      </trkpt>
      <trkpt lat="49.17999" lon="6.82061">
        <ele>293.8</ele>
        <time>2014-04-02T07:34:34Z</time>
      </trkpt>
      <trkpt lat="49.17992" lon="6.82061">
        <ele>292.8</ele>
        <time>2014-04-02T07:34:39Z</time>
      </trkpt>
      <trkpt lat="49.17986" lon="6.8206">
        <ele>292.6</ele>
        <time>2014-04-02T07:34:44Z</time>
      </trkpt>
      <trkpt lat="49.1798" lon="6.8206">
        <ele>293.3</ele>
        <time>2014-04-02T07:34:49Z</time>
      </trkpt>
      <trkpt lat="49.17973" lon="6.82059">
        <ele>293.4</ele>
        <time>2014-04-02T07:34:54Z</time>
      </trkpt>
      <trkpt lat="49.17966" lon="6.82059">
        <ele>293.5</ele>
        <time>2014-04-02T07:34:59Z</time>
      </trkpt>
      <trkpt lat="49.1796" lon="6.82059">
        <ele>294</ele>
        <time>2014-04-02T07:35:04Z</time>
      </trkpt>
      <trkpt lat="49.17953" lon="6.82059">
        <ele>294.1</ele>
        <time>2014-04-02T07:35:09Z</time>
      </trkpt>
      <trkpt lat="49.1794" lon="6.82057">
        <ele>293.9</ele>
        <time>2014-04-02T07:35:19Z</time>
      </trkpt>
      <trkpt lat="49.17934" lon="6.82056">
        <ele>294.5</ele>
        <time>2014-04-02T07:35:24Z</time>
      </trkpt>
      <trkpt lat="49.17928" lon="6.82055">
        <ele>295.7</ele>
        <time>2014-04-02T07:35:29Z</time>
      </trkpt>
      <trkpt lat="49.17922" lon="6.82054">
        <ele>295.7</ele>
        <time>2014-04-02T07:35:34Z</time>
      </trkpt>
      <trkpt lat="49.17915" lon="6.82054">
        <ele>296.7</ele>
        <time>2014-04-02T07:35:39Z</time>
      </trkpt>
      <trkpt lat="49.17909" lon="6.82053">
        <ele>296.2</ele>
        <time>2014-04-02T07:35:44Z</time>
      </trkpt>
      <trkpt lat="49.17904" lon="6.82051">
        <ele>296.9</ele>
        <time>2014-04-02T07:35:49Z</time>
      </trkpt>
      <trkpt lat="49.17898" lon="6.8205">
        <ele>297</ele>
        <time>2014-04-02T07:35:54Z</time>
      </trkpt>
      <trkpt lat="49.17893" lon="6.82047">
        <ele>297</ele>
        <time>2014-04-02T07:35:59Z</time>
      </trkpt>
      <trkpt lat="49.17887" lon="6.82047">
        <ele>297.5</ele>
        <time>2014-04-02T07:36:04Z</time>
      </trkpt>
      <trkpt lat="49.17881" lon="6.82046">
        <ele>297.9</ele>
        <time>2014-04-02T07:36:09Z</time>
      </trkpt>
      <trkpt lat="49.17875" lon="6.82044">
        <ele>298.2</ele>
        <time>2014-04-02T07:36:14Z</time>
      </trkpt>
      <trkpt lat="49.17861" lon="6.82041">
        <ele>298.6</ele>
        <time>2014-04-02T07:36:24Z</time>
      </trkpt>
      <trkpt lat="49.17855" lon="6.82038">
        <ele>298.5</ele>
        <time>2014-04-02T07:36:29Z</time>
      </trkpt>
      <trkpt lat="49.17848" lon="6.82037">
        <ele>298.5</ele>
        <time>2014-04-02T07:36:34Z</time>
      </trkpt>
      <trkpt lat="49.17842" lon="6.82036">
        <ele>299.1</ele>
        <time>2014-04-02T07:36:39Z</time>
      </trkpt>
      <trkpt lat="49.17836" lon="6.82034">
        <ele>299.3</ele>
        <time>2014-04-02T07:36:44Z</time>
      </trkpt>
      <trkpt lat="49.1783" lon="6.82032">
        <ele>299.5</ele>
        <time>2014-04-02T07:36:49Z</time>
      </trkpt>
      <trkpt lat="49.17823" lon="6.8203">
        <ele>300.4</ele>
        <time>2014-04-02T07:36:54Z</time>
      </trkpt>
      <trkpt lat="49.17816" lon="6.82029">
        <ele>300</ele>
        <time>2014-04-02T07:36:59Z</time>
      </trkpt>
      <trkpt lat="49.17809" lon="6.82026">
        <ele>300</ele>
        <time>2014-04-02T07:37:04Z</time>
      </trkpt>
      <trkpt lat="49.17803" lon="6.82023">
        <ele>300.6</ele>
        <time>2014-04-02T07:37:09Z</time>
      </trkpt>
      <trkpt lat="49.17797" lon="6.82019">
        <ele>301.4</ele>
        <time>2014-04-02T07:37:14Z</time>
      </trkpt>
      <trkpt lat="49.17791" lon="6.82015">
        <ele>302</ele>
        <time>2014-04-02T07:37:19Z</time>
      </trkpt>
      <trkpt lat="49.17778" lon="6.82004">
        <ele>303.4</ele>
        <time>2014-04-02T07:37:29Z</time>
      </trkpt>
      <trkpt lat="49.17772" lon="6.81998">
        <ele>303.9</ele>
        <time>2014-04-02T07:37:34Z</time>
      </trkpt>
      <trkpt lat="49.17766" lon="6.81992">
        <ele>304.3</ele>
        <time>2014-04-02T07:37:39Z</time>
      </trkpt>
      <trkpt lat="49.1776" lon="6.81987">
        <ele>305.1</ele>
        <time>2014-04-02T07:37:44Z</time>
      </trkpt>
      <trkpt lat="49.17754" lon="6.81981">
        <ele>304.8</ele>
        <time>2014-04-02T07:37:49Z</time>
      </trkpt>
      <trkpt lat="49.17749" lon="6.81976">
        <ele>304.4</ele>
        <time>2014-04-02T07:37:54Z</time>
      </trkpt>
      <trkpt lat="49.17744" lon="6.81972">
        <ele>303.9</ele>
        <time>2014-04-02T07:37:59Z</time>
      </trkpt>
      <trkpt lat="49.17739" lon="6.81966">
        <ele>304.2</ele>
        <time>2014-04-02T07:38:04Z</time>
      </trkpt>
      <trkpt lat="49.17733" lon="6.8196">
        <ele>303.9</ele>
        <time>2014-04-02T07:38:09Z</time>
      </trkpt>
      <trkpt lat="49.17728" lon="6.81954">
        <ele>303.8</ele>
        <time>2014-04-02T07:38:14Z</time>
      </trkpt>
      <trkpt lat="49.17722" lon="6.81947">
        <ele>304.9</ele>
        <time>2014-04-02T07:38:19Z</time>
      </trkpt>
      <trkpt lat="49.17717" lon="6.81941">
        <ele>304.4</ele>
        <time>2014-04-02T07:38:24Z</time>
      </trkpt>
      <trkpt lat="49.17707" lon="6.81931">
        <ele>305.4</ele>
        <time>2014-04-02T07:38:34Z</time>
      </trkpt>
      <trkpt lat="49.17703" lon="6.81925">
        <ele>306</ele>
        <time>2014-04-02T07:38:39Z</time>
      </trkpt>
      <trkpt lat="49.17698" lon="6.8192">
        <ele>305.2</ele>
        <time>2014-04-02T07:38:44Z</time>
      </trkpt>
      <trkpt lat="49.17692" lon="6.8191">
        <ele>305.5</ele>
        <time>2014-04-02T07:38:49Z</time>
      </trkpt>
      <trkpt lat="49.17689" lon="6.81905">
        <ele>306</ele>
        <time>2014-04-02T07:38:54Z</time>
      </trkpt>
      <trkpt lat="49.17684" lon="6.81901">
        <ele>305.7</ele>
        <time>2014-04-02T07:38:59Z</time>
      </trkpt>
      <trkpt lat="49.17679" lon="6.81896">
        <ele>305.6</ele>
        <time>2014-04-02T07:39:04Z</time>
      </trkpt>
      <trkpt lat="49.17673" lon="6.8189">
        <ele>304.6</ele>
        <time>2014-04-02T07:39:09Z</time>
      </trkpt>
      <trkpt lat="49.17668" lon="6.81886">
        <ele>305.4</ele>
        <time>2014-04-02T07:39:14Z</time>
      </trkpt>
      <trkpt lat="49.17661" lon="6.81881">
        <ele>304.9</ele>
        <time>2014-04-02T07:39:19Z</time>
      </trkpt>
      <trkpt lat="49.17655" lon="6.81876">
        <ele>305.5</ele>
        <time>2014-04-02T07:39:24Z</time>
      </trkpt>
      <trkpt lat="49.17649" lon="6.81872">
        <ele>305.7</ele>
        <time>2014-04-02T07:39:29Z</time>
      </trkpt>
      <trkpt lat="49.17638" lon="6.81863">
        <ele>305.6</ele>
        <time>2014-04-02T07:39:39Z</time>
      </trkpt>
      <trkpt lat="49.17632" lon="6.81859">
        <ele>307.4</ele>
        <time>2014-04-02T07:39:44Z</time>
      </trkpt>
      <trkpt lat="49.17627" lon="6.81854">
        <ele>306.3</ele>
        <time>2014-04-02T07:39:49Z</time>
      </trkpt>
      <trkpt lat="49.17621" lon="6.81848">
        <ele>306.3</ele>
        <time>2014-04-02T07:39:54Z</time>
      </trkpt>
      <trkpt lat="49.17616" lon="6.81843">
        <ele>306.8</ele>
        <time>2014-04-02T07:39:59Z</time>
      </trkpt>
      <trkpt lat="49.17611" lon="6.81838">
        <ele>307.8</ele>
        <time>2014-04-02T07:40:04Z</time>
      </trkpt>
      <trkpt lat="49.17606" lon="6.81834">
        <ele>308.8</ele>
        <time>2014-04-02T07:40:09Z</time>
      </trkpt>
      <trkpt lat="49.17602" lon="6.8183">
        <ele>308.4</ele>
        <time>2014-04-02T07:40:14Z</time>
      </trkpt>
      <trkpt lat="49.17597" lon="6.81825">
        <ele>309.5</ele>
        <time>2014-04-02T07:40:19Z</time>
      </trkpt>
      <trkpt lat="49.17592" lon="6.81821">
        <ele>308.9</ele>
        <time>2014-04-02T07:40:24Z</time>
      </trkpt>
      <trkpt lat="49.17586" lon="6.81817">
        <ele>309.3</ele>
        <time>2014-04-02T07:40:29Z</time>
      </trkpt>
      <trkpt lat="49.1758" lon="6.81812">
        <ele>310.7</ele>
        <time>2014-04-02T07:40:34Z</time>
      </trkpt>
      <trkpt lat="49.17568" lon="6.81803">
        <ele>311.6</ele>
        <time>2014-04-02T07:40:44Z</time>
      </trkpt>
      <trkpt lat="49.17561" lon="6.81798">
        <ele>311.8</ele>
        <time>2014-04-02T07:40:49Z</time>
      </trkpt>
      <trkpt lat="49.17554" lon="6.81792">
        <ele>311.6</ele>
        <time>2014-04-02T07:40:54Z</time>
      </trkpt>
      <trkpt lat="49.17548" lon="6.81787">
        <ele>311.8</ele>
        <time>2014-04-02T07:40:59Z</time>
      </trkpt>
      <trkpt lat="49.17543" lon="6.81782">
        <ele>312</ele>
        <time>2014-04-02T07:41:04Z</time>
      </trkpt>
      <trkpt lat="49.17539" lon="6.81777">
        <ele>312.2</ele>
        <time>2014-04-02T07:41:09Z</time>
      </trkpt>
      <trkpt lat="49.17536" lon="6.81774">
        <ele>311.7</ele>
        <time>2014-04-02T07:41:14Z</time>
      </trkpt>
      <trkpt lat="49.17536" lon="6.81775">
        <ele>311.8</ele>
        <time>2014-04-02T07:41:19Z</time>
      </trkpt>
      <trkpt lat="49.17535" lon="6.81775">
        <ele>311.1</ele>
        <time>2014-04-02T07:41:24Z</time>
      </trkpt>
      <trkpt lat="49.17533" lon="6.81772">
        <ele>311.2</ele>
        <time>2014-04-02T07:41:29Z</time>
      </trkpt>
      <trkpt lat="49.1753" lon="6.8177">
        <ele>311.1</ele>
        <time>2014-04-02T07:41:34Z</time>
      </trkpt>
      <trkpt lat="49.17529" lon="6.81769">
        <ele>311.7</ele>
        <time>2014-04-02T07:41:39Z</time>
      </trkpt>
      <trkpt lat="49.17528" lon="6.81757">
        <ele>311</ele>
        <time>2014-04-02T07:41:49Z</time>
      </trkpt>
      <trkpt lat="49.17527" lon="6.81752">
        <ele>310</ele>
        <time>2014-04-02T07:41:54Z</time>
      </trkpt>
      <trkpt lat="49.17527" lon="6.81747">
        <ele>311</ele>
        <time>2014-04-02T07:41:59Z</time>
      </trkpt>
      <trkpt lat="49.17527" lon="6.81741">
        <ele>311.1</ele>
        <time>2014-04-02T07:42:04Z</time>
      </trkpt>
      <trkpt lat="49.17524" lon="6.81733">
        <ele>311.7</ele>
        <time>2014-04-02T07:42:09Z</time>
      </trkpt>
      <trkpt lat="49.17522" lon="6.81725">
        <ele>311.8</ele>
        <time>2014-04-02T07:42:14Z</time>
      </trkpt>
      <trkpt lat="49.17519" lon="6.8171">
        <ele>312.5</ele>
        <time>2014-04-02T07:42:19Z</time>
      </trkpt>
      <trkpt lat="49.17518" lon="6.81702">
        <ele>312.2</ele>
        <time>2014-04-02T07:42:24Z</time>
      </trkpt>
      <trkpt lat="49.17517" lon="6.81694">
        <ele>313</ele>
        <time>2014-04-02T07:42:29Z</time>
      </trkpt>
      <trkpt lat="49.17516" lon="6.81687">
        <ele>313.1</ele>
        <time>2014-04-02T07:42:34Z</time>
      </trkpt>
      <trkpt lat="49.17511" lon="6.81674">
        <ele>312.8</ele>
        <time>2014-04-02T07:42:39Z</time>
      </trkpt>
      <trkpt lat="49.17509" lon="6.81666">
        <ele>313.3</ele>
        <time>2014-04-02T07:42:44Z</time>
      </trkpt>
      <trkpt lat="49.17506" lon="6.81649">
        <ele>313.3</ele>
        <time>2014-04-02T07:42:54Z</time>
      </trkpt>
      <trkpt lat="49.17505" lon="6.8164">
        <ele>313.1</ele>
        <time>2014-04-02T07:42:59Z</time>
      </trkpt>
      <trkpt lat="49.17503" lon="6.8163">
        <ele>312.9</ele>
        <time>2014-04-02T07:43:04Z</time>
      </trkpt>
      <trkpt lat="49.17501" lon="6.8162">
        <ele>314</ele>
        <time>2014-04-02T07:43:09Z</time>
      </trkpt>
      <trkpt lat="49.17499" lon="6.8161">
        <ele>313.9</ele>
        <time>2014-04-02T07:43:14Z</time>
      </trkpt>
      <trkpt lat="49.17498" lon="6.816">
        <ele>314.1</ele>
        <time>2014-04-02T07:43:19Z</time>
      </trkpt>
      <trkpt lat="49.17498" lon="6.8159">
        <ele>314.2</ele>
        <time>2014-04-02T07:43:24Z</time>
      </trkpt>
      <trkpt lat="49.17499" lon="6.81579">
        <ele>314.3</ele>
        <time>2014-04-02T07:43:29Z</time>
      </trkpt>
      <trkpt lat="49.17501" lon="6.81569">
        <ele>314.9</ele>
        <time>2014-04-02T07:43:34Z</time>
      </trkpt>
      <trkpt lat="49.17505" lon="6.8156">
        <ele>314.8</ele>
        <time>2014-04-02T07:43:39Z</time>
      </trkpt>
      <trkpt lat="49.1751" lon="6.81554">
        <ele>314.9</ele>
        <time>2014-04-02T07:43:44Z</time>
      </trkpt>
      <trkpt lat="49.17515" lon="6.8155">
        <ele>314.8</ele>
        <time>2014-04-02T07:43:49Z</time>
      </trkpt>
      <trkpt lat="49.17526" lon="6.81544">
        <ele>315.5</ele>
        <time>2014-04-02T07:43:59Z</time>
      </trkpt>
      <trkpt lat="49.17533" lon="6.81541">
        <ele>315.8</ele>
        <time>2014-04-02T07:44:04Z</time>
      </trkpt>
      <trkpt lat="49.17539" lon="6.81537">
        <ele>315.3</ele>
        <time>2014-04-02T07:44:09Z</time>
      </trkpt>
      <trkpt lat="49.17545" lon="6.81532">
        <ele>315.3</ele>
        <time>2014-04-02T07:44:14Z</time>
      </trkpt>
      <trkpt lat="49.1755" lon="6.81525">
        <ele>316.3</ele>
        <time>2014-04-02T07:44:19Z</time>
      </trkpt>
      <trkpt lat="49.17556" lon="6.81518">
        <ele>316.1</ele>
        <time>2014-04-02T07:44:24Z</time>
      </trkpt>
      <trkpt lat="49.17561" lon="6.81511">
        <ele>315.7</ele>
        <time>2014-04-02T07:44:29Z</time>
      </trkpt>
      <trkpt lat="49.17566" lon="6.81504">
        <ele>316.5</ele>
        <time>2014-04-02T07:44:34Z</time>
      </trkpt>
      <trkpt lat="49.17571" lon="6.81497">
        <ele>315.7</ele>
        <time>2014-04-02T07:44:39Z</time>
      </trkpt>
      <trkpt lat="49.17576" lon="6.8149">
        <ele>315.2</ele>
        <time>2014-04-02T07:44:44Z</time>
      </trkpt>
      <trkpt lat="49.1758" lon="6.81483">
        <ele>315.8</ele>
        <time>2014-04-02T07:44:49Z</time>
      </trkpt>
      <trkpt lat="49.17585" lon="6.81477">
        <ele>316.4</ele>
        <time>2014-04-02T07:44:54Z</time>
      </trkpt>
      <trkpt lat="49.17593" lon="6.81463">
        <ele>319</ele>
        <time>2014-04-02T07:45:04Z</time>
      </trkpt>
      <trkpt lat="49.17591" lon="6.81454">
        <ele>318.9</ele>
        <time>2014-04-02T07:45:09Z</time>
      </trkpt>
      <trkpt lat="49.17587" lon="6.81446">
        <ele>317</ele>
        <time>2014-04-02T07:45:14Z</time>
      </trkpt>
      <trkpt lat="49.17583" lon="6.81438">
        <ele>316</ele>
        <time>2014-04-02T07:45:19Z</time>
      </trkpt>
      <trkpt lat="49.1758" lon="6.81431">
        <ele>315.4</ele>
        <time>2014-04-02T07:45:24Z</time>
      </trkpt>
      <trkpt lat="49.17576" lon="6.81424">
        <ele>313.6</ele>
        <time>2014-04-02T07:45:29Z</time>
      </trkpt>
      <trkpt lat="49.17573" lon="6.81418">
        <ele>313.8</ele>
        <time>2014-04-02T07:45:34Z</time>
      </trkpt>
      <trkpt lat="49.17569" lon="6.81411">
        <ele>312.7</ele>
        <time>2014-04-02T07:45:39Z</time>
      </trkpt>
      <trkpt lat="49.17565" lon="6.81404">
        <ele>312.6</ele>
        <time>2014-04-02T07:45:44Z</time>
      </trkpt>
      <trkpt lat="49.17561" lon="6.81397">
        <ele>311</ele>
        <time>2014-04-02T07:45:49Z</time>
      </trkpt>
      <trkpt lat="49.17558" lon="6.81391">
        <ele>310.8</ele>
        <time>2014-04-02T07:45:54Z</time>
      </trkpt>
      <trkpt lat="49.17554" lon="6.81385">
        <ele>308.9</ele>
        <time>2014-04-02T07:45:59Z</time>
      </trkpt>
      <trkpt lat="49.17547" lon="6.81373">
        <ele>308.6</ele>
        <time>2014-04-02T07:46:09Z</time>
      </trkpt>
      <trkpt lat="49.17544" lon="6.81366">
        <ele>307.1</ele>
        <time>2014-04-02T07:46:14Z</time>
      </trkpt>
      <trkpt lat="49.1754" lon="6.81359">
        <ele>307</ele>
        <time>2014-04-02T07:46:19Z</time>
      </trkpt>
      <trkpt lat="49.17536" lon="6.81353">
        <ele>306.3</ele>
        <time>2014-04-02T07:46:24Z</time>
      </trkpt>
      <trkpt lat="49.17533" lon="6.81348">
        <ele>304.3</ele>
        <time>2014-04-02T07:46:29Z</time>
      </trkpt>
      <trkpt lat="49.1753" lon="6.81343">
        <ele>304.8</ele>
        <time>2014-04-02T07:46:34Z</time>
      </trkpt>
      <trkpt lat="49.17527" lon="6.81338">
        <ele>303.4</ele>
        <time>2014-04-02T07:46:39Z</time>
      </trkpt>
      <trkpt lat="49.17524" lon="6.81333">
        <ele>302</ele>
        <time>2014-04-02T07:46:44Z</time>
      </trkpt>
      <trkpt lat="49.17521" lon="6.8133">
        <ele>301.6</ele>
        <time>2014-04-02T07:46:49Z</time>
      </trkpt>
      <trkpt lat="49.1752" lon="6.81331">
        <ele>301.9</ele>
        <time>2014-04-02T07:46:54Z</time>
      </trkpt>
      <trkpt lat="49.1752" lon="6.81332">
        <ele>301.4</ele>
        <time>2014-04-02T07:46:59Z</time>
      </trkpt>
      <trkpt lat="49.1752" lon="6.81332">
        <ele>301.2</ele>
        <time>2014-04-02T07:47:04Z</time>
      </trkpt>
      <trkpt lat="49.17519" lon="6.81333">
        <ele>301.6</ele>
        <time>2014-04-02T07:47:14Z</time>
      </trkpt>
      <trkpt lat="49.17518" lon="6.81333">
        <ele>301.2</ele>
        <time>2014-04-02T07:47:19Z</time>
      </trkpt>
      <trkpt lat="49.17518" lon="6.81333">
        <ele>301.5</ele>
        <time>2014-04-02T07:47:24Z</time>
      </trkpt>
      <trkpt lat="49.17518" lon="6.81333">
        <ele>301.5</ele>
        <time>2014-04-02T07:47:29Z</time>
      </trkpt>
      <trkpt lat="49.17518" lon="6.81333">
        <ele>301.6</ele>
        <time>2014-04-02T07:47:34Z</time>
      </trkpt>
      <trkpt lat="49.17518" lon="6.81333">
        <ele>301.6</ele>
        <time>2014-04-02T07:47:39Z</time>
      </trkpt>
      <trkpt lat="49.17518" lon="6.81332">
        <ele>301.6</ele>
        <time>2014-04-02T07:47:44Z</time>
      </trkpt>
      <trkpt lat="49.17518" lon="6.81331">
        <ele>300.6</ele>
        <time>2014-04-02T07:47:49Z</time>
      </trkpt>
      <trkpt lat="49.17518" lon="6.81331">
        <ele>300.9</ele>
        <time>2014-04-02T07:47:54Z</time>
      </trkpt>
      <trkpt lat="49.17518" lon="6.81331">
        <ele>301.2</ele>
        <time>2014-04-02T07:47:59Z</time>
      </trkpt>
      <trkpt lat="49.17518" lon="6.81331">
        <ele>301.4</ele>
        <time>2014-04-02T07:48:04Z</time>
      </trkpt>
      <trkpt lat="49.17518" lon="6.8133">
        <ele>299.5</ele>
        <time>2014-04-02T07:48:09Z</time>
      </trkpt>
      <trkpt lat="49.17518" lon="6.81329">
        <ele>299.3</ele>
        <time>2014-04-02T07:48:19Z</time>
      </trkpt>
      <trkpt lat="49.17519" lon="6.81328">
        <ele>299.8</ele>
        <time>2014-04-02T07:48:24Z</time>
      </trkpt>
      <trkpt lat="49.17521" lon="6.81328">
        <ele>299.9</ele>
        <time>2014-04-02T07:48:29Z</time>
      </trkpt>
      <trkpt lat="49.17521" lon="6.81328">
        <ele>299.5</ele>
        <time>2014-04-02T07:48:34Z</time>
      </trkpt>
      <trkpt lat="49.17521" lon="6.81328">
        <ele>299.4</ele>
        <time>2014-04-02T07:48:39Z</time>
      </trkpt>
      <trkpt lat="49.17522" lon="6.81329">
        <ele>300.2</ele>
        <time>2014-04-02T07:48:44Z</time>
      </trkpt>
      <trkpt lat="49.17524" lon="6.81328">
        <ele>300.1</ele>
        <time>2014-04-02T07:48:49Z</time>
      </trkpt>
      <trkpt lat="49.17527" lon="6.81328">
        <ele>300</ele>
        <time>2014-04-02T07:48:54Z</time>
      </trkpt>
      <trkpt lat="49.1753" lon="6.81327">
        <ele>299.2</ele>
        <time>2014-04-02T07:48:59Z</time>
      </trkpt>
      <trkpt lat="49.17533" lon="6.81326">
        <ele>298.8</ele>
        <time>2014-04-02T07:49:04Z</time>
      </trkpt>
      <trkpt lat="49.17534" lon="6.81325">
        <ele>297.8</ele>
        <time>2014-04-02T07:49:09Z</time>
      </trkpt>
      <trkpt lat="49.17535" lon="6.81324">
        <ele>298.3</ele>
        <time>2014-04-02T07:49:14Z</time>
      </trkpt>
      <trkpt lat="49.17534" lon="6.81317">
        <ele>295</ele>
        <time>2014-04-02T07:49:24Z</time>
      </trkpt>
      <trkpt lat="49.17534" lon="6.81314">
        <ele>295.6</ele>
        <time>2014-04-02T07:49:29Z</time>
      </trkpt>
      <trkpt lat="49.17534" lon="6.81313">
        <ele>294.9</ele>
        <time>2014-04-02T07:49:34Z</time>
      </trkpt>
      <trkpt lat="49.17533" lon="6.81312">
        <ele>294.2</ele>
        <time>2014-04-02T07:49:39Z</time>
      </trkpt>
      <trkpt lat="49.17531" lon="6.81309">
        <ele>292.7</ele>
        <time>2014-04-02T07:49:44Z</time>
      </trkpt>
      <trkpt lat="49.17528" lon="6.81308">
        <ele>291.3</ele>
        <time>2014-04-02T07:49:49Z</time>
      </trkpt>
      <trkpt lat="49.17525" lon="6.81305">
        <ele>290.5</ele>
        <time>2014-04-02T07:49:54Z</time>
      </trkpt>
      <trkpt lat="49.17522" lon="6.81304">
        <ele>289.9</ele>
        <time>2014-04-02T07:49:59Z</time>
      </trkpt>
      <trkpt lat="49.17518" lon="6.81304">
        <ele>289</ele>
        <time>2014-04-02T07:50:04Z</time>
      </trkpt>
      <trkpt lat="49.17517" lon="6.81305">
        <ele>288.9</ele>
        <time>2014-04-02T07:50:09Z</time>
      </trkpt>
      <trkpt lat="49.17515" lon="6.81304">
        <ele>288.3</ele>
        <time>2014-04-02T07:50:14Z</time>
      </trkpt>
      <trkpt lat="49.17513" lon="6.81304">
        <ele>287.9</ele>
        <time>2014-04-02T07:50:19Z</time>
      </trkpt>
      <trkpt lat="49.17511" lon="6.81298">
        <ele>286.6</ele>
        <time>2014-04-02T07:50:29Z</time>
      </trkpt>
      <trkpt lat="49.17513" lon="6.81295">
        <ele>284.9</ele>
        <time>2014-04-02T07:50:34Z</time>
      </trkpt>
      <trkpt lat="49.17515" lon="6.81291">
        <ele>284.3</ele>
        <time>2014-04-02T07:50:39Z</time>
      </trkpt>
      <trkpt lat="49.17518" lon="6.81287">
        <ele>284.1</ele>
        <time>2014-04-02T07:50:44Z</time>
      </trkpt>
      <trkpt lat="49.17516" lon="6.81282">
        <ele>282.1</ele>
        <time>2014-04-02T07:50:49Z</time>
      </trkpt>
      <trkpt lat="49.17512" lon="6.81281">
        <ele>282.5</ele>
        <time>2014-04-02T07:50:54Z</time>
      </trkpt>
      <trkpt lat="49.17508" lon="6.81281">
        <ele>282.1</ele>
        <time>2014-04-02T07:50:59Z</time>
      </trkpt>
      <trkpt lat="49.17504" lon="6.81279">
        <ele>280.5</ele>
        <time>2014-04-02T07:51:04Z</time>
      </trkpt>
      <trkpt lat="49.17507" lon="6.81277">
        <ele>280</ele>
        <time>2014-04-02T07:51:09Z</time>
      </trkpt>
      <trkpt lat="49.1751" lon="6.81276">
        <ele>279.5</ele>
        <time>2014-04-02T07:51:14Z</time>
      </trkpt>
      <trkpt lat="49.1751" lon="6.81271">
        <ele>278</ele>
        <time>2014-04-02T07:51:19Z</time>
      </trkpt>
      <trkpt lat="49.17508" lon="6.81271">
        <ele>276.5</ele>
        <time>2014-04-02T07:51:24Z</time>
      </trkpt>
      <trkpt lat="49.17501" lon="6.81273">
        <ele>276.2</ele>
        <time>2014-04-02T07:51:34Z</time>
      </trkpt>
      <trkpt lat="49.17499" lon="6.81271">
        <ele>276</ele>
        <time>2014-04-02T07:51:39Z</time>
      </trkpt>
      <trkpt lat="49.17502" lon="6.81268">
        <ele>275.3</ele>
        <time>2014-04-02T07:51:44Z</time>
      </trkpt>
      <trkpt lat="49.17506" lon="6.81264">
        <ele>273.7</ele>
        <time>2014-04-02T07:51:49Z</time>
      </trkpt>
      <trkpt lat="49.17509" lon="6.8126">
        <ele>273.6</ele>
        <time>2014-04-02T07:51:54Z</time>
      </trkpt>
      <trkpt lat="49.17505" lon="6.81256">
        <ele>272.4</ele>
        <time>2014-04-02T07:51:59Z</time>
      </trkpt>
      <trkpt lat="49.175" lon="6.81255">
        <ele>271</ele>
        <time>2014-04-02T07:52:04Z</time>
      </trkpt>
      <trkpt lat="49.17495" lon="6.81255">
        <ele>270</ele>
        <time>2014-04-02T07:52:09Z</time>
      </trkpt>
      <trkpt lat="49.17494" lon="6.8125">
        <ele>269.6</ele>
        <time>2014-04-02T07:52:14Z</time>
      </trkpt>
      <trkpt lat="49.17495" lon="6.81248">
        <ele>269</ele>
        <time>2014-04-02T07:52:19Z</time>
      </trkpt>
      <trkpt lat="49.17495" lon="6.81248">
        <ele>268.9</ele>
        <time>2014-04-02T07:52:24Z</time>
      </trkpt>
      <trkpt lat="49.17495" lon="6.81246">
        <ele>269</ele>
        <time>2014-04-02T07:52:29Z</time>
      </trkpt>
      <trkpt lat="49.175" lon="6.81241">
        <ele>268</ele>
        <time>2014-04-02T07:52:39Z</time>
      </trkpt>
      <trkpt lat="49.17501" lon="6.81235">
        <ele>267.1</ele>
        <time>2014-04-02T07:52:44Z</time>
      </trkpt>
      <trkpt lat="49.17497" lon="6.81233">
        <ele>265.6</ele>
        <time>2014-04-02T07:52:49Z</time>
      </trkpt>
      <trkpt lat="49.17492" lon="6.81234">
        <ele>264.6</ele>
        <time>2014-04-02T07:52:54Z</time>
      </trkpt>
      <trkpt lat="49.17487" lon="6.81236">
        <ele>263.7</ele>
        <time>2014-04-02T07:52:59Z</time>
      </trkpt>
      <trkpt lat="49.17482" lon="6.81235">
        <ele>263.3</ele>
        <time>2014-04-02T07:53:04Z</time>
      </trkpt>
      <trkpt lat="49.17483" lon="6.81229">
        <ele>264.2</ele>
        <time>2014-04-02T07:53:09Z</time>
      </trkpt>
      <trkpt lat="49.17486" lon="6.81224">
        <ele>263</ele>
        <time>2014-04-02T07:53:14Z</time>
      </trkpt>
      <trkpt lat="49.17488" lon="6.8122">
        <ele>261.4</ele>
        <time>2014-04-02T07:53:19Z</time>
      </trkpt>
      <trkpt lat="49.1749" lon="6.81215">
        <ele>260.8</ele>
        <time>2014-04-02T07:53:24Z</time>
      </trkpt>
      <trkpt lat="49.1749" lon="6.81209">
        <ele>260.6</ele>
        <time>2014-04-02T07:53:29Z</time>
      </trkpt>
      <trkpt lat="49.17489" lon="6.81206">
        <ele>260.2</ele>
        <time>2014-04-02T07:53:34Z</time>
      </trkpt>
      <trkpt lat="49.17488" lon="6.81196">
        <ele>259.6</ele>
        <time>2014-04-02T07:53:44Z</time>
      </trkpt>
      <trkpt lat="49.17487" lon="6.81194">
        <ele>259.7</ele>
        <time>2014-04-02T07:53:49Z</time>
      </trkpt>
      <trkpt lat="49.17486" lon="6.81192">
        <ele>259.1</ele>
        <time>2014-04-02T07:53:54Z</time>
      </trkpt>
      <trkpt lat="49.17484" lon="6.81189">
        <ele>258.8</ele>
        <time>2014-04-02T07:53:59Z</time>
      </trkpt>
      <trkpt lat="49.17484" lon="6.81188">
        <ele>257.7</ele>
        <time>2014-04-02T07:54:04Z</time>
      </trkpt>
      <trkpt lat="49.17484" lon="6.81187">
        <ele>258.1</ele>
        <time>2014-04-02T07:54:09Z</time>
      </trkpt>
      <trkpt lat="49.17483" lon="6.81186">
        <ele>257.4</ele>
        <time>2014-04-02T07:54:14Z</time>
      </trkpt>
      <trkpt lat="49.17482" lon="6.81182">
        <ele>256.7</ele>
        <time>2014-04-02T07:54:19Z</time>
      </trkpt>
      <trkpt lat="49.17479" lon="6.81177">
        <ele>255.4</ele>
        <time>2014-04-02T07:54:24Z</time>
      </trkpt>
      <trkpt lat="49.17476" lon="6.81171">
        <ele>255</ele>
        <time>2014-04-02T07:54:29Z</time>
      </trkpt>
      <trkpt lat="49.17472" lon="6.81164">
        <ele>255.1</ele>
        <time>2014-04-02T07:54:34Z</time>
      </trkpt>
      <trkpt lat="49.17468" lon="6.81158">
        <ele>254.2</ele>
        <time>2014-04-02T07:54:39Z</time>
      </trkpt>
      <trkpt lat="49.1746" lon="6.81145">
        <ele>254</ele>
        <time>2014-04-02T07:54:49Z</time>
      </trkpt>
      <trkpt lat="49.17461" lon="6.81139">
        <ele>253.4</ele>
        <time>2014-04-02T07:54:54Z</time>
      </trkpt>
      <trkpt lat="49.17464" lon="6.81136">
        <ele>252.4</ele>
        <time>2014-04-02T07:54:59Z</time>
      </trkpt>
      <trkpt lat="49.17466" lon="6.81132">
        <ele>252.6</ele>
        <time>2014-04-02T07:55:04Z</time>
      </trkpt>
      <trkpt lat="49.17467" lon="6.81125">
        <ele>251.6</ele>
        <time>2014-04-02T07:55:09Z</time>
      </trkpt>
      <trkpt lat="49.17465" lon="6.8112">
        <ele>250.1</ele>
        <time>2014-04-02T07:55:14Z</time>
      </trkpt>
      <trkpt lat="49.17464" lon="6.81117">
        <ele>249.2</ele>
        <time>2014-04-02T07:55:19Z</time>
      </trkpt>
      <trkpt lat="49.17464" lon="6.81114">
        <ele>250</ele>
        <time>2014-04-02T07:55:24Z</time>
      </trkpt>
      <trkpt lat="49.17463" lon="6.8111">
        <ele>247.5</ele>
        <time>2014-04-02T07:55:29Z</time>
      </trkpt>
      <trkpt lat="49.17459" lon="6.81104">
        <ele>247.8</ele>
        <time>2014-04-02T07:55:34Z</time>
      </trkpt>
      <trkpt lat="49.17455" lon="6.811">
        <ele>247.9</ele>
        <time>2014-04-02T07:55:39Z</time>
      </trkpt>
      <trkpt lat="49.17453" lon="6.81097">
        <ele>247.7</ele>
        <time>2014-04-02T07:55:44Z</time>
      </trkpt>
      <trkpt lat="49.17453" lon="6.81094">
        <ele>246.8</ele>
        <time>2014-04-02T07:55:54Z</time>
      </trkpt>
      <trkpt lat="49.17453" lon="6.81094">
        <ele>247.5</ele>
        <time>2014-04-02T07:55:59Z</time>
      </trkpt>
      <trkpt lat="49.17454" lon="6.81094">
        <ele>247.6</ele>
        <time>2014-04-02T07:56:04Z</time>
      </trkpt>
      <trkpt lat="49.17453" lon="6.81093">
        <ele>246.9</ele>
        <time>2014-04-02T07:56:09Z</time>
      </trkpt>
      <trkpt lat="49.17454" lon="6.81092">
        <ele>247</ele>
        <time>2014-04-02T07:56:14Z</time>
      </trkpt>
      <trkpt lat="49.17454" lon="6.81092">
        <ele>246.8</ele>
        <time>2014-04-02T07:56:19Z</time>
      </trkpt>
      <trkpt lat="49.17455" lon="6.81093">
        <ele>245.6</ele>
        <time>2014-04-02T07:56:24Z</time>
      </trkpt>
      <trkpt lat="49.17456" lon="6.81095">
        <ele>246.9</ele>
        <time>2014-04-02T07:56:29Z</time>
      </trkpt>
      <trkpt lat="49.17456" lon="6.81096">
        <ele>246.9</ele>
        <time>2014-04-02T07:56:34Z</time>
      </trkpt>
      <trkpt lat="49.17456" lon="6.81097">
        <ele>246.6</ele>
        <time>2014-04-02T07:56:39Z</time>
      </trkpt>
      <trkpt lat="49.17456" lon="6.81098">
        <ele>246.8</ele>
        <time>2014-04-02T07:56:44Z</time>
      </trkpt>
      <trkpt lat="49.17456" lon="6.81099">
        <ele>247</ele>
        <time>2014-04-02T07:56:49Z</time>
      </trkpt>
      <trkpt lat="49.17455" lon="6.81099">
        <ele>246.5</ele>
        <time>2014-04-02T07:56:59Z</time>
      </trkpt>
      <trkpt lat="49.17455" lon="6.81099">
        <ele>246.3</ele>
        <time>2014-04-02T07:57:04Z</time>
      </trkpt>
      <trkpt lat="49.17456" lon="6.81099">
        <ele>246.2</ele>
        <time>2014-04-02T07:57:09Z</time>
      </trkpt>
      <trkpt lat="49.17455" lon="6.81101">
        <ele>246.4</ele>
        <time>2014-04-02T07:57:14Z</time>
      </trkpt>
      <trkpt lat="49.17454" lon="6.81102">
        <ele>245.9</ele>
        <time>2014-04-02T07:57:19Z</time>
      </trkpt>
      <trkpt lat="49.17452" lon="6.81102">
        <ele>246.2</ele>
        <time>2014-04-02T07:57:24Z</time>
      </trkpt>
      <trkpt lat="49.17451" lon="6.811">
        <ele>246.3</ele>
        <time>2014-04-02T07:57:29Z</time>
      </trkpt>
      <trkpt lat="49.17452" lon="6.81099">
        <ele>246</ele>
        <time>2014-04-02T07:57:34Z</time>
      </trkpt>
      <trkpt lat="49.17454" lon="6.81096">
        <ele>243.8</ele>
        <time>2014-04-02T07:57:39Z</time>
      </trkpt>
      <trkpt lat="49.17457" lon="6.81093">
        <ele>243.2</ele>
        <time>2014-04-02T07:57:44Z</time>
      </trkpt>
      <trkpt lat="49.17459" lon="6.81089">
        <ele>241.9</ele>
        <time>2014-04-02T07:57:49Z</time>
      </trkpt>
      <trkpt lat="49.17461" lon="6.81084">
        <ele>241.7</ele>
        <time>2014-04-02T07:57:54Z</time>
      </trkpt>
      <trkpt lat="49.17456" lon="6.81066">
        <ele>239.7</ele>
        <time>2014-04-02T07:58:04Z</time>
      </trkpt>
      <trkpt lat="49.17454" lon="6.81058">
        <ele>240</ele>
        <time>2014-04-02T07:58:09Z</time>
      </trkpt>
      <trkpt lat="49.17454" lon="6.81055">
        <ele>240.3</ele>
        <time>2014-04-02T07:58:14Z</time>
      </trkpt>
      <trkpt lat="49.17454" lon="6.81053">
        <ele>240.5</ele>
        <time>2014-04-02T07:58:19Z</time>
      </trkpt>
      <trkpt lat="49.17454" lon="6.81051">
        <ele>239.7</ele>
        <time>2014-04-02T07:58:24Z</time>
      </trkpt>
      <trkpt lat="49.17455" lon="6.81047">
        <ele>239.3</ele>
        <time>2014-04-02T07:58:29Z</time>
      </trkpt>
      <trkpt lat="49.17454" lon="6.8104">
        <ele>239.5</ele>
        <time>2014-04-02T07:58:34Z</time>
      </trkpt>
      <trkpt lat="49.17451" lon="6.81032">
        <ele>239</ele>
        <time>2014-04-02T07:58:39Z</time>
      </trkpt>
      <trkpt lat="49.17448" lon="6.81026">
        <ele>238.4</ele>
        <time>2014-04-02T07:58:44Z</time>
      </trkpt>
      <trkpt lat="49.17444" lon="6.8102">
        <ele>238.9</ele>
        <time>2014-04-02T07:58:49Z</time>
      </trkpt>
      <trkpt lat="49.1744" lon="6.81015">
        <ele>238.7</ele>
        <time>2014-04-02T07:58:54Z</time>
      </trkpt>
      <trkpt lat="49.17435" lon="6.81008">
        <ele>238.1</ele>
        <time>2014-04-02T07:58:59Z</time>
      </trkpt>
      <trkpt lat="49.17425" lon="6.81003">
        <ele>236.8</ele>
        <time>2014-04-02T07:59:09Z</time>
      </trkpt>
      <trkpt lat="49.17421" lon="6.81005">
        <ele>237.3</ele>
        <time>2014-04-02T07:59:14Z</time>
      </trkpt>
      <trkpt lat="49.17419" lon="6.8101">
        <ele>237.5</ele>
        <time>2014-04-02T07:59:19Z</time>
      </trkpt>
      <trkpt lat="49.17416" lon="6.81011">
        <ele>237.7</ele>
        <time>2014-04-02T07:59:24Z</time>
      </trkpt>
      <trkpt lat="49.17411" lon="6.8101">
        <ele>236.5</ele>
        <time>2014-04-02T07:59:29Z</time>
      </trkpt>
      <trkpt lat="49.17407" lon="6.81011">
        <ele>237.4</ele>
        <time>2014-04-02T07:59:34Z</time>
      </trkpt>
      <trkpt lat="49.17403" lon="6.81011">
        <ele>236.9</ele>
        <time>2014-04-02T07:59:39Z</time>
      </trkpt>
      <trkpt lat="49.17401" lon="6.8101">
        <ele>237.2</ele>
        <time>2014-04-02T07:59:44Z</time>
      </trkpt>
      <trkpt lat="49.174" lon="6.8101">
        <ele>237.6</ele>
        <time>2014-04-02T07:59:49Z</time>
      </trkpt>
      <trkpt lat="49.17399" lon="6.8101">
        <ele>236.8</ele>
        <time>2014-04-02T07:59:54Z</time>
      </trkpt>
      <trkpt lat="49.17398" lon="6.8101">
        <ele>236.2</ele>
        <time>2014-04-02T07:59:59Z</time>
      </trkpt>
      <trkpt lat="49.17397" lon="6.81009">
        <ele>236.6</ele>
        <time>2014-04-02T08:00:04Z</time>
      </trkpt>
      <trkpt lat="49.17396" lon="6.81009">
        <ele>237</ele>
        <time>2014-04-02T08:00:14Z</time>
      </trkpt>
      <trkpt lat="49.17395" lon="6.81009">
        <ele>236.3</ele>
        <time>2014-04-02T08:00:19Z</time>
      </trkpt>
      <trkpt lat="49.1739" lon="6.81008">
        <ele>235.5</ele>
        <time>2014-04-02T08:00:24Z</time>
      </trkpt>
      <trkpt lat="49.17387" lon="6.81005">
        <ele>234.8</ele>
        <time>2014-04-02T08:00:29Z</time>
      </trkpt>
      <trkpt lat="49.17383" lon="6.81003">
        <ele>235.2</ele>
        <time>2014-04-02T08:00:34Z</time>
      </trkpt>
      <trkpt lat="49.17379" lon="6.81002">
        <ele>235.6</ele>
        <time>2014-04-02T08:00:39Z</time>
      </trkpt>
      <trkpt lat="49.17375" lon="6.81002">
        <ele>235.3</ele>
        <time>2014-04-02T08:00:44Z</time>
      </trkpt>
      <trkpt lat="49.17368" lon="6.81005">
        <ele>235.1</ele>
        <time>2014-04-02T08:00:49Z</time>
      </trkpt>
      <trkpt lat="49.17364" lon="6.81007">
        <ele>235</ele>
        <time>2014-04-02T08:00:54Z</time>
      </trkpt>
      <trkpt lat="49.17358" lon="6.8101">
        <ele>235.1</ele>
        <time>2014-04-02T08:00:59Z</time>
      </trkpt>
      <trkpt lat="49.17352" lon="6.81013">
        <ele>234.2</ele>
        <time>2014-04-02T08:01:04Z</time>
      </trkpt>
      <trkpt lat="49.17347" lon="6.81016">
        <ele>234.2</ele>
        <time>2014-04-02T08:01:09Z</time>
      </trkpt>
      <trkpt lat="49.1734" lon="6.81031">
        <ele>234.1</ele>
        <time>2014-04-02T08:01:19Z</time>
      </trkpt>
      <trkpt lat="49.17337" lon="6.81039">
        <ele>234</ele>
        <time>2014-04-02T08:01:24Z</time>
      </trkpt>
      <trkpt lat="49.17334" lon="6.8104">
        <ele>233.2</ele>
        <time>2014-04-02T08:01:29Z</time>
      </trkpt>
      <trkpt lat="49.17334" lon="6.81041">
        <ele>234.1</ele>
        <time>2014-04-02T08:01:34Z</time>
      </trkpt>
      <trkpt lat="49.17332" lon="6.81043">
        <ele>233.9</ele>
        <time>2014-04-02T08:01:39Z</time>
      </trkpt>
      <trkpt lat="49.1733" lon="6.81044">
        <ele>232.6</ele>
        <time>2014-04-02T08:01:44Z</time>
      </trkpt>
      <trkpt lat="49.1733" lon="6.81049">
        <ele>233</ele>
        <time>2014-04-02T08:01:49Z</time>
      </trkpt>
      <trkpt lat="49.17328" lon="6.81055">
        <ele>233.4</ele>
        <time>2014-04-02T08:01:54Z</time>
      </trkpt>
      <trkpt lat="49.17325" lon="6.8106">
        <ele>233.3</ele>
        <time>2014-04-02T08:01:59Z</time>
      </trkpt>
      <trkpt lat="49.17323" lon="6.81065">
        <ele>233.1</ele>
        <time>2014-04-02T08:02:04Z</time>
      </trkpt>
      <trkpt lat="49.17319" lon="6.81069">
        <ele>234.3</ele>
        <time>2014-04-02T08:02:09Z</time>
      </trkpt>
      <trkpt lat="49.17314" lon="6.81071">
        <ele>234.6</ele>
        <time>2014-04-02T08:02:14Z</time>
      </trkpt>
      <trkpt lat="49.17303" lon="6.81077">
        <ele>234</ele>
        <time>2014-04-02T08:02:24Z</time>
      </trkpt>
      <trkpt lat="49.17298" lon="6.81081">
        <ele>233.5</ele>
        <time>2014-04-02T08:02:29Z</time>
      </trkpt>
      <trkpt lat="49.17293" lon="6.81084">
        <ele>235</ele>
        <time>2014-04-02T08:02:34Z</time>
      </trkpt>
      <trkpt lat="49.17288" lon="6.81088">
        <ele>234</ele>
        <time>2014-04-02T08:02:39Z</time>
      </trkpt>
      <trkpt lat="49.17283" lon="6.81091">
        <ele>234.3</ele>
        <time>2014-04-02T08:02:44Z</time>
      </trkpt>
      <trkpt lat="49.17278" lon="6.81094">
        <ele>234</ele>
        <time>2014-04-02T08:02:49Z</time>
      </trkpt>
      <trkpt lat="49.17272" lon="6.81096">
        <ele>235</ele>
        <time>2014-04-02T08:02:54Z</time>
      </trkpt>
      <trkpt lat="49.17266" lon="6.81097">
        <ele>235.4</ele>
        <time>2014-04-02T08:02:59Z</time>
      </trkpt>
      <trkpt lat="49.17261" lon="6.81096">
        <ele>236.3</ele>
        <time>2014-04-02T08:03:04Z</time>
      </trkpt>
      <trkpt lat="49.17258" lon="6.81096">
        <ele>236.8</ele>
        <time>2014-04-02T08:03:09Z</time>
      </trkpt>
      <trkpt lat="49.17255" lon="6.81095">
        <ele>237.2</ele>
        <time>2014-04-02T08:03:14Z</time>
      </trkpt>
      <trkpt lat="49.17252" lon="6.81095">
        <ele>236.9</ele>
        <time>2014-04-02T08:03:19Z</time>
      </trkpt>
      <trkpt lat="49.17242" lon="6.81096">
        <ele>236</ele>
        <time>2014-04-02T08:03:29Z</time>
      </trkpt>
      <trkpt lat="49.17239" lon="6.81097">
        <ele>236</ele>
        <time>2014-04-02T08:03:34Z</time>
      </trkpt>
      <trkpt lat="49.17236" lon="6.81098">
        <ele>236.7</ele>
        <time>2014-04-02T08:03:39Z</time>
      </trkpt>
      <trkpt lat="49.17233" lon="6.81097">
        <ele>237.8</ele>
        <time>2014-04-02T08:03:44Z</time>
      </trkpt>
      <trkpt lat="49.17231" lon="6.81096">
        <ele>238.5</ele>
        <time>2014-04-02T08:03:49Z</time>
      </trkpt>
      <trkpt lat="49.1723" lon="6.81095">
        <ele>238.8</ele>
        <time>2014-04-02T08:03:54Z</time>
      </trkpt>
      <trkpt lat="49.17229" lon="6.81092">
        <ele>237.6</ele>
        <time>2014-04-02T08:03:59Z</time>
      </trkpt>
      <trkpt lat="49.17224" lon="6.8109">
        <ele>237.9</ele>
        <time>2014-04-02T08:04:04Z</time>
      </trkpt>
      <trkpt lat="49.17219" lon="6.81086">
        <ele>238.9</ele>
        <time>2014-04-02T08:04:09Z</time>
      </trkpt>
      <trkpt lat="49.17214" lon="6.81084">
        <ele>240.1</ele>
        <time>2014-04-02T08:04:14Z</time>
      </trkpt>
      <trkpt lat="49.17209" lon="6.81082">
        <ele>240.7</ele>
        <time>2014-04-02T08:04:19Z</time>
      </trkpt>
      <trkpt lat="49.17203" lon="6.81077">
        <ele>240.3</ele>
        <time>2014-04-02T08:04:24Z</time>
      </trkpt>
      <trkpt lat="49.17193" lon="6.81072">
        <ele>240.1</ele>
        <time>2014-04-02T08:04:34Z</time>
      </trkpt>
      <trkpt lat="49.17189" lon="6.8107">
        <ele>240.5</ele>
        <time>2014-04-02T08:04:39Z</time>
      </trkpt>
      <trkpt lat="49.17184" lon="6.81068">
        <ele>239.8</ele>
        <time>2014-04-02T08:04:44Z</time>
      </trkpt>
      <trkpt lat="49.17179" lon="6.81065">
        <ele>239.3</ele>
        <time>2014-04-02T08:04:49Z</time>
      </trkpt>
      <trkpt lat="49.17174" lon="6.81061">
        <ele>238.6</ele>
        <time>2014-04-02T08:04:54Z</time>
      </trkpt>
      <trkpt lat="49.17168" lon="6.81058">
        <ele>239.3</ele>
        <time>2014-04-02T08:04:59Z</time>
      </trkpt>
      <trkpt lat="49.17163" lon="6.81054">
        <ele>241.1</ele>
        <time>2014-04-02T08:05:04Z</time>
      </trkpt>
      <trkpt lat="49.17158" lon="6.81049">
        <ele>241.9</ele>
        <time>2014-04-02T08:05:09Z</time>
      </trkpt>
      <trkpt lat="49.17153" lon="6.81045">
        <ele>242</ele>
        <time>2014-04-02T08:05:14Z</time>
      </trkpt>
      <trkpt lat="49.17149" lon="6.81041">
        <ele>242.6</ele>
        <time>2014-04-02T08:05:19Z</time>
      </trkpt>
      <trkpt lat="49.17144" lon="6.81036">
        <ele>242.3</ele>
        <time>2014-04-02T08:05:24Z</time>
      </trkpt>
      <trkpt lat="49.17139" lon="6.81031">
        <ele>241.8</ele>
        <time>2014-04-02T08:05:29Z</time>
      </trkpt>
      <trkpt lat="49.17132" lon="6.81022">
        <ele>241.9</ele>
        <time>2014-04-02T08:05:39Z</time>
      </trkpt>
      <trkpt lat="49.17128" lon="6.81017">
        <ele>241.8</ele>
        <time>2014-04-02T08:05:44Z</time>
      </trkpt>
      <trkpt lat="49.17123" lon="6.8101">
        <ele>242.9</ele>
        <time>2014-04-02T08:05:49Z</time>
      </trkpt>
      <trkpt lat="49.17118" lon="6.81004">
        <ele>244</ele>
        <time>2014-04-02T08:05:54Z</time>
      </trkpt>
      <trkpt lat="49.17114" lon="6.80997">
        <ele>243.4</ele>
        <time>2014-04-02T08:05:59Z</time>
      </trkpt>
      <trkpt lat="49.17111" lon="6.80991">
        <ele>243.1</ele>
        <time>2014-04-02T08:06:04Z</time>
      </trkpt>
      <trkpt lat="49.17107" lon="6.80984">
        <ele>243.5</ele>
        <time>2014-04-02T08:06:09Z</time>
      </trkpt>
      <trkpt lat="49.17103" lon="6.80977">
        <ele>243.3</ele>
        <time>2014-04-02T08:06:14Z</time>
      </trkpt>
      <trkpt lat="49.17098" lon="6.80969">
        <ele>243.5</ele>
        <time>2014-04-02T08:06:19Z</time>
      </trkpt>
      <trkpt lat="49.17094" lon="6.80963">
        <ele>243.4</ele>
        <time>2014-04-02T08:06:24Z</time>
      </trkpt>
      <trkpt lat="49.17089" lon="6.80956">
        <ele>243.5</ele>
        <time>2014-04-02T08:06:29Z</time>
      </trkpt>
      <trkpt lat="49.17084" lon="6.80948">
        <ele>243.2</ele>
        <time>2014-04-02T08:06:34Z</time>
      </trkpt>
      <trkpt lat="49.17076" lon="6.80931">
        <ele>243.2</ele>
        <time>2014-04-02T08:06:44Z</time>
      </trkpt>
      <trkpt lat="49.17072" lon="6.80923">
        <ele>243.1</ele>
        <time>2014-04-02T08:06:49Z</time>
      </trkpt>
      <trkpt lat="49.1707" lon="6.80916">
        <ele>243.6</ele>
        <time>2014-04-02T08:06:54Z</time>
      </trkpt>
      <trkpt lat="49.17068" lon="6.80907">
        <ele>244</ele>
        <time>2014-04-02T08:06:59Z</time>
      </trkpt>
      <trkpt lat="49.17066" lon="6.80898">
        <ele>244.7</ele>
        <time>2014-04-02T08:07:04Z</time>
      </trkpt>
      <trkpt lat="49.17064" lon="6.8089">
        <ele>245.2</ele>
        <time>2014-04-02T08:07:09Z</time>
      </trkpt>
      <trkpt lat="49.17061" lon="6.80883">
        <ele>244</ele>
        <time>2014-04-02T08:07:14Z</time>
      </trkpt>
      <trkpt lat="49.17058" lon="6.80876">
        <ele>244.2</ele>
        <time>2014-04-02T08:07:19Z</time>
      </trkpt>
      <trkpt lat="49.17054" lon="6.80868">
        <ele>243.7</ele>
        <time>2014-04-02T08:07:24Z</time>
      </trkpt>
      <trkpt lat="49.17052" lon="6.80861">
        <ele>244</ele>
        <time>2014-04-02T08:07:29Z</time>
      </trkpt>
      <trkpt lat="49.1705" lon="6.80854">
        <ele>244.9</ele>
        <time>2014-04-02T08:07:34Z</time>
      </trkpt>
      <trkpt lat="49.17048" lon="6.80845">
        <ele>244.4</ele>
        <time>2014-04-02T08:07:39Z</time>
      </trkpt>
      <trkpt lat="49.17042" lon="6.80831">
        <ele>244.8</ele>
        <time>2014-04-02T08:07:49Z</time>
      </trkpt>
      <trkpt lat="49.17038" lon="6.80824">
        <ele>245</ele>
        <time>2014-04-02T08:07:54Z</time>
      </trkpt>
      <trkpt lat="49.17034" lon="6.80817">
        <ele>245.5</ele>
        <time>2014-04-02T08:07:59Z</time>
      </trkpt>
      <trkpt lat="49.17031" lon="6.80809">
        <ele>245.1</ele>
        <time>2014-04-02T08:08:04Z</time>
      </trkpt>
      <trkpt lat="49.17028" lon="6.80801">
        <ele>245.1</ele>
        <time>2014-04-02T08:08:09Z</time>
      </trkpt>
      <trkpt lat="49.17024" lon="6.80792">
        <ele>244.8</ele>
        <time>2014-04-02T08:08:14Z</time>
      </trkpt>
      <trkpt lat="49.1702" lon="6.80784">
        <ele>246.3</ele>
        <time>2014-04-02T08:08:19Z</time>
      </trkpt>
      <trkpt lat="49.17016" lon="6.80774">
        <ele>246.7</ele>
        <time>2014-04-02T08:08:24Z</time>
      </trkpt>
      <trkpt lat="49.17013" lon="6.80764">
        <ele>246.9</ele>
        <time>2014-04-02T08:08:29Z</time>
      </trkpt>
      <trkpt lat="49.17011" lon="6.80754">
        <ele>248</ele>
        <time>2014-04-02T08:08:34Z</time>
      </trkpt>
      <trkpt lat="49.17008" lon="6.80744">
        <ele>247.6</ele>
        <time>2014-04-02T08:08:39Z</time>
      </trkpt>
      <trkpt lat="49.17005" lon="6.80736">
        <ele>247.6</ele>
        <time>2014-04-02T08:08:44Z</time>
      </trkpt>
      <trkpt lat="49.17001" lon="6.80722">
        <ele>247.7</ele>
        <time>2014-04-02T08:08:54Z</time>
      </trkpt>
      <trkpt lat="49.16999" lon="6.80714">
        <ele>248.6</ele>
        <time>2014-04-02T08:08:59Z</time>
      </trkpt>
      <trkpt lat="49.16997" lon="6.80706">
        <ele>247.8</ele>
        <time>2014-04-02T08:09:04Z</time>
      </trkpt>
      <trkpt lat="49.16994" lon="6.80697">
        <ele>247.4</ele>
        <time>2014-04-02T08:09:09Z</time>
      </trkpt>
      <trkpt lat="49.16993" lon="6.80688">
        <ele>248</ele>
        <time>2014-04-02T08:09:14Z</time>
      </trkpt>
      <trkpt lat="49.16991" lon="6.80679">
        <ele>248.9</ele>
        <time>2014-04-02T08:09:19Z</time>
      </trkpt>
      <trkpt lat="49.16989" lon="6.8067">
        <ele>248.8</ele>
        <time>2014-04-02T08:09:24Z</time>
      </trkpt>
      <trkpt lat="49.16987" lon="6.80662">
        <ele>248.5</ele>
        <time>2014-04-02T08:09:29Z</time>
      </trkpt>
      <trkpt lat="49.16985" lon="6.80653">
        <ele>248.2</ele>
        <time>2014-04-02T08:09:34Z</time>
      </trkpt>
      <trkpt lat="49.16985" lon="6.80645">
        <ele>249.3</ele>
        <time>2014-04-02T08:09:39Z</time>
      </trkpt>
      <trkpt lat="49.16985" lon="6.80636">
        <ele>249.4</ele>
        <time>2014-04-02T08:09:44Z</time>
      </trkpt>
      <trkpt lat="49.16985" lon="6.80628">
        <ele>249.9</ele>
        <time>2014-04-02T08:09:49Z</time>
      </trkpt>
      <trkpt lat="49.16986" lon="6.80609">
        <ele>252.1</ele>
        <time>2014-04-02T08:09:59Z</time>
      </trkpt>
      <trkpt lat="49.16986" lon="6.80599">
        <ele>253</ele>
        <time>2014-04-02T08:10:04Z</time>
      </trkpt>
      <trkpt lat="49.16986" lon="6.80591">
        <ele>253</ele>
        <time>2014-04-02T08:10:09Z</time>
      </trkpt>
      <trkpt lat="49.16986" lon="6.80583">
        <ele>252</ele>
        <time>2014-04-02T08:10:14Z</time>
      </trkpt>
      <trkpt lat="49.16986" lon="6.80574">
        <ele>252.7</ele>
        <time>2014-04-02T08:10:19Z</time>
      </trkpt>
      <trkpt lat="49.16987" lon="6.80567">
        <ele>252.4</ele>
        <time>2014-04-02T08:10:24Z</time>
      </trkpt>
      <trkpt lat="49.16989" lon="6.80562">
        <ele>253.4</ele>
        <time>2014-04-02T08:10:29Z</time>
      </trkpt>
      <trkpt lat="49.1699" lon="6.80555">
        <ele>253.6</ele>
        <time>2014-04-02T08:10:34Z</time>
      </trkpt>
      <trkpt lat="49.16991" lon="6.80549">
        <ele>254</ele>
        <time>2014-04-02T08:10:39Z</time>
      </trkpt>
      <trkpt lat="49.16993" lon="6.80543">
        <ele>254.9</ele>
        <time>2014-04-02T08:10:44Z</time>
      </trkpt>
      <trkpt lat="49.16993" lon="6.80536">
        <ele>255.2</ele>
        <time>2014-04-02T08:10:49Z</time>
      </trkpt>
      <trkpt lat="49.16994" lon="6.80528">
        <ele>255.6</ele>
        <time>2014-04-02T08:10:54Z</time>
      </trkpt>
      <trkpt lat="49.16997" lon="6.80511">
        <ele>255.7</ele>
        <time>2014-04-02T08:11:04Z</time>
      </trkpt>
      <trkpt lat="49.16998" lon="6.80502">
        <ele>255.9</ele>
        <time>2014-04-02T08:11:09Z</time>
      </trkpt>
      <trkpt lat="49.16998" lon="6.80492">
        <ele>256.4</ele>
        <time>2014-04-02T08:11:14Z</time>
      </trkpt>
      <trkpt lat="49.16998" lon="6.80483">
        <ele>258.1</ele>
        <time>2014-04-02T08:11:19Z</time>
      </trkpt>
      <trkpt lat="49.16998" lon="6.80474">
        <ele>258.3</ele>
        <time>2014-04-02T08:11:24Z</time>
      </trkpt>
      <trkpt lat="49.16998" lon="6.80464">
        <ele>259.1</ele>
        <time>2014-04-02T08:11:29Z</time>
      </trkpt>
      <trkpt lat="49.16998" lon="6.80457">
        <ele>258.6</ele>
        <time>2014-04-02T08:11:34Z</time>
      </trkpt>
      <trkpt lat="49.16998" lon="6.80449">
        <ele>259.3</ele>
        <time>2014-04-02T08:11:39Z</time>
      </trkpt>
      <trkpt lat="49.16997" lon="6.80441">
        <ele>258.9</ele>
        <time>2014-04-02T08:11:44Z</time>
      </trkpt>
      <trkpt lat="49.16994" lon="6.80434">
        <ele>259.3</ele>
        <time>2014-04-02T08:11:49Z</time>
      </trkpt>
      <trkpt lat="49.16991" lon="6.80426">
        <ele>259.6</ele>
        <time>2014-04-02T08:11:54Z</time>
      </trkpt>
      <trkpt lat="49.16986" lon="6.80419">
        <ele>260</ele>
        <time>2014-04-02T08:11:59Z</time>
      </trkpt>
      <trkpt lat="49.16975" lon="6.80401">
        <ele>260.9</ele>
        <time>2014-04-02T08:12:09Z</time>
      </trkpt>
      <trkpt lat="49.16972" lon="6.80393">
        <ele>260.5</ele>
        <time>2014-04-02T08:12:14Z</time>
      </trkpt>
      <trkpt lat="49.16968" lon="6.80385">
        <ele>261.1</ele>
        <time>2014-04-02T08:12:19Z</time>
      </trkpt>
      <trkpt lat="49.16965" lon="6.80377">
        <ele>261.7</ele>
        <time>2014-04-02T08:12:24Z</time>
      </trkpt>
      <trkpt lat="49.16962" lon="6.80369">
        <ele>261.9</ele>
        <time>2014-04-02T08:12:29Z</time>
      </trkpt>
      <trkpt lat="49.16958" lon="6.8036">
        <ele>262.8</ele>
        <time>2014-04-02T08:12:34Z</time>
      </trkpt>
      <trkpt lat="49.16955" lon="6.80353">
        <ele>263.7</ele>
        <time>2014-04-02T08:12:39Z</time>
      </trkpt>
      <trkpt lat="49.16951" lon="6.80345">
        <ele>263.6</ele>
        <time>2014-04-02T08:12:44Z</time>
      </trkpt>
      <trkpt lat="49.16948" lon="6.80337">
        <ele>263.9</ele>
        <time>2014-04-02T08:12:49Z</time>
      </trkpt>
      <trkpt lat="49.16943" lon="6.80327">
        <ele>263.8</ele>
        <time>2014-04-02T08:12:54Z</time>
      </trkpt>
      <trkpt lat="49.16938" lon="6.80317">
        <ele>264.5</ele>
        <time>2014-04-02T08:12:59Z</time>
      </trkpt>
      <trkpt lat="49.16934" lon="6.80307">
        <ele>264.2</ele>
        <time>2014-04-02T08:13:04Z</time>
      </trkpt>
      <trkpt lat="49.16925" lon="6.80291">
        <ele>266.6</ele>
        <time>2014-04-02T08:13:14Z</time>
      </trkpt>
      <trkpt lat="49.16922" lon="6.80285">
        <ele>267.1</ele>
        <time>2014-04-02T08:13:19Z</time>
      </trkpt>
      <trkpt lat="49.16917" lon="6.80277">
        <ele>267.6</ele>
        <time>2014-04-02T08:13:24Z</time>
      </trkpt>
      <trkpt lat="49.16913" lon="6.8027">
        <ele>267.1</ele>
        <time>2014-04-02T08:13:29Z</time>
      </trkpt>
      <trkpt lat="49.16909" lon="6.80262">
        <ele>268.1</ele>
        <time>2014-04-02T08:13:34Z</time>
      </trkpt>
      <trkpt lat="49.16904" lon="6.80254">
        <ele>268.4</ele>
        <time>2014-04-02T08:13:39Z</time>
      </trkpt>
      <trkpt lat="49.169" lon="6.80246">
        <ele>267.4</ele>
        <time>2014-04-02T08:13:44Z</time>
      </trkpt>
      <trkpt lat="49.16896" lon="6.80238">
        <ele>269.3</ele>
        <time>2014-04-02T08:13:49Z</time>
      </trkpt>
      <trkpt lat="49.16891" lon="6.80232">
        <ele>268.2</ele>
        <time>2014-04-02T08:13:54Z</time>
      </trkpt>
      <trkpt lat="49.16887" lon="6.80227">
        <ele>269.6</ele>
        <time>2014-04-02T08:13:59Z</time>
      </trkpt>
      <trkpt lat="49.16881" lon="6.80221">
        <ele>270.4</ele>
        <time>2014-04-02T08:14:04Z</time>
      </trkpt>
      <trkpt lat="49.16874" lon="6.80217">
        <ele>271.4</ele>
        <time>2014-04-02T08:14:09Z</time>
      </trkpt>
      <trkpt lat="49.16863" lon="6.80207">
        <ele>271.5</ele>
        <time>2014-04-02T08:14:19Z</time>
      </trkpt>
      <trkpt lat="49.16858" lon="6.802">
        <ele>271.6</ele>
        <time>2014-04-02T08:14:24Z</time>
      </trkpt>
      <trkpt lat="49.16855" lon="6.80195">
        <ele>272.8</ele>
        <time>2014-04-02T08:14:29Z</time>
      </trkpt>
      <trkpt lat="49.16851" lon="6.80188">
        <ele>273.2</ele>
        <time>2014-04-02T08:14:34Z</time>
      </trkpt>
      <trkpt lat="49.16847" lon="6.8018">
        <ele>274.4</ele>
        <time>2014-04-02T08:14:39Z</time>
      </trkpt>
      <trkpt lat="49.16843" lon="6.80171">
        <ele>275</ele>
        <time>2014-04-02T08:14:44Z</time>
      </trkpt>
      <trkpt lat="49.16839" lon="6.80161">
        <ele>275.5</ele>
        <time>2014-04-02T08:14:49Z</time>
      </trkpt>
      <trkpt lat="49.16837" lon="6.80152">
        <ele>275.6</ele>
        <time>2014-04-02T08:14:54Z</time>
      </trkpt>
      <trkpt lat="49.16834" lon="6.80142">
        <ele>275.7</ele>
        <time>2014-04-02T08:14:59Z</time>
      </trkpt>
      <trkpt lat="49.16831" lon="6.80134">
        <ele>275.9</ele>
        <time>2014-04-02T08:15:04Z</time>
      </trkpt>
      <trkpt lat="49.16828" lon="6.80125">
        <ele>277.4</ele>
        <time>2014-04-02T08:15:09Z</time>
      </trkpt>
      <trkpt lat="49.16826" lon="6.80116">
        <ele>277.8</ele>
        <time>2014-04-02T08:15:14Z</time>
      </trkpt>
      <trkpt lat="49.16823" lon="6.80098">
        <ele>278.9</ele>
        <time>2014-04-02T08:15:24Z</time>
      </trkpt>
      <trkpt lat="49.16822" lon="6.80088">
        <ele>279.7</ele>
        <time>2014-04-02T08:15:29Z</time>
      </trkpt>
      <trkpt lat="49.16821" lon="6.80079">
        <ele>280.1</ele>
        <time>2014-04-02T08:15:34Z</time>
      </trkpt>
      <trkpt lat="49.16821" lon="6.8007">
        <ele>280.8</ele>
        <time>2014-04-02T08:15:39Z</time>
      </trkpt>
      <trkpt lat="49.16822" lon="6.80062">
        <ele>281.9</ele>
        <time>2014-04-02T08:15:44Z</time>
      </trkpt>
      <trkpt lat="49.16821" lon="6.80053">
        <ele>281.9</ele>
        <time>2014-04-02T08:15:49Z</time>
      </trkpt>
      <trkpt lat="49.16821" lon="6.80044">
        <ele>282.2</ele>
        <time>2014-04-02T08:15:54Z</time>
      </trkpt>
      <trkpt lat="49.16821" lon="6.80035">
        <ele>283.5</ele>
        <time>2014-04-02T08:15:59Z</time>
      </trkpt>
      <trkpt lat="49.1682" lon="6.80028">
        <ele>283.6</ele>
        <time>2014-04-02T08:16:04Z</time>
      </trkpt>
      <trkpt lat="49.16818" lon="6.80019">
        <ele>285.1</ele>
        <time>2014-04-02T08:16:09Z</time>
      </trkpt>
      <trkpt lat="49.16816" lon="6.8001">
        <ele>286</ele>
        <time>2014-04-02T08:16:14Z</time>
      </trkpt>
      <trkpt lat="49.16814" lon="6.80002">
        <ele>285.6</ele>
        <time>2014-04-02T08:16:19Z</time>
      </trkpt>
      <trkpt lat="49.16808" lon="6.79983">
        <ele>286.4</ele>
        <time>2014-04-02T08:16:29Z</time>
      </trkpt>
      <trkpt lat="49.16806" lon="6.79976">
        <ele>286.5</ele>
        <time>2014-04-02T08:16:34Z</time>
      </trkpt>
      <trkpt lat="49.16804" lon="6.79968">
        <ele>286.6</ele>
        <time>2014-04-02T08:16:39Z</time>
      </trkpt>
      <trkpt lat="49.16803" lon="6.79959">
        <ele>287.2</ele>
        <time>2014-04-02T08:16:44Z</time>
      </trkpt>
      <trkpt lat="49.16801" lon="6.7995">
        <ele>288.5</ele>
        <time>2014-04-02T08:16:49Z</time>
      </trkpt>
      <trkpt lat="49.16799" lon="6.7994">
        <ele>289.7</ele>
        <time>2014-04-02T08:16:54Z</time>
      </trkpt>
      <trkpt lat="49.16798" lon="6.79931">
        <ele>289.6</ele>
        <time>2014-04-02T08:16:59Z</time>
      </trkpt>
      <trkpt lat="49.16799" lon="6.79923">
        <ele>289.1</ele>
        <time>2014-04-02T08:17:04Z</time>
      </trkpt>
      <trkpt lat="49.16801" lon="6.79913">
        <ele>289.7</ele>
        <time>2014-04-02T08:17:09Z</time>
      </trkpt>
      <trkpt lat="49.16803" lon="6.79905">
        <ele>290.4</ele>
        <time>2014-04-02T08:17:14Z</time>
      </trkpt>
      <trkpt lat="49.16806" lon="6.79896">
        <ele>292</ele>
        <time>2014-04-02T08:17:19Z</time>
      </trkpt>
      <trkpt lat="49.1681" lon="6.79888">
        <ele>292.1</ele>
        <time>2014-04-02T08:17:24Z</time>
      </trkpt>
      <trkpt lat="49.16818" lon="6.79871">
        <ele>292.8</ele>
        <time>2014-04-02T08:17:34Z</time>
      </trkpt>
      <trkpt lat="49.16822" lon="6.79863">
        <ele>293.3</ele>
        <time>2014-04-02T08:17:39Z</time>
      </trkpt>
      <trkpt lat="49.16826" lon="6.79854">
        <ele>293.2</ele>
        <time>2014-04-02T08:17:44Z</time>
      </trkpt>
      <trkpt lat="49.16829" lon="6.79847">
        <ele>293.7</ele>
        <time>2014-04-02T08:17:49Z</time>
      </trkpt>
      <trkpt lat="49.16832" lon="6.79839">
        <ele>294.1</ele>
        <time>2014-04-02T08:17:54Z</time>
      </trkpt>
      <trkpt lat="49.16835" lon="6.7983">
        <ele>294.7</ele>
        <time>2014-04-02T08:17:59Z</time>
      </trkpt>
      <trkpt lat="49.16839" lon="6.79823">
        <ele>295.2</ele>
        <time>2014-04-02T08:18:04Z</time>
      </trkpt>
      <trkpt lat="49.16842" lon="6.79815">
        <ele>295.4</ele>
        <time>2014-04-02T08:18:09Z</time>
      </trkpt>
      <trkpt lat="49.16846" lon="6.79808">
        <ele>296.4</ele>
        <time>2014-04-02T08:18:14Z</time>
      </trkpt>
      <trkpt lat="49.16849" lon="6.79799">
        <ele>296</ele>
        <time>2014-04-02T08:18:19Z</time>
      </trkpt>
      <trkpt lat="49.16849" lon="6.79786">
        <ele>296.2</ele>
        <time>2014-04-02T08:18:24Z</time>
      </trkpt>
      <trkpt lat="49.16848" lon="6.79776">
        <ele>296.6</ele>
        <time>2014-04-02T08:18:29Z</time>
      </trkpt>
      <trkpt lat="49.16843" lon="6.79757">
        <ele>296.9</ele>
        <time>2014-04-02T08:18:39Z</time>
      </trkpt>
      <trkpt lat="49.1684" lon="6.79748">
        <ele>297.2</ele>
        <time>2014-04-02T08:18:44Z</time>
      </trkpt>
      <trkpt lat="49.16837" lon="6.79741">
        <ele>297.7</ele>
        <time>2014-04-02T08:18:49Z</time>
      </trkpt>
      <trkpt lat="49.16833" lon="6.79732">
        <ele>298.2</ele>
        <time>2014-04-02T08:18:54Z</time>
      </trkpt>
      <trkpt lat="49.16829" lon="6.79724">
        <ele>297.6</ele>
        <time>2014-04-02T08:18:59Z</time>
      </trkpt>
      <trkpt lat="49.16825" lon="6.79717">
        <ele>298.4</ele>
        <time>2014-04-02T08:19:04Z</time>
      </trkpt>
      <trkpt lat="49.16821" lon="6.79711">
        <ele>299.1</ele>
        <time>2014-04-02T08:19:09Z</time>
      </trkpt>
      <trkpt lat="49.16816" lon="6.79705">
        <ele>299.2</ele>
        <time>2014-04-02T08:19:14Z</time>
      </trkpt>
      <trkpt lat="49.16812" lon="6.79699">
        <ele>298.7</ele>
        <time>2014-04-02T08:19:19Z</time>
      </trkpt>
      <trkpt lat="49.16808" lon="6.79693">
        <ele>299.6</ele>
        <time>2014-04-02T08:19:24Z</time>
      </trkpt>
      <trkpt lat="49.16804" lon="6.79688">
        <ele>300.3</ele>
        <time>2014-04-02T08:19:29Z</time>
      </trkpt>
      <trkpt lat="49.168" lon="6.79681">
        <ele>300.1</ele>
        <time>2014-04-02T08:19:34Z</time>
      </trkpt>
      <trkpt lat="49.16791" lon="6.79668">
        <ele>300.8</ele>
        <time>2014-04-02T08:19:44Z</time>
      </trkpt>
      <trkpt lat="49.16787" lon="6.79661">
        <ele>302.1</ele>
        <time>2014-04-02T08:19:49Z</time>
      </trkpt>
      <trkpt lat="49.16783" lon="6.79654">
        <ele>301.1</ele>
        <time>2014-04-02T08:19:54Z</time>
      </trkpt>
      <trkpt lat="49.16779" lon="6.79647">
        <ele>301</ele>
        <time>2014-04-02T08:19:59Z</time>
      </trkpt>
      <trkpt lat="49.16775" lon="6.79641">
        <ele>301.1</ele>
        <time>2014-04-02T08:20:04Z</time>
      </trkpt>
      <trkpt lat="49.16771" lon="6.79635">
        <ele>301.9</ele>
        <time>2014-04-02T08:20:09Z</time>
      </trkpt>
      <trkpt lat="49.16767" lon="6.79628">
        <ele>301.8</ele>
        <time>2014-04-02T08:20:14Z</time>
      </trkpt>
      <trkpt lat="49.16763" lon="6.79619">
        <ele>301.7</ele>
        <time>2014-04-02T08:20:19Z</time>
      </trkpt>
      <trkpt lat="49.1676" lon="6.79612">
        <ele>302.1</ele>
        <time>2014-04-02T08:20:24Z</time>
      </trkpt>
      <trkpt lat="49.16756" lon="6.79604">
        <ele>302.6</ele>
        <time>2014-04-02T08:20:29Z</time>
      </trkpt>
      <trkpt lat="49.16752" lon="6.79596">
        <ele>302.9</ele>
        <time>2014-04-02T08:20:34Z</time>
      </trkpt>
      <trkpt lat="49.1675" lon="6.79589">
        <ele>304.4</ele>
        <time>2014-04-02T08:20:39Z</time>
      </trkpt>
      <trkpt lat="49.16742" lon="6.79576">
        <ele>303.5</ele>
        <time>2014-04-02T08:20:49Z</time>
      </trkpt>
      <trkpt lat="49.16738" lon="6.7957">
        <ele>304.1</ele>
        <time>2014-04-02T08:20:54Z</time>
      </trkpt>
      <trkpt lat="49.16734" lon="6.79563">
        <ele>304</ele>
        <time>2014-04-02T08:20:59Z</time>
      </trkpt>
      <trkpt lat="49.16729" lon="6.79556">
        <ele>304.4</ele>
        <time>2014-04-02T08:21:04Z</time>
      </trkpt>
      <trkpt lat="49.16725" lon="6.7955">
        <ele>304.6</ele>
        <time>2014-04-02T08:21:09Z</time>
      </trkpt>
      <trkpt lat="49.16721" lon="6.79544">
        <ele>306.1</ele>
        <time>2014-04-02T08:21:14Z</time>
      </trkpt>
      <trkpt lat="49.16716" lon="6.79538">
        <ele>307.4</ele>
        <time>2014-04-02T08:21:19Z</time>
      </trkpt>
      <trkpt lat="49.16711" lon="6.79533">
        <ele>307</ele>
        <time>2014-04-02T08:21:24Z</time>
      </trkpt>
      <trkpt lat="49.16707" lon="6.79527">
        <ele>307.4</ele>
        <time>2014-04-02T08:21:29Z</time>
      </trkpt>
      <trkpt lat="49.16702" lon="6.79522">
        <ele>308.7</ele>
        <time>2014-04-02T08:21:34Z</time>
      </trkpt>
      <trkpt lat="49.16697" lon="6.79517">
        <ele>309.8</ele>
        <time>2014-04-02T08:21:39Z</time>
      </trkpt>
      <trkpt lat="49.16692" lon="6.79513">
        <ele>310.4</ele>
        <time>2014-04-02T08:21:44Z</time>
      </trkpt>
      <trkpt lat="49.16682" lon="6.79503">
        <ele>312.2</ele>
        <time>2014-04-02T08:21:54Z</time>
      </trkpt>
      <trkpt lat="49.16677" lon="6.79499">
        <ele>311.6</ele>
        <time>2014-04-02T08:21:59Z</time>
      </trkpt>
      <trkpt lat="49.16673" lon="6.79494">
        <ele>312</ele>
        <time>2014-04-02T08:22:04Z</time>
      </trkpt>
      <trkpt lat="49.16667" lon="6.79488">
        <ele>312.3</ele>
        <time>2014-04-02T08:22:09Z</time>
      </trkpt>
      <trkpt lat="49.16662" lon="6.79482">
        <ele>313.4</ele>
        <time>2014-04-02T08:22:14Z</time>
      </trkpt>
      <trkpt lat="49.16656" lon="6.79476">
        <ele>313.5</ele>
        <time>2014-04-02T08:22:19Z</time>
      </trkpt>
      <trkpt lat="49.16651" lon="6.7947">
        <ele>313</ele>
        <time>2014-04-02T08:22:24Z</time>
      </trkpt>
      <trkpt lat="49.16641" lon="6.79457">
        <ele>312.6</ele>
        <time>2014-04-02T08:22:29Z</time>
      </trkpt>
      <trkpt lat="49.16636" lon="6.79452">
        <ele>312.4</ele>
        <time>2014-04-02T08:22:34Z</time>
      </trkpt>
      <trkpt lat="49.16632" lon="6.79448">
        <ele>311.1</ele>
        <time>2014-04-02T08:22:39Z</time>
      </trkpt>
      <trkpt lat="49.16626" lon="6.79442">
        <ele>310.5</ele>
        <time>2014-04-02T08:22:44Z</time>
      </trkpt>
      <trkpt lat="49.16622" lon="6.79436">
        <ele>311</ele>
        <time>2014-04-02T08:22:49Z</time>
      </trkpt>
      <trkpt lat="49.16612" lon="6.79421">
        <ele>311</ele>
        <time>2014-04-02T08:22:59Z</time>
      </trkpt>
      <trkpt lat="49.16606" lon="6.79412">
        <ele>311.2</ele>
        <time>2014-04-02T08:23:04Z</time>
      </trkpt>
      <trkpt lat="49.16603" lon="6.79404">
        <ele>311</ele>
        <time>2014-04-02T08:23:09Z</time>
      </trkpt>
      <trkpt lat="49.16601" lon="6.79394">
        <ele>310.2</ele>
        <time>2014-04-02T08:23:14Z</time>
      </trkpt>
      <trkpt lat="49.16598" lon="6.79382">
        <ele>310.6</ele>
        <time>2014-04-02T08:23:19Z</time>
      </trkpt>
      <trkpt lat="49.16597" lon="6.79374">
        <ele>310.8</ele>
        <time>2014-04-02T08:23:24Z</time>
      </trkpt>
      <trkpt lat="49.16597" lon="6.79367">
        <ele>310.1</ele>
        <time>2014-04-02T08:23:29Z</time>
      </trkpt>
      <trkpt lat="49.16596" lon="6.79359">
        <ele>309.3</ele>
        <time>2014-04-02T08:23:34Z</time>
      </trkpt>
      <trkpt lat="49.16596" lon="6.79352">
        <ele>309</ele>
        <time>2014-04-02T08:23:39Z</time>
      </trkpt>
      <trkpt lat="49.16594" lon="6.79344">
        <ele>309.1</ele>
        <time>2014-04-02T08:23:44Z</time>
      </trkpt>
      <trkpt lat="49.16592" lon="6.79334">
        <ele>309</ele>
        <time>2014-04-02T08:23:49Z</time>
      </trkpt>
      <trkpt lat="49.16584" lon="6.7931">
        <ele>309</ele>
        <time>2014-04-02T08:23:55Z</time>
      </trkpt>
      <trkpt lat="49.1658" lon="6.79297">
        <ele>309.9</ele>
        <time>2014-04-02T08:24:05Z</time>
      </trkpt>
      <trkpt lat="49.16577" lon="6.79291">
        <ele>310.4</ele>
        <time>2014-04-02T08:24:10Z</time>
      </trkpt>
      <trkpt lat="49.16577" lon="6.79286">
        <ele>311.6</ele>
        <time>2014-04-02T08:24:15Z</time>
      </trkpt>
      <trkpt lat="49.16575" lon="6.79279">
        <ele>311.9</ele>
        <time>2014-04-02T08:24:20Z</time>
      </trkpt>
      <trkpt lat="49.16572" lon="6.79272">
        <ele>312.2</ele>
        <time>2014-04-02T08:24:25Z</time>
      </trkpt>
      <trkpt lat="49.16569" lon="6.79263">
        <ele>312.3</ele>
        <time>2014-04-02T08:24:30Z</time>
      </trkpt>
      <trkpt lat="49.16566" lon="6.79253">
        <ele>313.7</ele>
        <time>2014-04-02T08:24:35Z</time>
      </trkpt>
      <trkpt lat="49.16564" lon="6.79244">
        <ele>314.2</ele>
        <time>2014-04-02T08:24:40Z</time>
      </trkpt>
      <trkpt lat="49.16563" lon="6.79235">
        <ele>314.5</ele>
        <time>2014-04-02T08:24:45Z</time>
      </trkpt>
      <trkpt lat="49.1656" lon="6.79225">
        <ele>314.8</ele>
        <time>2014-04-02T08:24:50Z</time>
      </trkpt>
      <trkpt lat="49.16559" lon="6.79217">
        <ele>314.6</ele>
        <time>2014-04-02T08:24:55Z</time>
      </trkpt>
      <trkpt lat="49.16558" lon="6.79205">
        <ele>315</ele>
        <time>2014-04-02T08:25:00Z</time>
      </trkpt>
      <trkpt lat="49.16556" lon="6.79194">
        <ele>314.8</ele>
        <time>2014-04-02T08:25:05Z</time>
      </trkpt>
      <trkpt lat="49.16554" lon="6.79177">
        <ele>316.6</ele>
        <time>2014-04-02T08:25:15Z</time>
      </trkpt>
      <trkpt lat="49.16554" lon="6.79173">
        <ele>317.7</ele>
        <time>2014-04-02T08:25:20Z</time>
      </trkpt>
      <trkpt lat="49.16555" lon="6.79169">
        <ele>317.7</ele>
        <time>2014-04-02T08:25:25Z</time>
      </trkpt>
      <trkpt lat="49.16556" lon="6.79166">
        <ele>316.1</ele>
        <time>2014-04-02T08:25:30Z</time>
      </trkpt>
      <trkpt lat="49.16558" lon="6.79166">
        <ele>316.6</ele>
        <time>2014-04-02T08:25:35Z</time>
      </trkpt>
      <trkpt lat="49.1656" lon="6.79167">
        <ele>317.3</ele>
        <time>2014-04-02T08:25:40Z</time>
      </trkpt>
      <trkpt lat="49.16562" lon="6.79167">
        <ele>317.1</ele>
        <time>2014-04-02T08:25:45Z</time>
      </trkpt>
      <trkpt lat="49.16563" lon="6.79168">
        <ele>316.9</ele>
        <time>2014-04-02T08:25:50Z</time>
      </trkpt>
      <trkpt lat="49.16564" lon="6.79169">
        <ele>316.6</ele>
        <time>2014-04-02T08:25:55Z</time>
      </trkpt>
      <trkpt lat="49.16565" lon="6.79169">
        <ele>317.3</ele>
        <time>2014-04-02T08:26:00Z</time>
      </trkpt>
      <trkpt lat="49.16565" lon="6.7917">
        <ele>317.2</ele>
        <time>2014-04-02T08:26:05Z</time>
      </trkpt>
      <trkpt lat="49.16565" lon="6.7917">
        <ele>316.8</ele>
        <time>2014-04-02T08:26:10Z</time>
      </trkpt>
      <trkpt lat="49.16565" lon="6.79172">
        <ele>316.7</ele>
        <time>2014-04-02T08:26:20Z</time>
      </trkpt>
      <trkpt lat="49.16565" lon="6.79173">
        <ele>316.7</ele>
        <time>2014-04-02T08:26:25Z</time>
      </trkpt>
      <trkpt lat="49.16564" lon="6.79173">
        <ele>316.7</ele>
        <time>2014-04-02T08:26:30Z</time>
      </trkpt>
      <trkpt lat="49.16564" lon="6.79174">
        <ele>316.5</ele>
        <time>2014-04-02T08:26:35Z</time>
      </trkpt>
      <trkpt lat="49.16565" lon="6.79173">
        <ele>316.1</ele>
        <time>2014-04-02T08:26:40Z</time>
      </trkpt>
      <trkpt lat="49.16566" lon="6.79172">
        <ele>317.4</ele>
        <time>2014-04-02T08:26:45Z</time>
      </trkpt>
      <trkpt lat="49.16566" lon="6.79172">
        <ele>316</ele>
        <time>2014-04-02T08:26:50Z</time>
      </trkpt>
      <trkpt lat="49.16566" lon="6.79173">
        <ele>315.5</ele>
        <time>2014-04-02T08:26:55Z</time>
      </trkpt>
      <trkpt lat="49.16566" lon="6.79174">
        <ele>315.8</ele>
        <time>2014-04-02T08:27:00Z</time>
      </trkpt>
      <trkpt lat="49.16566" lon="6.79174">
        <ele>316.1</ele>
        <time>2014-04-02T08:27:05Z</time>
      </trkpt>
      <trkpt lat="49.16566" lon="6.79174">
        <ele>316.8</ele>
        <time>2014-04-02T08:27:10Z</time>
      </trkpt>
      <trkpt lat="49.16566" lon="6.7917">
        <ele>317</ele>
        <time>2014-04-02T08:27:15Z</time>
      </trkpt>
      <trkpt lat="49.16563" lon="6.79158">
        <ele>317.6</ele>
        <time>2014-04-02T08:27:25Z</time>
      </trkpt>
      <trkpt lat="49.16561" lon="6.79151">
        <ele>317.3</ele>
        <time>2014-04-02T08:27:30Z</time>
      </trkpt>
      <trkpt lat="49.1656" lon="6.79144">
        <ele>316.9</ele>
        <time>2014-04-02T08:27:35Z</time>
      </trkpt>
      <trkpt lat="49.16558" lon="6.79136">
        <ele>317.1</ele>
        <time>2014-04-02T08:27:40Z</time>
      </trkpt>
      <trkpt lat="49.16554" lon="6.79128">
        <ele>317.8</ele>
        <time>2014-04-02T08:27:45Z</time>
      </trkpt>
      <trkpt lat="49.16552" lon="6.79118">
        <ele>318.2</ele>
        <time>2014-04-02T08:27:50Z</time>
      </trkpt>
      <trkpt lat="49.16549" lon="6.79109">
        <ele>318.1</ele>
        <time>2014-04-02T08:27:55Z</time>
      </trkpt>
      <trkpt lat="49.16545" lon="6.79099">
        <ele>318.1</ele>
        <time>2014-04-02T08:28:00Z</time>
      </trkpt>
      <trkpt lat="49.16543" lon="6.79092">
        <ele>316.8</ele>
        <time>2014-04-02T08:28:05Z</time>
      </trkpt>
      <trkpt lat="49.16541" lon="6.79085">
        <ele>315.8</ele>
        <time>2014-04-02T08:28:10Z</time>
      </trkpt>
      <trkpt lat="49.16539" lon="6.79079">
        <ele>316.5</ele>
        <time>2014-04-02T08:28:15Z</time>
      </trkpt>
      <trkpt lat="49.16537" lon="6.79074">
        <ele>317.3</ele>
        <time>2014-04-02T08:28:20Z</time>
      </trkpt>
      <trkpt lat="49.16536" lon="6.79069">
        <ele>316</ele>
        <time>2014-04-02T08:28:30Z</time>
      </trkpt>
      <trkpt lat="49.16537" lon="6.79066">
        <ele>317.7</ele>
        <time>2014-04-02T08:28:35Z</time>
      </trkpt>
      <trkpt lat="49.16537" lon="6.79062">
        <ele>318.3</ele>
        <time>2014-04-02T08:28:40Z</time>
      </trkpt>
      <trkpt lat="49.16537" lon="6.79059">
        <ele>318.1</ele>
        <time>2014-04-02T08:28:45Z</time>
      </trkpt>
      <trkpt lat="49.16537" lon="6.79058">
        <ele>317.2</ele>
        <time>2014-04-02T08:28:50Z</time>
      </trkpt>
      <trkpt lat="49.16537" lon="6.79057">
        <ele>317.8</ele>
        <time>2014-04-02T08:28:55Z</time>
      </trkpt>
      <trkpt lat="49.16538" lon="6.79057">
        <ele>316.4</ele>
        <time>2014-04-02T08:29:00Z</time>
      </trkpt>
      <trkpt lat="49.16537" lon="6.79057">
        <ele>316.6</ele>
        <time>2014-04-02T08:29:05Z</time>
      </trkpt>
      <trkpt lat="49.16537" lon="6.79057">
        <ele>316.8</ele>
        <time>2014-04-02T08:29:10Z</time>
      </trkpt>
      <trkpt lat="49.16537" lon="6.79057">
        <ele>318.1</ele>
        <time>2014-04-02T08:29:15Z</time>
      </trkpt>
      <trkpt lat="49.16537" lon="6.79058">
        <ele>318.9</ele>
        <time>2014-04-02T08:29:20Z</time>
      </trkpt>
      <trkpt lat="49.16537" lon="6.79059">
        <ele>320.4</ele>
        <time>2014-04-02T08:29:25Z</time>
      </trkpt>
      <trkpt lat="49.16537" lon="6.7906">
        <ele>319.4</ele>
        <time>2014-04-02T08:29:35Z</time>
      </trkpt>
      <trkpt lat="49.16536" lon="6.79061">
        <ele>319.6</ele>
        <time>2014-04-02T08:29:40Z</time>
      </trkpt>
      <trkpt lat="49.16535" lon="6.79061">
        <ele>319</ele>
        <time>2014-04-02T08:29:45Z</time>
      </trkpt>
      <trkpt lat="49.16535" lon="6.79063">
        <ele>319.7</ele>
        <time>2014-04-02T08:29:50Z</time>
      </trkpt>
      <trkpt lat="49.16535" lon="6.79066">
        <ele>319.7</ele>
        <time>2014-04-02T08:29:55Z</time>
      </trkpt>
      <trkpt lat="49.16536" lon="6.79068">
        <ele>319.9</ele>
        <time>2014-04-02T08:30:00Z</time>
      </trkpt>
      <trkpt lat="49.16536" lon="6.79069">
        <ele>319.4</ele>
        <time>2014-04-02T08:30:05Z</time>
      </trkpt>
      <trkpt lat="49.16536" lon="6.79071">
        <ele>318.5</ele>
        <time>2014-04-02T08:30:10Z</time>
      </trkpt>
      <trkpt lat="49.16535" lon="6.79075">
        <ele>318.7</ele>
        <time>2014-04-02T08:30:15Z</time>
      </trkpt>
      <trkpt lat="49.16532" lon="6.7908">
        <ele>316.8</ele>
        <time>2014-04-02T08:30:20Z</time>
      </trkpt>
      <trkpt lat="49.16529" lon="6.79085">
        <ele>316.5</ele>
        <time>2014-04-02T08:30:25Z</time>
      </trkpt>
      <trkpt lat="49.16525" lon="6.7909">
        <ele>317.9</ele>
        <time>2014-04-02T08:30:30Z</time>
      </trkpt>
      <trkpt lat="49.16517" lon="6.79099">
        <ele>318.5</ele>
        <time>2014-04-02T08:30:40Z</time>
      </trkpt>
      <trkpt lat="49.16512" lon="6.79102">
        <ele>319</ele>
        <time>2014-04-02T08:30:45Z</time>
      </trkpt>
      <trkpt lat="49.16507" lon="6.79105">
        <ele>319.1</ele>
        <time>2014-04-02T08:30:50Z</time>
      </trkpt>
      <trkpt lat="49.16502" lon="6.79109">
        <ele>318.4</ele>
        <time>2014-04-02T08:30:55Z</time>
      </trkpt>
      <trkpt lat="49.16497" lon="6.79113">
        <ele>317.5</ele>
        <time>2014-04-02T08:31:00Z</time>
      </trkpt>
      <trkpt lat="49.16493" lon="6.79118">
        <ele>315.6</ele>
        <time>2014-04-02T08:31:05Z</time>
      </trkpt>
      <trkpt lat="49.16487" lon="6.79123">
        <ele>315.3</ele>
        <time>2014-04-02T08:31:10Z</time>
      </trkpt>
      <trkpt lat="49.16482" lon="6.79127">
        <ele>316</ele>
        <time>2014-04-02T08:31:15Z</time>
      </trkpt>
      <trkpt lat="49.16477" lon="6.79133">
        <ele>315.8</ele>
        <time>2014-04-02T08:31:20Z</time>
      </trkpt>
      <trkpt lat="49.16472" lon="6.79139">
        <ele>314.5</ele>
        <time>2014-04-02T08:31:25Z</time>
      </trkpt>
      <trkpt lat="49.16467" lon="6.79144">
        <ele>314.5</ele>
        <time>2014-04-02T08:31:30Z</time>
      </trkpt>
      <trkpt lat="49.16462" lon="6.79149">
        <ele>315.4</ele>
        <time>2014-04-02T08:31:35Z</time>
      </trkpt>
      <trkpt lat="49.16453" lon="6.79161">
        <ele>314.4</ele>
        <time>2014-04-02T08:31:45Z</time>
      </trkpt>
      <trkpt lat="49.16447" lon="6.79168">
        <ele>313.9</ele>
        <time>2014-04-02T08:31:50Z</time>
      </trkpt>
      <trkpt lat="49.16442" lon="6.79175">
        <ele>313.5</ele>
        <time>2014-04-02T08:31:55Z</time>
      </trkpt>
      <trkpt lat="49.16436" lon="6.7918">
        <ele>313.1</ele>
        <time>2014-04-02T08:32:00Z</time>
      </trkpt>
      <trkpt lat="49.16431" lon="6.79185">
        <ele>313.6</ele>
        <time>2014-04-02T08:32:05Z</time>
      </trkpt>
      <trkpt lat="49.16426" lon="6.79191">
        <ele>313.6</ele>
        <time>2014-04-02T08:32:10Z</time>
      </trkpt>
      <trkpt lat="49.1642" lon="6.79197">
        <ele>312.5</ele>
        <time>2014-04-02T08:32:15Z</time>
      </trkpt>
      <trkpt lat="49.16414" lon="6.79203">
        <ele>312.5</ele>
        <time>2014-04-02T08:32:20Z</time>
      </trkpt>
      <trkpt lat="49.16409" lon="6.79208">
        <ele>311.1</ele>
        <time>2014-04-02T08:32:25Z</time>
      </trkpt>
      <trkpt lat="49.16404" lon="6.79215">
        <ele>311.2</ele>
        <time>2014-04-02T08:32:30Z</time>
      </trkpt>
      <trkpt lat="49.16399" lon="6.79221">
        <ele>311.2</ele>
        <time>2014-04-02T08:32:35Z</time>
      </trkpt>
      <trkpt lat="49.16393" lon="6.79227">
        <ele>312.2</ele>
        <time>2014-04-02T08:32:40Z</time>
      </trkpt>
      <trkpt lat="49.16383" lon="6.79237">
        <ele>311.3</ele>
        <time>2014-04-02T08:32:50Z</time>
      </trkpt>
      <trkpt lat="49.16378" lon="6.79243">
        <ele>309.6</ele>
        <time>2014-04-02T08:32:55Z</time>
      </trkpt>
      <trkpt lat="49.16374" lon="6.7925">
        <ele>307.8</ele>
        <time>2014-04-02T08:33:00Z</time>
      </trkpt>
      <trkpt lat="49.16372" lon="6.79258">
        <ele>307.8</ele>
        <time>2014-04-02T08:33:05Z</time>
      </trkpt>
      <trkpt lat="49.16369" lon="6.79265">
        <ele>308.1</ele>
        <time>2014-04-02T08:33:10Z</time>
      </trkpt>
      <trkpt lat="49.16367" lon="6.79274">
        <ele>309.1</ele>
        <time>2014-04-02T08:33:15Z</time>
      </trkpt>
      <trkpt lat="49.16363" lon="6.79284">
        <ele>308.9</ele>
        <time>2014-04-02T08:33:20Z</time>
      </trkpt>
      <trkpt lat="49.1636" lon="6.79293">
        <ele>308.5</ele>
        <time>2014-04-02T08:33:25Z</time>
      </trkpt>
      <trkpt lat="49.16356" lon="6.79302">
        <ele>308.8</ele>
        <time>2014-04-02T08:33:30Z</time>
      </trkpt>
      <trkpt lat="49.16354" lon="6.79309">
        <ele>308.1</ele>
        <time>2014-04-02T08:33:35Z</time>
      </trkpt>
      <trkpt lat="49.1635" lon="6.79317">
        <ele>308</ele>
        <time>2014-04-02T08:33:40Z</time>
      </trkpt>
      <trkpt lat="49.16347" lon="6.79326">
        <ele>307.7</ele>
        <time>2014-04-02T08:33:45Z</time>
      </trkpt>
      <trkpt lat="49.16339" lon="6.79344">
        <ele>307</ele>
        <time>2014-04-02T08:33:55Z</time>
      </trkpt>
      <trkpt lat="49.16334" lon="6.79353">
        <ele>307.9</ele>
        <time>2014-04-02T08:34:00Z</time>
      </trkpt>
      <trkpt lat="49.1633" lon="6.79361">
        <ele>307.1</ele>
        <time>2014-04-02T08:34:05Z</time>
      </trkpt>
      <trkpt lat="49.16327" lon="6.7937">
        <ele>306.7</ele>
        <time>2014-04-02T08:34:10Z</time>
      </trkpt>
      <trkpt lat="49.16325" lon="6.79379">
        <ele>307.3</ele>
        <time>2014-04-02T08:34:15Z</time>
      </trkpt>
      <trkpt lat="49.16323" lon="6.79387">
        <ele>308.4</ele>
        <time>2014-04-02T08:34:20Z</time>
      </trkpt>
      <trkpt lat="49.1632" lon="6.79395">
        <ele>308.5</ele>
        <time>2014-04-02T08:34:25Z</time>
      </trkpt>
      <trkpt lat="49.16317" lon="6.79406">
        <ele>308.1</ele>
        <time>2014-04-02T08:34:30Z</time>
      </trkpt>
      <trkpt lat="49.16315" lon="6.79417">
        <ele>308.5</ele>
        <time>2014-04-02T08:34:35Z</time>
      </trkpt>
      <trkpt lat="49.16313" lon="6.79427">
        <ele>307.6</ele>
        <time>2014-04-02T08:34:40Z</time>
      </trkpt>
      <trkpt lat="49.1631" lon="6.79437">
        <ele>306.9</ele>
        <time>2014-04-02T08:34:45Z</time>
      </trkpt>
      <trkpt lat="49.16308" lon="6.79447">
        <ele>306.8</ele>
        <time>2014-04-02T08:34:50Z</time>
      </trkpt>
      <trkpt lat="49.16305" lon="6.79466">
        <ele>306.4</ele>
        <time>2014-04-02T08:35:00Z</time>
      </trkpt>
      <trkpt lat="49.16304" lon="6.79475">
        <ele>305.9</ele>
        <time>2014-04-02T08:35:05Z</time>
      </trkpt>
      <trkpt lat="49.16303" lon="6.79485">
        <ele>305.1</ele>
        <time>2014-04-02T08:35:10Z</time>
      </trkpt>
      <trkpt lat="49.16302" lon="6.79494">
        <ele>304.9</ele>
        <time>2014-04-02T08:35:15Z</time>
      </trkpt>
      <trkpt lat="49.16301" lon="6.79504">
        <ele>305.1</ele>
        <time>2014-04-02T08:35:20Z</time>
      </trkpt>
      <trkpt lat="49.16301" lon="6.79513">
        <ele>304.9</ele>
        <time>2014-04-02T08:35:25Z</time>
      </trkpt>
      <trkpt lat="49.163" lon="6.79523">
        <ele>303.9</ele>
        <time>2014-04-02T08:35:30Z</time>
      </trkpt>
      <trkpt lat="49.16298" lon="6.79533">
        <ele>304</ele>
        <time>2014-04-02T08:35:35Z</time>
      </trkpt>
      <trkpt lat="49.16297" lon="6.79544">
        <ele>304.2</ele>
        <time>2014-04-02T08:35:40Z</time>
      </trkpt>
      <trkpt lat="49.16296" lon="6.79554">
        <ele>304.1</ele>
        <time>2014-04-02T08:35:45Z</time>
      </trkpt>
      <trkpt lat="49.16295" lon="6.79564">
        <ele>303.3</ele>
        <time>2014-04-02T08:35:50Z</time>
      </trkpt>
      <trkpt lat="49.16294" lon="6.79574">
        <ele>304.3</ele>
        <time>2014-04-02T08:35:55Z</time>
      </trkpt>
      <trkpt lat="49.16291" lon="6.79595">
        <ele>302.9</ele>
        <time>2014-04-02T08:36:05Z</time>
      </trkpt>
      <trkpt lat="49.16291" lon="6.79604">
        <ele>302.8</ele>
        <time>2014-04-02T08:36:10Z</time>
      </trkpt>
      <trkpt lat="49.16291" lon="6.79614">
        <ele>302.7</ele>
        <time>2014-04-02T08:36:15Z</time>
      </trkpt>
      <trkpt lat="49.16291" lon="6.79625">
        <ele>303.8</ele>
        <time>2014-04-02T08:36:20Z</time>
      </trkpt>
      <trkpt lat="49.16291" lon="6.79635">
        <ele>301.7</ele>
        <time>2014-04-02T08:36:25Z</time>
      </trkpt>
      <trkpt lat="49.16291" lon="6.79646">
        <ele>302.7</ele>
        <time>2014-04-02T08:36:30Z</time>
      </trkpt>
      <trkpt lat="49.16291" lon="6.79657">
        <ele>301.8</ele>
        <time>2014-04-02T08:36:35Z</time>
      </trkpt>
      <trkpt lat="49.16291" lon="6.79668">
        <ele>301.6</ele>
        <time>2014-04-02T08:36:40Z</time>
      </trkpt>
      <trkpt lat="49.16291" lon="6.79678">
        <ele>301.1</ele>
        <time>2014-04-02T08:36:45Z</time>
      </trkpt>
      <trkpt lat="49.1629" lon="6.79688">
        <ele>301.6</ele>
        <time>2014-04-02T08:36:50Z</time>
      </trkpt>
      <trkpt lat="49.1629" lon="6.79698">
        <ele>301.1</ele>
        <time>2014-04-02T08:36:55Z</time>
      </trkpt>
      <trkpt lat="49.16291" lon="6.79708">
        <ele>299.9</ele>
        <time>2014-04-02T08:37:00Z</time>
      </trkpt>
      <trkpt lat="49.16291" lon="6.79727">
        <ele>300</ele>
        <time>2014-04-02T08:37:10Z</time>
      </trkpt>
      <trkpt lat="49.16291" lon="6.79737">
        <ele>300.2</ele>
        <time>2014-04-02T08:37:15Z</time>
      </trkpt>
      <trkpt lat="49.1629" lon="6.79747">
        <ele>299.1</ele>
        <time>2014-04-02T08:37:20Z</time>
      </trkpt>
      <trkpt lat="49.16289" lon="6.79757">
        <ele>300</ele>
        <time>2014-04-02T08:37:25Z</time>
      </trkpt>
      <trkpt lat="49.16287" lon="6.79768">
        <ele>300</ele>
        <time>2014-04-02T08:37:30Z</time>
      </trkpt>
      <trkpt lat="49.16285" lon="6.79779">
        <ele>301</ele>
        <time>2014-04-02T08:37:35Z</time>
      </trkpt>
      <trkpt lat="49.16283" lon="6.79789">
        <ele>300.1</ele>
        <time>2014-04-02T08:37:40Z</time>
      </trkpt>
      <trkpt lat="49.16281" lon="6.798">
        <ele>299.3</ele>
        <time>2014-04-02T08:37:45Z</time>
      </trkpt>
      <trkpt lat="49.16278" lon="6.7981">
        <ele>299</ele>
        <time>2014-04-02T08:37:50Z</time>
      </trkpt>
      <trkpt lat="49.16276" lon="6.7982">
        <ele>299.8</ele>
        <time>2014-04-02T08:37:55Z</time>
      </trkpt>
      <trkpt lat="49.16274" lon="6.7983">
        <ele>299.5</ele>
        <time>2014-04-02T08:38:00Z</time>
      </trkpt>
      <trkpt lat="49.16272" lon="6.7984">
        <ele>299.8</ele>
        <time>2014-04-02T08:38:05Z</time>
      </trkpt>
      <trkpt lat="49.16267" lon="6.7986">
        <ele>300.2</ele>
        <time>2014-04-02T08:38:15Z</time>
      </trkpt>
      <trkpt lat="49.16265" lon="6.7987">
        <ele>300.4</ele>
        <time>2014-04-02T08:38:20Z</time>
      </trkpt>
      <trkpt lat="49.16263" lon="6.79881">
        <ele>299.6</ele>
        <time>2014-04-02T08:38:25Z</time>
      </trkpt>
      <trkpt lat="49.16261" lon="6.79892">
        <ele>300</ele>
        <time>2014-04-02T08:38:30Z</time>
      </trkpt>
      <trkpt lat="49.16259" lon="6.79902">
        <ele>300.4</ele>
        <time>2014-04-02T08:38:35Z</time>
      </trkpt>
      <trkpt lat="49.16257" lon="6.79911">
        <ele>300.2</ele>
        <time>2014-04-02T08:38:40Z</time>
      </trkpt>
      <trkpt lat="49.16254" lon="6.7992">
        <ele>300.4</ele>
        <time>2014-04-02T08:38:45Z</time>
      </trkpt>
      <trkpt lat="49.16252" lon="6.7993">
        <ele>300.9</ele>
        <time>2014-04-02T08:38:50Z</time>
      </trkpt>
      <trkpt lat="49.16249" lon="6.79939">
        <ele>300.7</ele>
        <time>2014-04-02T08:38:55Z</time>
      </trkpt>
      <trkpt lat="49.16246" lon="6.7995">
        <ele>301.5</ele>
        <time>2014-04-02T08:39:00Z</time>
      </trkpt>
      <trkpt lat="49.16243" lon="6.7996">
        <ele>301.5</ele>
        <time>2014-04-02T08:39:05Z</time>
      </trkpt>
      <trkpt lat="49.16242" lon="6.79968">
        <ele>301.3</ele>
        <time>2014-04-02T08:39:10Z</time>
      </trkpt>
      <trkpt lat="49.16238" lon="6.79987">
        <ele>299.2</ele>
        <time>2014-04-02T08:39:20Z</time>
      </trkpt>
      <trkpt lat="49.16236" lon="6.79997">
        <ele>299.6</ele>
        <time>2014-04-02T08:39:25Z</time>
      </trkpt>
      <trkpt lat="49.16235" lon="6.80008">
        <ele>297.7</ele>
        <time>2014-04-02T08:39:30Z</time>
      </trkpt>
      <trkpt lat="49.16234" lon="6.80017">
        <ele>296.8</ele>
        <time>2014-04-02T08:39:35Z</time>
      </trkpt>
      <trkpt lat="49.16233" lon="6.80027">
        <ele>296.9</ele>
        <time>2014-04-02T08:39:40Z</time>
      </trkpt>
      <trkpt lat="49.16231" lon="6.80036">
        <ele>296.8</ele>
        <time>2014-04-02T08:39:45Z</time>
      </trkpt>
      <trkpt lat="49.16229" lon="6.80047">
        <ele>297.4</ele>
        <time>2014-04-02T08:39:50Z</time>
      </trkpt>
      <trkpt lat="49.16229" lon="6.80056">
        <ele>296.6</ele>
        <time>2014-04-02T08:39:55Z</time>
      </trkpt>
      <trkpt lat="49.16228" lon="6.80067">
        <ele>297.5</ele>
        <time>2014-04-02T08:40:00Z</time>
      </trkpt>
      <trkpt lat="49.16229" lon="6.80077">
        <ele>297.3</ele>
        <time>2014-04-02T08:40:05Z</time>
      </trkpt>
      <trkpt lat="49.1623" lon="6.80086">
        <ele>297.2</ele>
        <time>2014-04-02T08:40:10Z</time>
      </trkpt>
      <trkpt lat="49.16232" lon="6.80095">
        <ele>297.7</ele>
        <time>2014-04-02T08:40:15Z</time>
      </trkpt>
      <trkpt lat="49.1623" lon="6.80114">
        <ele>297.3</ele>
        <time>2014-04-02T08:40:25Z</time>
      </trkpt>
      <trkpt lat="49.16229" lon="6.80123">
        <ele>297.5</ele>
        <time>2014-04-02T08:40:30Z</time>
      </trkpt>
      <trkpt lat="49.16228" lon="6.80132">
        <ele>297.4</ele>
        <time>2014-04-02T08:40:35Z</time>
      </trkpt>
      <trkpt lat="49.16227" lon="6.8014">
        <ele>297.7</ele>
        <time>2014-04-02T08:40:40Z</time>
      </trkpt>
      <trkpt lat="49.16225" lon="6.80149">
        <ele>297.1</ele>
        <time>2014-04-02T08:40:45Z</time>
      </trkpt>
      <trkpt lat="49.16224" lon="6.80159">
        <ele>297.7</ele>
        <time>2014-04-02T08:40:50Z</time>
      </trkpt>
      <trkpt lat="49.16223" lon="6.80168">
        <ele>298.1</ele>
        <time>2014-04-02T08:40:55Z</time>
      </trkpt>
      <trkpt lat="49.16221" lon="6.80178">
        <ele>297.8</ele>
        <time>2014-04-02T08:41:00Z</time>
      </trkpt>
      <trkpt lat="49.1622" lon="6.80188">
        <ele>298</ele>
        <time>2014-04-02T08:41:05Z</time>
      </trkpt>
      <trkpt lat="49.16218" lon="6.80197">
        <ele>298.4</ele>
        <time>2014-04-02T08:41:10Z</time>
      </trkpt>
      <trkpt lat="49.16216" lon="6.80205">
        <ele>297.9</ele>
        <time>2014-04-02T08:41:15Z</time>
      </trkpt>
      <trkpt lat="49.16213" lon="6.80215">
        <ele>298.5</ele>
        <time>2014-04-02T08:41:20Z</time>
      </trkpt>
      <trkpt lat="49.16214" lon="6.80233">
        <ele>299.7</ele>
        <time>2014-04-02T08:41:30Z</time>
      </trkpt>
      <trkpt lat="49.16214" lon="6.80241">
        <ele>299.7</ele>
        <time>2014-04-02T08:41:35Z</time>
      </trkpt>
      <trkpt lat="49.16215" lon="6.80249">
        <ele>300</ele>
        <time>2014-04-02T08:41:40Z</time>
      </trkpt>
      <trkpt lat="49.16217" lon="6.80258">
        <ele>300.5</ele>
        <time>2014-04-02T08:41:45Z</time>
      </trkpt>
      <trkpt lat="49.16217" lon="6.80268">
        <ele>300.1</ele>
        <time>2014-04-02T08:41:50Z</time>
      </trkpt>
      <trkpt lat="49.16218" lon="6.80278">
        <ele>301</ele>
        <time>2014-04-02T08:41:55Z</time>
      </trkpt>
      <trkpt lat="49.16218" lon="6.80288">
        <ele>301.9</ele>
        <time>2014-04-02T08:42:00Z</time>
      </trkpt>
      <trkpt lat="49.16218" lon="6.80298">
        <ele>302</ele>
        <time>2014-04-02T08:42:05Z</time>
      </trkpt>
      <trkpt lat="49.16218" lon="6.80309">
        <ele>303.3</ele>
        <time>2014-04-02T08:42:10Z</time>
      </trkpt>
      <trkpt lat="49.16219" lon="6.80319">
        <ele>304.1</ele>
        <time>2014-04-02T08:42:15Z</time>
      </trkpt>
      <trkpt lat="49.1622" lon="6.80329">
        <ele>304.2</ele>
        <time>2014-04-02T08:42:20Z</time>
      </trkpt>
      <trkpt lat="49.1622" lon="6.8034">
        <ele>304.3</ele>
        <time>2014-04-02T08:42:25Z</time>
      </trkpt>
      <trkpt lat="49.1622" lon="6.80359">
        <ele>305.2</ele>
        <time>2014-04-02T08:42:35Z</time>
      </trkpt>
      <trkpt lat="49.1622" lon="6.80367">
        <ele>306.6</ele>
        <time>2014-04-02T08:42:40Z</time>
      </trkpt>
      <trkpt lat="49.16219" lon="6.80377">
        <ele>306.8</ele>
        <time>2014-04-02T08:42:45Z</time>
      </trkpt>
      <trkpt lat="49.16219" lon="6.80386">
        <ele>308.2</ele>
        <time>2014-04-02T08:42:50Z</time>
      </trkpt>
      <trkpt lat="49.16219" lon="6.80395">
        <ele>309.4</ele>
        <time>2014-04-02T08:42:55Z</time>
      </trkpt>
      <trkpt lat="49.16218" lon="6.80405">
        <ele>309.6</ele>
        <time>2014-04-02T08:43:00Z</time>
      </trkpt>
      <trkpt lat="49.16218" lon="6.80414">
        <ele>310</ele>
        <time>2014-04-02T08:43:05Z</time>
      </trkpt>
      <trkpt lat="49.16218" lon="6.80424">
        <ele>310.5</ele>
        <time>2014-04-02T08:43:10Z</time>
      </trkpt>
      <trkpt lat="49.16217" lon="6.80434">
        <ele>310.7</ele>
        <time>2014-04-02T08:43:15Z</time>
      </trkpt>
      <trkpt lat="49.16217" lon="6.80443">
        <ele>311</ele>
        <time>2014-04-02T08:43:20Z</time>
      </trkpt>
      <trkpt lat="49.16216" lon="6.80454">
        <ele>309.6</ele>
        <time>2014-04-02T08:43:25Z</time>
      </trkpt>
      <trkpt lat="49.16215" lon="6.80464">
        <ele>309.5</ele>
        <time>2014-04-02T08:43:30Z</time>
      </trkpt>
      <trkpt lat="49.16212" lon="6.80482">
        <ele>309.3</ele>
        <time>2014-04-02T08:43:40Z</time>
      </trkpt>
      <trkpt lat="49.16213" lon="6.80491">
        <ele>309.8</ele>
        <time>2014-04-02T08:43:45Z</time>
      </trkpt>
      <trkpt lat="49.16213" lon="6.805">
        <ele>309.7</ele>
        <time>2014-04-02T08:43:50Z</time>
      </trkpt>
      <trkpt lat="49.16214" lon="6.80509">
        <ele>310</ele>
        <time>2014-04-02T08:43:55Z</time>
      </trkpt>
      <trkpt lat="49.16213" lon="6.80519">
        <ele>309.4</ele>
        <time>2014-04-02T08:44:00Z</time>
      </trkpt>
      <trkpt lat="49.16212" lon="6.80527">
        <ele>308.5</ele>
        <time>2014-04-02T08:44:05Z</time>
      </trkpt>
      <trkpt lat="49.1621" lon="6.80535">
        <ele>308.9</ele>
        <time>2014-04-02T08:44:10Z</time>
      </trkpt>
      <trkpt lat="49.16208" lon="6.80545">
        <ele>307.7</ele>
        <time>2014-04-02T08:44:15Z</time>
      </trkpt>
      <trkpt lat="49.16205" lon="6.80558">
        <ele>307.1</ele>
        <time>2014-04-02T08:44:20Z</time>
      </trkpt>
      <trkpt lat="49.16201" lon="6.8057">
        <ele>307.5</ele>
        <time>2014-04-02T08:44:25Z</time>
      </trkpt>
      <trkpt lat="49.16197" lon="6.80582">
        <ele>308.3</ele>
        <time>2014-04-02T08:44:30Z</time>
      </trkpt>
      <trkpt lat="49.16193" lon="6.80593">
        <ele>308.5</ele>
        <time>2014-04-02T08:44:35Z</time>
      </trkpt>
      <trkpt lat="49.16186" lon="6.80612">
        <ele>308.3</ele>
        <time>2014-04-02T08:44:45Z</time>
      </trkpt>
      <trkpt lat="49.16182" lon="6.80621">
        <ele>308.8</ele>
        <time>2014-04-02T08:44:50Z</time>
      </trkpt>
      <trkpt lat="49.16183" lon="6.80628">
        <ele>308.9</ele>
        <time>2014-04-02T08:44:55Z</time>
      </trkpt>
      <trkpt lat="49.16183" lon="6.80636">
        <ele>308.3</ele>
        <time>2014-04-02T08:45:00Z</time>
      </trkpt>
      <trkpt lat="49.16185" lon="6.80643">
        <ele>308.6</ele>
        <time>2014-04-02T08:45:05Z</time>
      </trkpt>
      <trkpt lat="49.16188" lon="6.80649">
        <ele>308</ele>
        <time>2014-04-02T08:45:10Z</time>
      </trkpt>
      <trkpt lat="49.16192" lon="6.80655">
        <ele>309</ele>
        <time>2014-04-02T08:45:15Z</time>
      </trkpt>
      <trkpt lat="49.16195" lon="6.80662">
        <ele>309.2</ele>
        <time>2014-04-02T08:45:20Z</time>
      </trkpt>
      <trkpt lat="49.16195" lon="6.80669">
        <ele>310.2</ele>
        <time>2014-04-02T08:45:25Z</time>
      </trkpt>
      <trkpt lat="49.16196" lon="6.80674">
        <ele>311.1</ele>
        <time>2014-04-02T08:45:30Z</time>
      </trkpt>
      <trkpt lat="49.16197" lon="6.80682">
        <ele>310.5</ele>
        <time>2014-04-02T08:45:35Z</time>
      </trkpt>
      <trkpt lat="49.16199" lon="6.80689">
        <ele>311.2</ele>
        <time>2014-04-02T08:45:40Z</time>
      </trkpt>
      <trkpt lat="49.16201" lon="6.80705">
        <ele>311.4</ele>
        <time>2014-04-02T08:45:50Z</time>
      </trkpt>
      <trkpt lat="49.16201" lon="6.80714">
        <ele>312.5</ele>
        <time>2014-04-02T08:45:55Z</time>
      </trkpt>
      <trkpt lat="49.16202" lon="6.80721">
        <ele>312.4</ele>
        <time>2014-04-02T08:46:00Z</time>
      </trkpt>
      <trkpt lat="49.16202" lon="6.80729">
        <ele>312.4</ele>
        <time>2014-04-02T08:46:05Z</time>
      </trkpt>
      <trkpt lat="49.16204" lon="6.80737">
        <ele>312.9</ele>
        <time>2014-04-02T08:46:10Z</time>
      </trkpt>
      <trkpt lat="49.16205" lon="6.80746">
        <ele>314.3</ele>
        <time>2014-04-02T08:46:15Z</time>
      </trkpt>
      <trkpt lat="49.16206" lon="6.80754">
        <ele>313.2</ele>
        <time>2014-04-02T08:46:20Z</time>
      </trkpt>
      <trkpt lat="49.16204" lon="6.80761">
        <ele>313.6</ele>
        <time>2014-04-02T08:46:25Z</time>
      </trkpt>
      <trkpt lat="49.16201" lon="6.80769">
        <ele>313.5</ele>
        <time>2014-04-02T08:46:30Z</time>
      </trkpt>
      <trkpt lat="49.16198" lon="6.80778">
        <ele>314.9</ele>
        <time>2014-04-02T08:46:35Z</time>
      </trkpt>
      <trkpt lat="49.16194" lon="6.80786">
        <ele>315.2</ele>
        <time>2014-04-02T08:46:40Z</time>
      </trkpt>
      <trkpt lat="49.16192" lon="6.80796">
        <ele>315.7</ele>
        <time>2014-04-02T08:46:45Z</time>
      </trkpt>
      <trkpt lat="49.16191" lon="6.80814">
        <ele>314.7</ele>
        <time>2014-04-02T08:46:55Z</time>
      </trkpt>
      <trkpt lat="49.16191" lon="6.80823">
        <ele>316.1</ele>
        <time>2014-04-02T08:47:00Z</time>
      </trkpt>
      <trkpt lat="49.16191" lon="6.80831">
        <ele>316.4</ele>
        <time>2014-04-02T08:47:05Z</time>
      </trkpt>
      <trkpt lat="49.16191" lon="6.80841">
        <ele>317.8</ele>
        <time>2014-04-02T08:47:10Z</time>
      </trkpt>
      <trkpt lat="49.1619" lon="6.80851">
        <ele>317.5</ele>
        <time>2014-04-02T08:47:15Z</time>
      </trkpt>
      <trkpt lat="49.1619" lon="6.80861">
        <ele>316.9</ele>
        <time>2014-04-02T08:47:20Z</time>
      </trkpt>
      <trkpt lat="49.1619" lon="6.8087">
        <ele>316.4</ele>
        <time>2014-04-02T08:47:25Z</time>
      </trkpt>
      <trkpt lat="49.1619" lon="6.8088">
        <ele>316.4</ele>
        <time>2014-04-02T08:47:30Z</time>
      </trkpt>
      <trkpt lat="49.16189" lon="6.80891">
        <ele>316.7</ele>
        <time>2014-04-02T08:47:35Z</time>
      </trkpt>
      <trkpt lat="49.16189" lon="6.80901">
        <ele>317.4</ele>
        <time>2014-04-02T08:47:40Z</time>
      </trkpt>
      <trkpt lat="49.16187" lon="6.80911">
        <ele>318.3</ele>
        <time>2014-04-02T08:47:45Z</time>
      </trkpt>
      <trkpt lat="49.16186" lon="6.80919">
        <ele>318.9</ele>
        <time>2014-04-02T08:47:50Z</time>
      </trkpt>
      <trkpt lat="49.16183" lon="6.80936">
        <ele>320</ele>
        <time>2014-04-02T08:48:00Z</time>
      </trkpt>
      <trkpt lat="49.1618" lon="6.80947">
        <ele>319</ele>
        <time>2014-04-02T08:48:05Z</time>
      </trkpt>
      <trkpt lat="49.16178" lon="6.80956">
        <ele>319.8</ele>
        <time>2014-04-02T08:48:10Z</time>
      </trkpt>
      <trkpt lat="49.16177" lon="6.80966">
        <ele>318.9</ele>
        <time>2014-04-02T08:48:15Z</time>
      </trkpt>
      <trkpt lat="49.16175" lon="6.80977">
        <ele>320.5</ele>
        <time>2014-04-02T08:48:20Z</time>
      </trkpt>
      <trkpt lat="49.16174" lon="6.80987">
        <ele>319.1</ele>
        <time>2014-04-02T08:48:25Z</time>
      </trkpt>
      <trkpt lat="49.16173" lon="6.80997">
        <ele>318.6</ele>
        <time>2014-04-02T08:48:30Z</time>
      </trkpt>
      <trkpt lat="49.16173" lon="6.81007">
        <ele>317.9</ele>
        <time>2014-04-02T08:48:35Z</time>
      </trkpt>
      <trkpt lat="49.16174" lon="6.81018">
        <ele>317.7</ele>
        <time>2014-04-02T08:48:40Z</time>
      </trkpt>
      <trkpt lat="49.16175" lon="6.81028">
        <ele>317.4</ele>
        <time>2014-04-02T08:48:45Z</time>
      </trkpt>
      <trkpt lat="49.16176" lon="6.81039">
        <ele>317.4</ele>
        <time>2014-04-02T08:48:50Z</time>
      </trkpt>
      <trkpt lat="49.16178" lon="6.81049">
        <ele>316.5</ele>
        <time>2014-04-02T08:48:55Z</time>
      </trkpt>
      <trkpt lat="49.16183" lon="6.81069">
        <ele>315.6</ele>
        <time>2014-04-02T08:49:05Z</time>
      </trkpt>
      <trkpt lat="49.16185" lon="6.81078">
        <ele>315.4</ele>
        <time>2014-04-02T08:49:10Z</time>
      </trkpt>
      <trkpt lat="49.16187" lon="6.81087">
        <ele>314.8</ele>
        <time>2014-04-02T08:49:15Z</time>
      </trkpt>
      <trkpt lat="49.1619" lon="6.81096">
        <ele>313.4</ele>
        <time>2014-04-02T08:49:20Z</time>
      </trkpt>
      <trkpt lat="49.16193" lon="6.81106">
        <ele>313</ele>
        <time>2014-04-02T08:49:25Z</time>
      </trkpt>
      <trkpt lat="49.16196" lon="6.81113">
        <ele>312.5</ele>
        <time>2014-04-02T08:49:30Z</time>
      </trkpt>
      <trkpt lat="49.16199" lon="6.81122">
        <ele>312</ele>
        <time>2014-04-02T08:49:35Z</time>
      </trkpt>
      <trkpt lat="49.16202" lon="6.81131">
        <ele>310.8</ele>
        <time>2014-04-02T08:49:40Z</time>
      </trkpt>
      <trkpt lat="49.16205" lon="6.81141">
        <ele>310.2</ele>
        <time>2014-04-02T08:49:45Z</time>
      </trkpt>
      <trkpt lat="49.16208" lon="6.81151">
        <ele>309.4</ele>
        <time>2014-04-02T08:49:50Z</time>
      </trkpt>
      <trkpt lat="49.1621" lon="6.81161">
        <ele>309.1</ele>
        <time>2014-04-02T08:49:55Z</time>
      </trkpt>
      <trkpt lat="49.16213" lon="6.81169">
        <ele>309.1</ele>
        <time>2014-04-02T08:50:00Z</time>
      </trkpt>
      <trkpt lat="49.1622" lon="6.81188">
        <ele>307.8</ele>
        <time>2014-04-02T08:50:10Z</time>
      </trkpt>
      <trkpt lat="49.16223" lon="6.81197">
        <ele>306.7</ele>
        <time>2014-04-02T08:50:15Z</time>
      </trkpt>
      <trkpt lat="49.16226" lon="6.81204">
        <ele>306.8</ele>
        <time>2014-04-02T08:50:20Z</time>
      </trkpt>
      <trkpt lat="49.16229" lon="6.81213">
        <ele>306.9</ele>
        <time>2014-04-02T08:50:25Z</time>
      </trkpt>
      <trkpt lat="49.16232" lon="6.81221">
        <ele>306.4</ele>
        <time>2014-04-02T08:50:30Z</time>
      </trkpt>
      <trkpt lat="49.16237" lon="6.8123">
        <ele>305.8</ele>
        <time>2014-04-02T08:50:35Z</time>
      </trkpt>
      <trkpt lat="49.1624" lon="6.81241">
        <ele>303.3</ele>
        <time>2014-04-02T08:50:40Z</time>
      </trkpt>
      <trkpt lat="49.16243" lon="6.8125">
        <ele>304</ele>
        <time>2014-04-02T08:50:45Z</time>
      </trkpt>
      <trkpt lat="49.16247" lon="6.81258">
        <ele>304.1</ele>
        <time>2014-04-02T08:50:50Z</time>
      </trkpt>
      <trkpt lat="49.16251" lon="6.81267">
        <ele>303.1</ele>
        <time>2014-04-02T08:50:55Z</time>
      </trkpt>
      <trkpt lat="49.16255" lon="6.81275">
        <ele>302.8</ele>
        <time>2014-04-02T08:51:00Z</time>
      </trkpt>
      <trkpt lat="49.16259" lon="6.81282">
        <ele>302.3</ele>
        <time>2014-04-02T08:51:05Z</time>
      </trkpt>
      <trkpt lat="49.16268" lon="6.81297">
        <ele>302.5</ele>
        <time>2014-04-02T08:51:15Z</time>
      </trkpt>
      <trkpt lat="49.16272" lon="6.81304">
        <ele>302.4</ele>
        <time>2014-04-02T08:51:20Z</time>
      </trkpt>
      <trkpt lat="49.16276" lon="6.81312">
        <ele>299.9</ele>
        <time>2014-04-02T08:51:25Z</time>
      </trkpt>
      <trkpt lat="49.16281" lon="6.81318">
        <ele>301.1</ele>
        <time>2014-04-02T08:51:30Z</time>
      </trkpt>
      <trkpt lat="49.16286" lon="6.81324">
        <ele>299.9</ele>
        <time>2014-04-02T08:51:35Z</time>
      </trkpt>
      <trkpt lat="49.16291" lon="6.81331">
        <ele>299.1</ele>
        <time>2014-04-02T08:51:40Z</time>
      </trkpt>
      <trkpt lat="49.16295" lon="6.81338">
        <ele>297.9</ele>
        <time>2014-04-02T08:51:45Z</time>
      </trkpt>
      <trkpt lat="49.16299" lon="6.81345">
        <ele>298</ele>
        <time>2014-04-02T08:51:50Z</time>
      </trkpt>
      <trkpt lat="49.16304" lon="6.81352">
        <ele>298</ele>
        <time>2014-04-02T08:51:55Z</time>
      </trkpt>
      <trkpt lat="49.16309" lon="6.8136">
        <ele>298.3</ele>
        <time>2014-04-02T08:52:00Z</time>
      </trkpt>
      <trkpt lat="49.16314" lon="6.81368">
        <ele>297.2</ele>
        <time>2014-04-02T08:52:05Z</time>
      </trkpt>
      <trkpt lat="49.16318" lon="6.81376">
        <ele>296.9</ele>
        <time>2014-04-02T08:52:10Z</time>
      </trkpt>
      <trkpt lat="49.16326" lon="6.8139">
        <ele>297.2</ele>
        <time>2014-04-02T08:52:20Z</time>
      </trkpt>
      <trkpt lat="49.16331" lon="6.81396">
        <ele>296.2</ele>
        <time>2014-04-02T08:52:25Z</time>
      </trkpt>
      <trkpt lat="49.16335" lon="6.81402">
        <ele>295.8</ele>
        <time>2014-04-02T08:52:30Z</time>
      </trkpt>
      <trkpt lat="49.1634" lon="6.8141">
        <ele>295.3</ele>
        <time>2014-04-02T08:52:35Z</time>
      </trkpt>
      <trkpt lat="49.16344" lon="6.81416">
        <ele>294.4</ele>
        <time>2014-04-02T08:52:40Z</time>
      </trkpt>
      <trkpt lat="49.16349" lon="6.81423">
        <ele>295.1</ele>
        <time>2014-04-02T08:52:45Z</time>
      </trkpt>
      <trkpt lat="49.16352" lon="6.81431">
        <ele>295.5</ele>
        <time>2014-04-02T08:52:50Z</time>
      </trkpt>
      <trkpt lat="49.16357" lon="6.81439">
        <ele>294.9</ele>
        <time>2014-04-02T08:52:55Z</time>
      </trkpt>
      <trkpt lat="49.1636" lon="6.81448">
        <ele>294.5</ele>
        <time>2014-04-02T08:53:00Z</time>
      </trkpt>
      <trkpt lat="49.16364" lon="6.81456">
        <ele>294.8</ele>
        <time>2014-04-02T08:53:05Z</time>
      </trkpt>
      <trkpt lat="49.16369" lon="6.81463">
        <ele>296</ele>
        <time>2014-04-02T08:53:10Z</time>
      </trkpt>
      <trkpt lat="49.16375" lon="6.81471">
        <ele>295.7</ele>
        <time>2014-04-02T08:53:15Z</time>
      </trkpt>
      <trkpt lat="49.16383" lon="6.81487">
        <ele>294.7</ele>
        <time>2014-04-02T08:53:25Z</time>
      </trkpt>
      <trkpt lat="49.16388" lon="6.81495">
        <ele>294.4</ele>
        <time>2014-04-02T08:53:30Z</time>
      </trkpt>
      <trkpt lat="49.16393" lon="6.81503">
        <ele>294.6</ele>
        <time>2014-04-02T08:53:35Z</time>
      </trkpt>
      <trkpt lat="49.16398" lon="6.81511">
        <ele>294.8</ele>
        <time>2014-04-02T08:53:40Z</time>
      </trkpt>
      <trkpt lat="49.16404" lon="6.81519">
        <ele>294.9</ele>
        <time>2014-04-02T08:53:45Z</time>
      </trkpt>
      <trkpt lat="49.16411" lon="6.81527">
        <ele>295.9</ele>
        <time>2014-04-02T08:53:50Z</time>
      </trkpt>
      <trkpt lat="49.16417" lon="6.81536">
        <ele>294.4</ele>
        <time>2014-04-02T08:53:55Z</time>
      </trkpt>
      <trkpt lat="49.16424" lon="6.81544">
        <ele>293.9</ele>
        <time>2014-04-02T08:54:00Z</time>
      </trkpt>
      <trkpt lat="49.16431" lon="6.81553">
        <ele>293.3</ele>
        <time>2014-04-02T08:54:05Z</time>
      </trkpt>
      <trkpt lat="49.16437" lon="6.81561">
        <ele>294</ele>
        <time>2014-04-02T08:54:10Z</time>
      </trkpt>
      <trkpt lat="49.16443" lon="6.81569">
        <ele>294.8</ele>
        <time>2014-04-02T08:54:15Z</time>
      </trkpt>
      <trkpt lat="49.16449" lon="6.81577">
        <ele>293.1</ele>
        <time>2014-04-02T08:54:20Z</time>
      </trkpt>
      <trkpt lat="49.16458" lon="6.81594">
        <ele>292.1</ele>
        <time>2014-04-02T08:54:30Z</time>
      </trkpt>
      <trkpt lat="49.16463" lon="6.81602">
        <ele>291.2</ele>
        <time>2014-04-02T08:54:35Z</time>
      </trkpt>
      <trkpt lat="49.16468" lon="6.8161">
        <ele>291.4</ele>
        <time>2014-04-02T08:54:40Z</time>
      </trkpt>
      <trkpt lat="49.16473" lon="6.81616">
        <ele>290.5</ele>
        <time>2014-04-02T08:54:45Z</time>
      </trkpt>
      <trkpt lat="49.16478" lon="6.81622">
        <ele>290.5</ele>
        <time>2014-04-02T08:54:50Z</time>
      </trkpt>
      <trkpt lat="49.16482" lon="6.81628">
        <ele>290</ele>
        <time>2014-04-02T08:54:55Z</time>
      </trkpt>
      <trkpt lat="49.16485" lon="6.81634">
        <ele>289</ele>
        <time>2014-04-02T08:55:00Z</time>
      </trkpt>
      <trkpt lat="49.16489" lon="6.81641">
        <ele>288.7</ele>
        <time>2014-04-02T08:55:05Z</time>
      </trkpt>
      <trkpt lat="49.16493" lon="6.81646">
        <ele>289</ele>
        <time>2014-04-02T08:55:10Z</time>
      </trkpt>
      <trkpt lat="49.16497" lon="6.81653">
        <ele>288.2</ele>
        <time>2014-04-02T08:55:15Z</time>
      </trkpt>
      <trkpt lat="49.16502" lon="6.8166">
        <ele>288</ele>
        <time>2014-04-02T08:55:20Z</time>
      </trkpt>
      <trkpt lat="49.16506" lon="6.81667">
        <ele>286.7</ele>
        <time>2014-04-02T08:55:25Z</time>
      </trkpt>
      <trkpt lat="49.16513" lon="6.81681">
        <ele>286</ele>
        <time>2014-04-02T08:55:35Z</time>
      </trkpt>
      <trkpt lat="49.16518" lon="6.81688">
        <ele>284.8</ele>
        <time>2014-04-02T08:55:40Z</time>
      </trkpt>
      <trkpt lat="49.16521" lon="6.81694">
        <ele>284.8</ele>
        <time>2014-04-02T08:55:45Z</time>
      </trkpt>
      <trkpt lat="49.16524" lon="6.81702">
        <ele>283.7</ele>
        <time>2014-04-02T08:55:50Z</time>
      </trkpt>
      <trkpt lat="49.16528" lon="6.81708">
        <ele>282.9</ele>
        <time>2014-04-02T08:55:55Z</time>
      </trkpt>
      <trkpt lat="49.16533" lon="6.81715">
        <ele>281.7</ele>
        <time>2014-04-02T08:56:00Z</time>
      </trkpt>
      <trkpt lat="49.16537" lon="6.81721">
        <ele>281</ele>
        <time>2014-04-02T08:56:05Z</time>
      </trkpt>
      <trkpt lat="49.16541" lon="6.81727">
        <ele>281.5</ele>
        <time>2014-04-02T08:56:10Z</time>
      </trkpt>
      <trkpt lat="49.16547" lon="6.81729">
        <ele>279.7</ele>
        <time>2014-04-02T08:56:15Z</time>
      </trkpt>
      <trkpt lat="49.16553" lon="6.81728">
        <ele>279.9</ele>
        <time>2014-04-02T08:56:20Z</time>
      </trkpt>
      <trkpt lat="49.16558" lon="6.81726">
        <ele>279.5</ele>
        <time>2014-04-02T08:56:25Z</time>
      </trkpt>
      <trkpt lat="49.16563" lon="6.81724">
        <ele>279.9</ele>
        <time>2014-04-02T08:56:30Z</time>
      </trkpt>
      <trkpt lat="49.16575" lon="6.81719">
        <ele>278.9</ele>
        <time>2014-04-02T08:56:40Z</time>
      </trkpt>
      <trkpt lat="49.1658" lon="6.81714">
        <ele>278.1</ele>
        <time>2014-04-02T08:56:45Z</time>
      </trkpt>
      <trkpt lat="49.16586" lon="6.81709">
        <ele>278.1</ele>
        <time>2014-04-02T08:56:50Z</time>
      </trkpt>
      <trkpt lat="49.1659" lon="6.81703">
        <ele>279</ele>
        <time>2014-04-02T08:56:55Z</time>
      </trkpt>
      <trkpt lat="49.16593" lon="6.81696">
        <ele>277.6</ele>
        <time>2014-04-02T08:57:00Z</time>
      </trkpt>
      <trkpt lat="49.16596" lon="6.81688">
        <ele>276.7</ele>
        <time>2014-04-02T08:57:05Z</time>
      </trkpt>
      <trkpt lat="49.16596" lon="6.8168">
        <ele>276.2</ele>
        <time>2014-04-02T08:57:10Z</time>
      </trkpt>
      <trkpt lat="49.16596" lon="6.81672">
        <ele>276.6</ele>
        <time>2014-04-02T08:57:15Z</time>
      </trkpt>
      <trkpt lat="49.16595" lon="6.81664">
        <ele>276.1</ele>
        <time>2014-04-02T08:57:20Z</time>
      </trkpt>
      <trkpt lat="49.16593" lon="6.81655">
        <ele>275.5</ele>
        <time>2014-04-02T08:57:25Z</time>
      </trkpt>
      <trkpt lat="49.16591" lon="6.81644">
        <ele>274.1</ele>
        <time>2014-04-02T08:57:30Z</time>
      </trkpt>
      <trkpt lat="49.16589" lon="6.81634">
        <ele>274.4</ele>
        <time>2014-04-02T08:57:35Z</time>
      </trkpt>
      <trkpt lat="49.16584" lon="6.81616">
        <ele>273.9</ele>
        <time>2014-04-02T08:57:45Z</time>
      </trkpt>
      <trkpt lat="49.16581" lon="6.81606">
        <ele>272.7</ele>
        <time>2014-04-02T08:57:50Z</time>
      </trkpt>
      <trkpt lat="49.16578" lon="6.81597">
        <ele>271.9</ele>
        <time>2014-04-02T08:57:55Z</time>
      </trkpt>
      <trkpt lat="49.16575" lon="6.81588">
        <ele>271.2</ele>
        <time>2014-04-02T08:58:00Z</time>
      </trkpt>
      <trkpt lat="49.16572" lon="6.81577">
        <ele>271.3</ele>
        <time>2014-04-02T08:58:05Z</time>
      </trkpt>
      <trkpt lat="49.16569" lon="6.81566">
        <ele>270.8</ele>
        <time>2014-04-02T08:58:10Z</time>
      </trkpt>
      <trkpt lat="49.16566" lon="6.81558">
        <ele>270.4</ele>
        <time>2014-04-02T08:58:15Z</time>
      </trkpt>
      <trkpt lat="49.16564" lon="6.81549">
        <ele>269.7</ele>
        <time>2014-04-02T08:58:20Z</time>
      </trkpt>
      <trkpt lat="49.16562" lon="6.81541">
        <ele>269.1</ele>
        <time>2014-04-02T08:58:25Z</time>
      </trkpt>
      <trkpt lat="49.16559" lon="6.81534">
        <ele>269.2</ele>
        <time>2014-04-02T08:58:30Z</time>
      </trkpt>
      <trkpt lat="49.16556" lon="6.81526">
        <ele>268.9</ele>
        <time>2014-04-02T08:58:35Z</time>
      </trkpt>
      <trkpt lat="49.16553" lon="6.81517">
        <ele>267.4</ele>
        <time>2014-04-02T08:58:40Z</time>
      </trkpt>
      <trkpt lat="49.16547" lon="6.815">
        <ele>267.2</ele>
        <time>2014-04-02T08:58:50Z</time>
      </trkpt>
      <trkpt lat="49.16545" lon="6.81491">
        <ele>266.2</ele>
        <time>2014-04-02T08:58:55Z</time>
      </trkpt>
      <trkpt lat="49.16541" lon="6.81482">
        <ele>267.4</ele>
        <time>2014-04-02T08:59:00Z</time>
      </trkpt>
      <trkpt lat="49.16538" lon="6.81473">
        <ele>266</ele>
        <time>2014-04-02T08:59:05Z</time>
      </trkpt>
      <trkpt lat="49.16535" lon="6.81464">
        <ele>265.8</ele>
        <time>2014-04-02T08:59:10Z</time>
      </trkpt>
      <trkpt lat="49.16531" lon="6.81456">
        <ele>266.5</ele>
        <time>2014-04-02T08:59:15Z</time>
      </trkpt>
      <trkpt lat="49.16527" lon="6.81447">
        <ele>265.6</ele>
        <time>2014-04-02T08:59:20Z</time>
      </trkpt>
      <trkpt lat="49.16523" lon="6.81436">
        <ele>266.1</ele>
        <time>2014-04-02T08:59:25Z</time>
      </trkpt>
      <trkpt lat="49.16519" lon="6.81428">
        <ele>264.6</ele>
        <time>2014-04-02T08:59:30Z</time>
      </trkpt>
      <trkpt lat="49.16516" lon="6.8142">
        <ele>263.8</ele>
        <time>2014-04-02T08:59:35Z</time>
      </trkpt>
      <trkpt lat="49.16512" lon="6.81412">
        <ele>263.3</ele>
        <time>2014-04-02T08:59:40Z</time>
      </trkpt>
      <trkpt lat="49.16507" lon="6.81403">
        <ele>262.1</ele>
        <time>2014-04-02T08:59:45Z</time>
      </trkpt>
      <trkpt lat="49.16502" lon="6.81385">
        <ele>262.7</ele>
        <time>2014-04-02T08:59:55Z</time>
      </trkpt>
      <trkpt lat="49.16504" lon="6.81376">
        <ele>262.1</ele>
        <time>2014-04-02T09:00:00Z</time>
      </trkpt>
      <trkpt lat="49.16508" lon="6.81369">
        <ele>262</ele>
        <time>2014-04-02T09:00:05Z</time>
      </trkpt>
      <trkpt lat="49.16511" lon="6.81365">
        <ele>261.6</ele>
        <time>2014-04-02T09:00:10Z</time>
      </trkpt>
      <trkpt lat="49.16515" lon="6.81365">
        <ele>260.9</ele>
        <time>2014-04-02T09:00:15Z</time>
      </trkpt>
      <trkpt lat="49.16519" lon="6.81368">
        <ele>260.3</ele>
        <time>2014-04-02T09:00:20Z</time>
      </trkpt>
      <trkpt lat="49.16525" lon="6.81374">
        <ele>260.5</ele>
        <time>2014-04-02T09:00:25Z</time>
      </trkpt>
      <trkpt lat="49.16529" lon="6.81379">
        <ele>259.6</ele>
        <time>2014-04-02T09:00:30Z</time>
      </trkpt>
      <trkpt lat="49.16534" lon="6.81385">
        <ele>260.4</ele>
        <time>2014-04-02T09:00:35Z</time>
      </trkpt>
      <trkpt lat="49.1654" lon="6.81391">
        <ele>259.8</ele>
        <time>2014-04-02T09:00:40Z</time>
      </trkpt>
      <trkpt lat="49.16545" lon="6.81396">
        <ele>258.9</ele>
        <time>2014-04-02T09:00:45Z</time>
      </trkpt>
      <trkpt lat="49.1655" lon="6.81402">
        <ele>257.7</ele>
        <time>2014-04-02T09:00:50Z</time>
      </trkpt>
      <trkpt lat="49.16561" lon="6.81413">
        <ele>256.7</ele>
        <time>2014-04-02T09:01:00Z</time>
      </trkpt>
      <trkpt lat="49.16566" lon="6.81419">
        <ele>256.5</ele>
        <time>2014-04-02T09:01:05Z</time>
      </trkpt>
      <trkpt lat="49.16571" lon="6.81425">
        <ele>256.4</ele>
        <time>2014-04-02T09:01:10Z</time>
      </trkpt>
      <trkpt lat="49.16575" lon="6.81431">
        <ele>257.3</ele>
        <time>2014-04-02T09:01:15Z</time>
      </trkpt>
      <trkpt lat="49.16581" lon="6.81437">
        <ele>256.6</ele>
        <time>2014-04-02T09:01:20Z</time>
      </trkpt>
      <trkpt lat="49.16585" lon="6.81443">
        <ele>255.5</ele>
        <time>2014-04-02T09:01:25Z</time>
      </trkpt>
      <trkpt lat="49.16591" lon="6.8145">
        <ele>255.8</ele>
        <time>2014-04-02T09:01:30Z</time>
      </trkpt>
      <trkpt lat="49.16597" lon="6.81456">
        <ele>255</ele>
        <time>2014-04-02T09:01:35Z</time>
      </trkpt>
      <trkpt lat="49.16601" lon="6.81463">
        <ele>253.6</ele>
        <time>2014-04-02T09:01:40Z</time>
      </trkpt>
      <trkpt lat="49.16606" lon="6.8147">
        <ele>254.1</ele>
        <time>2014-04-02T09:01:45Z</time>
      </trkpt>
      <trkpt lat="49.1661" lon="6.81477">
        <ele>253.7</ele>
        <time>2014-04-02T09:01:50Z</time>
      </trkpt>
      <trkpt lat="49.16614" lon="6.81486">
        <ele>253.4</ele>
        <time>2014-04-02T09:01:55Z</time>
      </trkpt>
      <trkpt lat="49.16621" lon="6.81502">
        <ele>252.8</ele>
        <time>2014-04-02T09:02:05Z</time>
      </trkpt>
      <trkpt lat="49.16625" lon="6.81509">
        <ele>252.1</ele>
        <time>2014-04-02T09:02:10Z</time>
      </trkpt>
      <trkpt lat="49.16629" lon="6.81517">
        <ele>251.9</ele>
        <time>2014-04-02T09:02:15Z</time>
      </trkpt>
      <trkpt lat="49.16632" lon="6.81525">
        <ele>251.7</ele>
        <time>2014-04-02T09:02:20Z</time>
      </trkpt>
      <trkpt lat="49.16636" lon="6.81533">
        <ele>250.5</ele>
        <time>2014-04-02T09:02:25Z</time>
      </trkpt>
      <trkpt lat="49.16641" lon="6.8154">
        <ele>250.5</ele>
        <time>2014-04-02T09:02:30Z</time>
      </trkpt>
      <trkpt lat="49.16645" lon="6.81548">
        <ele>250.6</ele>
        <time>2014-04-02T09:02:35Z</time>
      </trkpt>
      <trkpt lat="49.16648" lon="6.81557">
        <ele>250.7</ele>
        <time>2014-04-02T09:02:40Z</time>
      </trkpt>
      <trkpt lat="49.16651" lon="6.81566">
        <ele>249.3</ele>
        <time>2014-04-02T09:02:45Z</time>
      </trkpt>
      <trkpt lat="49.16654" lon="6.81575">
        <ele>248.9</ele>
        <time>2014-04-02T09:02:50Z</time>
      </trkpt>
      <trkpt lat="49.16659" lon="6.81582">
        <ele>248</ele>
        <time>2014-04-02T09:02:55Z</time>
      </trkpt>
      <trkpt lat="49.16663" lon="6.8159">
        <ele>249</ele>
        <time>2014-04-02T09:03:00Z</time>
      </trkpt>
      <trkpt lat="49.16671" lon="6.81606">
        <ele>247.9</ele>
        <time>2014-04-02T09:03:10Z</time>
      </trkpt>
      <trkpt lat="49.16675" lon="6.81614">
        <ele>247.9</ele>
        <time>2014-04-02T09:03:15Z</time>
      </trkpt>
      <trkpt lat="49.16679" lon="6.81622">
        <ele>246.3</ele>
        <time>2014-04-02T09:03:20Z</time>
      </trkpt>
      <trkpt lat="49.16683" lon="6.8163">
        <ele>246.8</ele>
        <time>2014-04-02T09:03:25Z</time>
      </trkpt>
      <trkpt lat="49.16688" lon="6.81637">
        <ele>246.1</ele>
        <time>2014-04-02T09:03:30Z</time>
      </trkpt>
      <trkpt lat="49.16693" lon="6.81642">
        <ele>246.3</ele>
        <time>2014-04-02T09:03:35Z</time>
      </trkpt>
      <trkpt lat="49.16699" lon="6.81648">
        <ele>245.9</ele>
        <time>2014-04-02T09:03:40Z</time>
      </trkpt>
      <trkpt lat="49.16704" lon="6.81654">
        <ele>245.2</ele>
        <time>2014-04-02T09:03:45Z</time>
      </trkpt>
      <trkpt lat="49.16709" lon="6.8166">
        <ele>244.1</ele>
        <time>2014-04-02T09:03:50Z</time>
      </trkpt>
      <trkpt lat="49.16717" lon="6.81665">
        <ele>243.5</ele>
        <time>2014-04-02T09:03:55Z</time>
      </trkpt>
      <trkpt lat="49.1672" lon="6.81672">
        <ele>244.1</ele>
        <time>2014-04-02T09:04:00Z</time>
      </trkpt>
      <trkpt lat="49.16725" lon="6.81678">
        <ele>243.4</ele>
        <time>2014-04-02T09:04:05Z</time>
      </trkpt>
      <trkpt lat="49.16739" lon="6.81685">
        <ele>242.8</ele>
        <time>2014-04-02T09:04:15Z</time>
      </trkpt>
      <trkpt lat="49.16745" lon="6.81688">
        <ele>241.7</ele>
        <time>2014-04-02T09:04:20Z</time>
      </trkpt>
      <trkpt lat="49.16751" lon="6.8169">
        <ele>242.1</ele>
        <time>2014-04-02T09:04:25Z</time>
      </trkpt>
      <trkpt lat="49.16757" lon="6.81694">
        <ele>241.4</ele>
        <time>2014-04-02T09:04:30Z</time>
      </trkpt>
      <trkpt lat="49.16763" lon="6.81697">
        <ele>241.9</ele>
        <time>2014-04-02T09:04:35Z</time>
      </trkpt>
      <trkpt lat="49.1677" lon="6.817">
        <ele>242.2</ele>
        <time>2014-04-02T09:04:40Z</time>
      </trkpt>
      <trkpt lat="49.16777" lon="6.81704">
        <ele>241</ele>
        <time>2014-04-02T09:04:45Z</time>
      </trkpt>
      <trkpt lat="49.16784" lon="6.81707">
        <ele>240.8</ele>
        <time>2014-04-02T09:04:50Z</time>
      </trkpt>
      <trkpt lat="49.16791" lon="6.81711">
        <ele>240.7</ele>
        <time>2014-04-02T09:04:55Z</time>
      </trkpt>
      <trkpt lat="49.16797" lon="6.81715">
        <ele>239.3</ele>
        <time>2014-04-02T09:05:00Z</time>
      </trkpt>
      <trkpt lat="49.16803" lon="6.81718">
        <ele>239.1</ele>
        <time>2014-04-02T09:05:05Z</time>
      </trkpt>
      <trkpt lat="49.16809" lon="6.81723">
        <ele>239.6</ele>
        <time>2014-04-02T09:05:10Z</time>
      </trkpt>
      <trkpt lat="49.16822" lon="6.81732">
        <ele>238.7</ele>
        <time>2014-04-02T09:05:20Z</time>
      </trkpt>
      <trkpt lat="49.16827" lon="6.81738">
        <ele>239</ele>
        <time>2014-04-02T09:05:25Z</time>
      </trkpt>
      <trkpt lat="49.16832" lon="6.81742">
        <ele>238.9</ele>
        <time>2014-04-02T09:05:30Z</time>
      </trkpt>
      <trkpt lat="49.16839" lon="6.81747">
        <ele>237.9</ele>
        <time>2014-04-02T09:05:35Z</time>
      </trkpt>
      <trkpt lat="49.16845" lon="6.81751">
        <ele>238.3</ele>
        <time>2014-04-02T09:05:40Z</time>
      </trkpt>
      <trkpt lat="49.16853" lon="6.81754">
        <ele>237.4</ele>
        <time>2014-04-02T09:05:45Z</time>
      </trkpt>
      <trkpt lat="49.1686" lon="6.81756">
        <ele>238.2</ele>
        <time>2014-04-02T09:05:50Z</time>
      </trkpt>
      <trkpt lat="49.16865" lon="6.81761">
        <ele>237.8</ele>
        <time>2014-04-02T09:05:55Z</time>
      </trkpt>
      <trkpt lat="49.1687" lon="6.81765">
        <ele>237.4</ele>
        <time>2014-04-02T09:06:00Z</time>
      </trkpt>
      <trkpt lat="49.16875" lon="6.81769">
        <ele>237.3</ele>
        <time>2014-04-02T09:06:05Z</time>
      </trkpt>
      <trkpt lat="49.1688" lon="6.81774">
        <ele>236.8</ele>
        <time>2014-04-02T09:06:10Z</time>
      </trkpt>
      <trkpt lat="49.16886" lon="6.81777">
        <ele>237.5</ele>
        <time>2014-04-02T09:06:15Z</time>
      </trkpt>
      <trkpt lat="49.16898" lon="6.81784">
        <ele>236.5</ele>
        <time>2014-04-02T09:06:25Z</time>
      </trkpt>
      <trkpt lat="49.16903" lon="6.81789">
        <ele>237</ele>
        <time>2014-04-02T09:06:30Z</time>
      </trkpt>
      <trkpt lat="49.16909" lon="6.81794">
        <ele>235.6</ele>
        <time>2014-04-02T09:06:35Z</time>
      </trkpt>
      <trkpt lat="49.16914" lon="6.81799">
        <ele>236.2</ele>
        <time>2014-04-02T09:06:40Z</time>
      </trkpt>
      <trkpt lat="49.16919" lon="6.81803">
        <ele>236.4</ele>
        <time>2014-04-02T09:06:45Z</time>
      </trkpt>
      <trkpt lat="49.16926" lon="6.81807">
        <ele>237.1</ele>
        <time>2014-04-02T09:06:50Z</time>
      </trkpt>
      <trkpt lat="49.1693" lon="6.81812">
        <ele>236.7</ele>
        <time>2014-04-02T09:06:55Z</time>
      </trkpt>
      <trkpt lat="49.16936" lon="6.81817">
        <ele>236.3</ele>
        <time>2014-04-02T09:07:00Z</time>
      </trkpt>
      <trkpt lat="49.16942" lon="6.8182">
        <ele>236.8</ele>
        <time>2014-04-02T09:07:05Z</time>
      </trkpt>
      <trkpt lat="49.16948" lon="6.81822">
        <ele>236.8</ele>
        <time>2014-04-02T09:07:10Z</time>
      </trkpt>
      <trkpt lat="49.16955" lon="6.81825">
        <ele>235.7</ele>
        <time>2014-04-02T09:07:15Z</time>
      </trkpt>
      <trkpt lat="49.16962" lon="6.81829">
        <ele>237.3</ele>
        <time>2014-04-02T09:07:20Z</time>
      </trkpt>
      <trkpt lat="49.16977" lon="6.81835">
        <ele>236.2</ele>
        <time>2014-04-02T09:07:30Z</time>
      </trkpt>
      <trkpt lat="49.16985" lon="6.81837">
        <ele>236.1</ele>
        <time>2014-04-02T09:07:35Z</time>
      </trkpt>
      <trkpt lat="49.16992" lon="6.8184">
        <ele>236.8</ele>
        <time>2014-04-02T09:07:40Z</time>
      </trkpt>
      <trkpt lat="49.16998" lon="6.81842">
        <ele>236</ele>
        <time>2014-04-02T09:07:45Z</time>
      </trkpt>
      <trkpt lat="49.17006" lon="6.81844">
        <ele>236</ele>
        <time>2014-04-02T09:07:50Z</time>
      </trkpt>
      <trkpt lat="49.17013" lon="6.81847">
        <ele>235.9</ele>
        <time>2014-04-02T09:07:55Z</time>
      </trkpt>
      <trkpt lat="49.1702" lon="6.81849">
        <ele>236.4</ele>
        <time>2014-04-02T09:08:00Z</time>
      </trkpt>
      <trkpt lat="49.17027" lon="6.81852">
        <ele>236.3</ele>
        <time>2014-04-02T09:08:05Z</time>
      </trkpt>
      <trkpt lat="49.17033" lon="6.81855">
        <ele>236.2</ele>
        <time>2014-04-02T09:08:10Z</time>
      </trkpt>
      <trkpt lat="49.17039" lon="6.81858">
        <ele>236.6</ele>
        <time>2014-04-02T09:08:15Z</time>
      </trkpt>
      <trkpt lat="49.17046" lon="6.81861">
        <ele>237</ele>
        <time>2014-04-02T09:08:20Z</time>
      </trkpt>
      <trkpt lat="49.17053" lon="6.81862">
        <ele>236.3</ele>
        <time>2014-04-02T09:08:25Z</time>
      </trkpt>
      <trkpt lat="49.17068" lon="6.81856">
        <ele>236.1</ele>
        <time>2014-04-02T09:08:35Z</time>
      </trkpt>
      <trkpt lat="49.17074" lon="6.8185">
        <ele>235.2</ele>
        <time>2014-04-02T09:08:40Z</time>
      </trkpt>
      <trkpt lat="49.17078" lon="6.81844">
        <ele>235.9</ele>
        <time>2014-04-02T09:08:45Z</time>
      </trkpt>
      <trkpt lat="49.17082" lon="6.81841">
        <ele>235.5</ele>
        <time>2014-04-02T09:08:50Z</time>
      </trkpt>
      <trkpt lat="49.17086" lon="6.81842">
        <ele>234.4</ele>
        <time>2014-04-02T09:08:55Z</time>
      </trkpt>
      <trkpt lat="49.1709" lon="6.81844">
        <ele>233.2</ele>
        <time>2014-04-02T09:09:00Z</time>
      </trkpt>
      <trkpt lat="49.17093" lon="6.8185">
        <ele>232.4</ele>
        <time>2014-04-02T09:09:05Z</time>
      </trkpt>
      <trkpt lat="49.17096" lon="6.81856">
        <ele>231.1</ele>
        <time>2014-04-02T09:09:10Z</time>
      </trkpt>
      <trkpt lat="49.171" lon="6.81858">
        <ele>230.8</ele>
        <time>2014-04-02T09:09:15Z</time>
      </trkpt>
      <trkpt lat="49.17104" lon="6.81858">
        <ele>230.2</ele>
        <time>2014-04-02T09:09:20Z</time>
      </trkpt>
      <trkpt lat="49.17109" lon="6.81855">
        <ele>229.9</ele>
        <time>2014-04-02T09:09:25Z</time>
      </trkpt>
      <trkpt lat="49.17111" lon="6.81851">
        <ele>230.9</ele>
        <time>2014-04-02T09:09:30Z</time>
      </trkpt>
      <trkpt lat="49.17112" lon="6.81839">
        <ele>231.3</ele>
        <time>2014-04-02T09:09:40Z</time>
      </trkpt>
      <trkpt lat="49.17112" lon="6.81831">
        <ele>231.4</ele>
        <time>2014-04-02T09:09:45Z</time>
      </trkpt>
      <trkpt lat="49.17112" lon="6.81823">
        <ele>230.9</ele>
        <time>2014-04-02T09:09:50Z</time>
      </trkpt>
      <trkpt lat="49.17113" lon="6.81816">
        <ele>230.5</ele>
        <time>2014-04-02T09:09:55Z</time>
      </trkpt>
      <trkpt lat="49.17113" lon="6.8181">
        <ele>229.6</ele>
        <time>2014-04-02T09:10:00Z</time>
      </trkpt>
      <trkpt lat="49.17114" lon="6.81804">
        <ele>230.2</ele>
        <time>2014-04-02T09:10:05Z</time>
      </trkpt>
      <trkpt lat="49.17116" lon="6.81799">
        <ele>229.1</ele>
        <time>2014-04-02T09:10:10Z</time>
      </trkpt>
      <trkpt lat="49.17118" lon="6.81792">
        <ele>228.5</ele>
        <time>2014-04-02T09:10:15Z</time>
      </trkpt>
      <trkpt lat="49.17119" lon="6.81786">
        <ele>229.2</ele>
        <time>2014-04-02T09:10:20Z</time>
      </trkpt>
      <trkpt lat="49.17119" lon="6.81788">
        <ele>229</ele>
        <time>2014-04-02T09:10:25Z</time>
      </trkpt>
      <trkpt lat="49.1712" lon="6.81793">
        <ele>227.5</ele>
        <time>2014-04-02T09:10:30Z</time>
      </trkpt>
      <trkpt lat="49.17121" lon="6.81799">
        <ele>226.7</ele>
        <time>2014-04-02T09:10:35Z</time>
      </trkpt>
      <trkpt lat="49.17127" lon="6.81815">
        <ele>226.2</ele>
        <time>2014-04-02T09:10:45Z</time>
      </trkpt>
      <trkpt lat="49.1713" lon="6.81824">
        <ele>224.6</ele>
        <time>2014-04-02T09:10:50Z</time>
      </trkpt>
      <trkpt lat="49.17133" lon="6.81833">
        <ele>225.2</ele>
        <time>2014-04-02T09:10:55Z</time>
      </trkpt>
      <trkpt lat="49.17137" lon="6.81842">
        <ele>225.3</ele>
        <time>2014-04-02T09:11:00Z</time>
      </trkpt>
      <trkpt lat="49.17141" lon="6.81851">
        <ele>223.9</ele>
        <time>2014-04-02T09:11:05Z</time>
      </trkpt>
      <trkpt lat="49.17144" lon="6.81862">
        <ele>224.7</ele>
        <time>2014-04-02T09:11:10Z</time>
      </trkpt>
      <trkpt lat="49.17147" lon="6.81873">
        <ele>224.2</ele>
        <time>2014-04-02T09:11:15Z</time>
      </trkpt>
      <trkpt lat="49.17148" lon="6.81883">
        <ele>224.6</ele>
        <time>2014-04-02T09:11:20Z</time>
      </trkpt>
      <trkpt lat="49.17147" lon="6.81893">
        <ele>224.3</ele>
        <time>2014-04-02T09:11:25Z</time>
      </trkpt>
      <trkpt lat="49.17145" lon="6.81903">
        <ele>224.9</ele>
        <time>2014-04-02T09:11:30Z</time>
      </trkpt>
      <trkpt lat="49.17145" lon="6.81912">
        <ele>224.4</ele>
        <time>2014-04-02T09:11:35Z</time>
      </trkpt>
      <trkpt lat="49.17142" lon="6.81921">
        <ele>225.1</ele>
        <time>2014-04-02T09:11:40Z</time>
      </trkpt>
      <trkpt lat="49.17131" lon="6.8193">
        <ele>224.2</ele>
        <time>2014-04-02T09:11:50Z</time>
      </trkpt>
      <trkpt lat="49.17126" lon="6.81937">
        <ele>224.6</ele>
        <time>2014-04-02T09:11:55Z</time>
      </trkpt>
      <trkpt lat="49.17121" lon="6.81943">
        <ele>224.5</ele>
        <time>2014-04-02T09:12:00Z</time>
      </trkpt>
      <trkpt lat="49.17119" lon="6.81953">
        <ele>225.1</ele>
        <time>2014-04-02T09:12:05Z</time>
      </trkpt>
      <trkpt lat="49.17118" lon="6.81962">
        <ele>225.1</ele>
        <time>2014-04-02T09:12:10Z</time>
      </trkpt>
      <trkpt lat="49.17117" lon="6.81973">
        <ele>225.5</ele>
        <time>2014-04-02T09:12:15Z</time>
      </trkpt>
      <trkpt lat="49.17116" lon="6.81983">
        <ele>225.1</ele>
        <time>2014-04-02T09:12:20Z</time>
      </trkpt>
      <trkpt lat="49.17116" lon="6.81993">
        <ele>224.2</ele>
        <time>2014-04-02T09:12:25Z</time>
      </trkpt>
      <trkpt lat="49.17116" lon="6.82002">
        <ele>223.4</ele>
        <time>2014-04-02T09:12:30Z</time>
      </trkpt>
      <trkpt lat="49.17117" lon="6.8201">
        <ele>223.9</ele>
        <time>2014-04-02T09:12:35Z</time>
      </trkpt>
      <trkpt lat="49.17118" lon="6.82017">
        <ele>223.7</ele>
        <time>2014-04-02T09:12:40Z</time>
      </trkpt>
      <trkpt lat="49.17119" lon="6.82026">
        <ele>225.1</ele>
        <time>2014-04-02T09:12:45Z</time>
      </trkpt>
      <trkpt lat="49.17124" lon="6.82044">
        <ele>224.5</ele>
        <time>2014-04-02T09:12:55Z</time>
      </trkpt>
      <trkpt lat="49.17127" lon="6.82053">
        <ele>224.6</ele>
        <time>2014-04-02T09:13:00Z</time>
      </trkpt>
      <trkpt lat="49.17129" lon="6.82063">
        <ele>225.5</ele>
        <time>2014-04-02T09:13:05Z</time>
      </trkpt>
      <trkpt lat="49.17132" lon="6.82073">
        <ele>225.3</ele>
        <time>2014-04-02T09:13:10Z</time>
      </trkpt>
      <trkpt lat="49.17135" lon="6.82082">
        <ele>226</ele>
        <time>2014-04-02T09:13:15Z</time>
      </trkpt>
      <trkpt lat="49.17138" lon="6.8209">
        <ele>225.4</ele>
        <time>2014-04-02T09:13:20Z</time>
      </trkpt>
      <trkpt lat="49.17141" lon="6.82098">
        <ele>224.4</ele>
        <time>2014-04-02T09:13:25Z</time>
      </trkpt>
      <trkpt lat="49.17143" lon="6.82108">
        <ele>224.6</ele>
        <time>2014-04-02T09:13:30Z</time>
      </trkpt>
      <trkpt lat="49.17144" lon="6.82119">
        <ele>224.9</ele>
        <time>2014-04-02T09:13:35Z</time>
      </trkpt>
      <trkpt lat="49.17145" lon="6.82129">
        <ele>225.5</ele>
        <time>2014-04-02T09:13:40Z</time>
      </trkpt>
      <trkpt lat="49.17146" lon="6.8214">
        <ele>225.2</ele>
        <time>2014-04-02T09:13:45Z</time>
      </trkpt>
      <trkpt lat="49.17147" lon="6.82151">
        <ele>226.5</ele>
        <time>2014-04-02T09:13:50Z</time>
      </trkpt>
      <trkpt lat="49.17147" lon="6.82171">
        <ele>225.4</ele>
        <time>2014-04-02T09:14:00Z</time>
      </trkpt>
      <trkpt lat="49.17149" lon="6.82181">
        <ele>225.3</ele>
        <time>2014-04-02T09:14:05Z</time>
      </trkpt>
      <trkpt lat="49.1715" lon="6.8219">
        <ele>225.4</ele>
        <time>2014-04-02T09:14:10Z</time>
      </trkpt>
      <trkpt lat="49.17152" lon="6.822">
        <ele>224</ele>
        <time>2014-04-02T09:14:15Z</time>
      </trkpt>
      <trkpt lat="49.17154" lon="6.8221">
        <ele>223.7</ele>
        <time>2014-04-02T09:14:20Z</time>
      </trkpt>
      <trkpt lat="49.17157" lon="6.8222">
        <ele>224.3</ele>
        <time>2014-04-02T09:14:25Z</time>
      </trkpt>
      <trkpt lat="49.17159" lon="6.82231">
        <ele>224</ele>
        <time>2014-04-02T09:14:30Z</time>
      </trkpt>
      <trkpt lat="49.1716" lon="6.82242">
        <ele>223.4</ele>
        <time>2014-04-02T09:14:35Z</time>
      </trkpt>
      <trkpt lat="49.17161" lon="6.82254">
        <ele>223.6</ele>
        <time>2014-04-02T09:14:40Z</time>
      </trkpt>
      <trkpt lat="49.17162" lon="6.82265">
        <ele>223</ele>
        <time>2014-04-02T09:14:45Z</time>
      </trkpt>
      <trkpt lat="49.17162" lon="6.82275">
        <ele>223.5</ele>
        <time>2014-04-02T09:14:50Z</time>
      </trkpt>
      <trkpt lat="49.17163" lon="6.82281">
        <ele>223.4</ele>
        <time>2014-04-02T09:14:55Z</time>
      </trkpt>
      <trkpt lat="49.17165" lon="6.82298">
        <ele>222</ele>
        <time>2014-04-02T09:15:05Z</time>
      </trkpt>
      <trkpt lat="49.17165" lon="6.82307">
        <ele>222</ele>
        <time>2014-04-02T09:15:10Z</time>
      </trkpt>
      <trkpt lat="49.17164" lon="6.82319">
        <ele>222.7</ele>
        <time>2014-04-02T09:15:15Z</time>
      </trkpt>
      <trkpt lat="49.17164" lon="6.82327">
        <ele>222.5</ele>
        <time>2014-04-02T09:15:20Z</time>
      </trkpt>
      <trkpt lat="49.17164" lon="6.82333">
        <ele>223.5</ele>
        <time>2014-04-02T09:15:25Z</time>
      </trkpt>
      <trkpt lat="49.17164" lon="6.8234">
        <ele>222.2</ele>
        <time>2014-04-02T09:15:30Z</time>
      </trkpt>
      <trkpt lat="49.17165" lon="6.82348">
        <ele>223.2</ele>
        <time>2014-04-02T09:15:35Z</time>
      </trkpt>
      <trkpt lat="49.17166" lon="6.82353">
        <ele>224.3</ele>
        <time>2014-04-02T09:15:40Z</time>
      </trkpt>
      <trkpt lat="49.17167" lon="6.8236">
        <ele>223.1</ele>
        <time>2014-04-02T09:15:45Z</time>
      </trkpt>
      <trkpt lat="49.17169" lon="6.82366">
        <ele>222</ele>
        <time>2014-04-02T09:15:50Z</time>
      </trkpt>
      <trkpt lat="49.17172" lon="6.8237">
        <ele>222.5</ele>
        <time>2014-04-02T09:15:55Z</time>
      </trkpt>
      <trkpt lat="49.17174" lon="6.82371">
        <ele>222.3</ele>
        <time>2014-04-02T09:16:00Z</time>
      </trkpt>
      <trkpt lat="49.1718" lon="6.82379">
        <ele>223.3</ele>
        <time>2014-04-02T09:16:10Z</time>
      </trkpt>
      <trkpt lat="49.17184" lon="6.82386">
        <ele>223.1</ele>
        <time>2014-04-02T09:16:15Z</time>
      </trkpt>
      <trkpt lat="49.17189" lon="6.82393">
        <ele>223.3</ele>
        <time>2014-04-02T09:16:20Z</time>
      </trkpt>
      <trkpt lat="49.17192" lon="6.82399">
        <ele>222</ele>
        <time>2014-04-02T09:16:25Z</time>
      </trkpt>
      <trkpt lat="49.17196" lon="6.82404">
        <ele>220.4</ele>
        <time>2014-04-02T09:16:30Z</time>
      </trkpt>
      <trkpt lat="49.17201" lon="6.82409">
        <ele>221.5</ele>
        <time>2014-04-02T09:16:35Z</time>
      </trkpt>
      <trkpt lat="49.17207" lon="6.82415">
        <ele>222</ele>
        <time>2014-04-02T09:16:40Z</time>
      </trkpt>
      <trkpt lat="49.17213" lon="6.82423">
        <ele>222.1</ele>
        <time>2014-04-02T09:16:45Z</time>
      </trkpt>
      <trkpt lat="49.17217" lon="6.82432">
        <ele>221.9</ele>
        <time>2014-04-02T09:16:50Z</time>
      </trkpt>
      <trkpt lat="49.1722" lon="6.82442">
        <ele>221.8</ele>
        <time>2014-04-02T09:16:55Z</time>
      </trkpt>
      <trkpt lat="49.17222" lon="6.82452">
        <ele>221.6</ele>
        <time>2014-04-02T09:17:00Z</time>
      </trkpt>
      <trkpt lat="49.17224" lon="6.82462">
        <ele>221.3</ele>
        <time>2014-04-02T09:17:05Z</time>
      </trkpt>
      <trkpt lat="49.17225" lon="6.82484">
        <ele>222.7</ele>
        <time>2014-04-02T09:17:15Z</time>
      </trkpt>
      <trkpt lat="49.17226" lon="6.82495">
        <ele>223.3</ele>
        <time>2014-04-02T09:17:20Z</time>
      </trkpt>
      <trkpt lat="49.17227" lon="6.82505">
        <ele>224.1</ele>
        <time>2014-04-02T09:17:25Z</time>
      </trkpt>
      <trkpt lat="49.17228" lon="6.82516">
        <ele>224</ele>
        <time>2014-04-02T09:17:30Z</time>
      </trkpt>
      <trkpt lat="49.17229" lon="6.82526">
        <ele>225.6</ele>
        <time>2014-04-02T09:17:35Z</time>
      </trkpt>
      <trkpt lat="49.1723" lon="6.82534">
        <ele>225.3</ele>
        <time>2014-04-02T09:17:40Z</time>
      </trkpt>
      <trkpt lat="49.1723" lon="6.82545">
        <ele>226.4</ele>
        <time>2014-04-02T09:17:45Z</time>
      </trkpt>
      <trkpt lat="49.1723" lon="6.82556">
        <ele>226.4</ele>
        <time>2014-04-02T09:17:50Z</time>
      </trkpt>
      <trkpt lat="49.17232" lon="6.82567">
        <ele>226.2</ele>
        <time>2014-04-02T09:17:55Z</time>
      </trkpt>
      <trkpt lat="49.17232" lon="6.82577">
        <ele>226.3</ele>
        <time>2014-04-02T09:18:00Z</time>
      </trkpt>
      <trkpt lat="49.17231" lon="6.82587">
        <ele>227</ele>
        <time>2014-04-02T09:18:05Z</time>
      </trkpt>
      <trkpt lat="49.17232" lon="6.82599">
        <ele>225.8</ele>
        <time>2014-04-02T09:18:10Z</time>
      </trkpt>
      <trkpt lat="49.17234" lon="6.8262">
        <ele>226.3</ele>
        <time>2014-04-02T09:18:20Z</time>
      </trkpt>
      <trkpt lat="49.17236" lon="6.82629">
        <ele>225.7</ele>
        <time>2014-04-02T09:18:25Z</time>
      </trkpt>
      <trkpt lat="49.17237" lon="6.82639">
        <ele>224.9</ele>
        <time>2014-04-02T09:18:30Z</time>
      </trkpt>
      <trkpt lat="49.17237" lon="6.82648">
        <ele>224.5</ele>
        <time>2014-04-02T09:18:35Z</time>
      </trkpt>
      <trkpt lat="49.17239" lon="6.82657">
        <ele>224.4</ele>
        <time>2014-04-02T09:18:40Z</time>
      </trkpt>
      <trkpt lat="49.17242" lon="6.82666">
        <ele>224.2</ele>
        <time>2014-04-02T09:18:45Z</time>
      </trkpt>
      <trkpt lat="49.17244" lon="6.82672">
        <ele>224</ele>
        <time>2014-04-02T09:18:50Z</time>
      </trkpt>
      <trkpt lat="49.17246" lon="6.82683">
        <ele>224.8</ele>
        <time>2014-04-02T09:18:55Z</time>
      </trkpt>
      <trkpt lat="49.1725" lon="6.82691">
        <ele>224</ele>
        <time>2014-04-02T09:19:00Z</time>
      </trkpt>
      <trkpt lat="49.17254" lon="6.827">
        <ele>224.8</ele>
        <time>2014-04-02T09:19:05Z</time>
      </trkpt>
      <trkpt lat="49.17258" lon="6.82707">
        <ele>224.9</ele>
        <time>2014-04-02T09:19:10Z</time>
      </trkpt>
      <trkpt lat="49.17261" lon="6.82715">
        <ele>225.3</ele>
        <time>2014-04-02T09:19:15Z</time>
      </trkpt>
      <trkpt lat="49.17265" lon="6.82731">
        <ele>226</ele>
        <time>2014-04-02T09:19:25Z</time>
      </trkpt>
      <trkpt lat="49.17266" lon="6.82738">
        <ele>225.7</ele>
        <time>2014-04-02T09:19:30Z</time>
      </trkpt>
      <trkpt lat="49.17269" lon="6.82746">
        <ele>226.3</ele>
        <time>2014-04-02T09:19:35Z</time>
      </trkpt>
      <trkpt lat="49.17272" lon="6.82755">
        <ele>225.4</ele>
        <time>2014-04-02T09:19:40Z</time>
      </trkpt>
      <trkpt lat="49.17275" lon="6.82763">
        <ele>226.7</ele>
        <time>2014-04-02T09:19:45Z</time>
      </trkpt>
      <trkpt lat="49.1728" lon="6.82771">
        <ele>224.9</ele>
        <time>2014-04-02T09:19:50Z</time>
      </trkpt>
      <trkpt lat="49.17284" lon="6.8278">
        <ele>225.6</ele>
        <time>2014-04-02T09:19:55Z</time>
      </trkpt>
      <trkpt lat="49.17289" lon="6.82788">
        <ele>226.2</ele>
        <time>2014-04-02T09:20:00Z</time>
      </trkpt>
      <trkpt lat="49.17294" lon="6.82797">
        <ele>226.9</ele>
        <time>2014-04-02T09:20:05Z</time>
      </trkpt>
      <trkpt lat="49.17298" lon="6.82806">
        <ele>226.1</ele>
        <time>2014-04-02T09:20:10Z</time>
      </trkpt>
      <trkpt lat="49.17304" lon="6.82814">
        <ele>226.3</ele>
        <time>2014-04-02T09:20:15Z</time>
      </trkpt>
      <trkpt lat="49.1731" lon="6.82822">
        <ele>225.8</ele>
        <time>2014-04-02T09:20:20Z</time>
      </trkpt>
      <trkpt lat="49.17319" lon="6.82838">
        <ele>225.5</ele>
        <time>2014-04-02T09:20:30Z</time>
      </trkpt>
      <trkpt lat="49.17323" lon="6.82846">
        <ele>224.8</ele>
        <time>2014-04-02T09:20:35Z</time>
      </trkpt>
      <trkpt lat="49.17328" lon="6.82854">
        <ele>224.9</ele>
        <time>2014-04-02T09:20:40Z</time>
      </trkpt>
      <trkpt lat="49.17333" lon="6.82863">
        <ele>224.5</ele>
        <time>2014-04-02T09:20:45Z</time>
      </trkpt>
      <trkpt lat="49.17336" lon="6.82871">
        <ele>225.2</ele>
        <time>2014-04-02T09:20:50Z</time>
      </trkpt>
      <trkpt lat="49.1734" lon="6.82879">
        <ele>225</ele>
        <time>2014-04-02T09:20:55Z</time>
      </trkpt>
      <trkpt lat="49.17344" lon="6.82888">
        <ele>224.9</ele>
        <time>2014-04-02T09:21:00Z</time>
      </trkpt>
      <trkpt lat="49.17347" lon="6.82897">
        <ele>224.9</ele>
        <time>2014-04-02T09:21:05Z</time>
      </trkpt>
      <trkpt lat="49.1735" lon="6.82906">
        <ele>224.6</ele>
        <time>2014-04-02T09:21:10Z</time>
      </trkpt>
      <trkpt lat="49.17355" lon="6.82915">
        <ele>224</ele>
        <time>2014-04-02T09:21:15Z</time>
      </trkpt>
      <trkpt lat="49.1736" lon="6.82923">
        <ele>224.3</ele>
        <time>2014-04-02T09:21:20Z</time>
      </trkpt>
      <trkpt lat="49.17364" lon="6.82931">
        <ele>224.9</ele>
        <time>2014-04-02T09:21:25Z</time>
      </trkpt>
      <trkpt lat="49.17372" lon="6.82944">
        <ele>224.6</ele>
        <time>2014-04-02T09:21:35Z</time>
      </trkpt>
      <trkpt lat="49.17375" lon="6.82952">
        <ele>223.5</ele>
        <time>2014-04-02T09:21:40Z</time>
      </trkpt>
      <trkpt lat="49.17378" lon="6.82961">
        <ele>223.3</ele>
        <time>2014-04-02T09:21:45Z</time>
      </trkpt>
      <trkpt lat="49.17382" lon="6.82969">
        <ele>223</ele>
        <time>2014-04-02T09:21:50Z</time>
      </trkpt>
      <trkpt lat="49.17387" lon="6.82976">
        <ele>222.6</ele>
        <time>2014-04-02T09:21:55Z</time>
      </trkpt>
      <trkpt lat="49.17391" lon="6.82985">
        <ele>222</ele>
        <time>2014-04-02T09:22:00Z</time>
      </trkpt>
      <trkpt lat="49.17394" lon="6.82994">
        <ele>221.4</ele>
        <time>2014-04-02T09:22:05Z</time>
      </trkpt>
      <trkpt lat="49.17395" lon="6.83004">
        <ele>221.9</ele>
        <time>2014-04-02T09:22:10Z</time>
      </trkpt>
      <trkpt lat="49.17397" lon="6.83013">
        <ele>221.6</ele>
        <time>2014-04-02T09:22:15Z</time>
      </trkpt>
      <trkpt lat="49.17399" lon="6.83022">
        <ele>221.3</ele>
        <time>2014-04-02T09:22:20Z</time>
      </trkpt>
      <trkpt lat="49.17401" lon="6.8303">
        <ele>221.1</ele>
        <time>2014-04-02T09:22:25Z</time>
      </trkpt>
      <trkpt lat="49.17403" lon="6.83036">
        <ele>221</ele>
        <time>2014-04-02T09:22:30Z</time>
      </trkpt>
      <trkpt lat="49.17405" lon="6.83055">
        <ele>221.5</ele>
        <time>2014-04-02T09:22:40Z</time>
      </trkpt>
      <trkpt lat="49.17405" lon="6.83064">
        <ele>221.1</ele>
        <time>2014-04-02T09:22:45Z</time>
      </trkpt>
      <trkpt lat="49.17404" lon="6.83071">
        <ele>220.9</ele>
        <time>2014-04-02T09:22:50Z</time>
      </trkpt>
      <trkpt lat="49.17403" lon="6.83075">
        <ele>221.2</ele>
        <time>2014-04-02T09:22:55Z</time>
      </trkpt>
      <trkpt lat="49.17403" lon="6.83076">
        <ele>221.1</ele>
        <time>2014-04-02T09:22:56Z</time>
      </trkpt>
    </trkseg>
  </trk>
</gpx>